[[{"header":{"parameterUnit":"m.s-1","parameterCategory":1,"la1":31.0,"la2":29.5877,"lo1":-88.7671,"lo2":-86.6584,"dy":0.0162,"dx":0.0185,"nx":115,"ny":88,"refTime":"2023-04-25T12:00:00:Z","depth":0,"parameterNumber":2,"parameterNumberName":"U-component_of_WINDS"},"data":[0.0,0.0,0.0,0.0,0.0,0.0,0.0,0.0,0.0,0.0,0.0,0.0,0.0,0.0,0.0,0.0,0.0,0.0,0.0,0.0,0.0,0.0,0.0,0.0,0.0,0.0,0.0,0.0,0.0,0.0,0.0,0.0,0.0,0.0,0.0,0.0,0.0,0.0,0.0,0.0,0.0,0.0,0.0,0.0,0.0,0.0,0.0,0.0,0.0,0.0,0.0,0.0,0.0,0.0,0.0,0.0,0.0,0.0,0.0,0.0,0.0,0.0,0.0,0.0,0.0,0.0,0.0,0.0,0.0,0.0,0.0,0.0,0.0,0.0,0.0,0.0,0.0,0.0,0.0,0.0,0.0,0.0,0.0,0.0,0.0,0.0,0.0,0.0,0.0,0.0,0.0,0.0,0.0,0.0,0.0,0.0,0.0,0.0,0.0,0.0,0.0,0.0,0.0,0.0,0.0,0.0,0.0,0.0,0.0,0.0,0.0,0.0,0.0,0.0,0.0,0.0,0.0,0.0,0.0,0.0,0.0,0.0,0.0,0.0,0.0,0.0,0.0,0.0,0.0,0.0,0.0,0.0,0.0,0.0,0.0,0.0,0.0,0.0,0.0,0.0,0.0,0.0,0.0,0.0,0.0,0.0,0.0,0.0,0.0,0.0,0.0,0.0,0.0,0.0,0.0,0.0,0.0,0.0,0.0,0.0,0.0,0.0,0.0,0.0,0.0,0.0,0.0,0.0,0.0,0.0,0.0,0.0,0.0,0.0,0.0,0.0,0.0,0.0,0.0,0.0,0.0,0.0,0.0,0.0,0.0,0.0,0.0,0.0,0.0,0.0,0.0,0.0,0.0,0.0,0.0,0.0,0.0,0.0,0.0,0.0,0.0,0.0,0.0,0.0,0.0,0.0,0.0,0.0,0.0,0.0,0.0,0.0,0.0,0.0,0.0,0.0,0.0,0.0,0.0,0.0,0.0,0.0,0.0,0.0,0.0,0.0,0.0,0.0,0.0,0.0,0.0,0.0,0.0,0.0,0.0,0.0,0.0,0.0,0.0,0.0,0.0,0.0,0.0,0.0,0.0,0.0,0.0,0.0,0.0,0.0,0.0,0.0,0.0,0.0,0.0,0.0,0.0,0.0,0.0,0.0,0.0,0.0,0.0,0.0,0.0,0.0,0.0,0.0,0.0,0.0,0.0,0.0,0.0,0.0,0.0,0.0,0.0,0.0,0.0,0.0,0.0,0.0,0.0,0.0,0.0,0.0,0.0,0.0,0.0,0.0,0.0,0.0,0.0,0.0,0.0,0.0,0.0,0.0,0.0,0.0,0.0,0.0,0.0,0.0,0.0,0.0,0.0,0.0,0.0,0.0,0.0,0.0,0.0,0.0,0.0,0.0,0.0,0.0,0.0,0.0,0.0,0.0,0.0,0.0,0.0,0.0,0.0,0.0,0.0,0.0,0.0,0.0,0.0,0.0,0.0,0.0,0.0,0.0,0.0,0.0,0.0,0.0,0.0,0.0,0.0,0.0,0.0,0.0,0.0,0.0,0.0,0.0,0.0,0.0,0.0,0.0,0.0,0.0,0.0,0.0,0.0,0.0,0.0,0.0,0.0,0.0,0.0,0.0,0.0,0.0,0.0,0.0,0.0,0.0,0.0,0.0,0.0,0.0,0.0,0.0,0.0,0.0,0.0,0.0,0.0,0.0,0.0,0.0,0.0,0.0,0.0,0.0,0.0,0.0,0.0,0.0,0.0,0.0,0.0,0.0,0.0,0.0,0.0,0.0,0.0,0.0,0.0,0.0,0.0,0.0,0.0,0.0,0.0,0.0,0.0,0.0,0.0,0.0,0.0,0.0,0.0,0.0,0.0,0.0,0.0,0.0,0.0,0.0,0.0,0.0,0.0,0.0,0.0,0.0,0.0,0.0,0.0,0.0,0.0,0.0,0.0,0.0,0.0,0.0,0.0,0.0,0.0,0.0,0.0,0.0,0.0,0.0,0.0,0.0,0.0,0.0,0.0,0.0,0.0,0.0,0.0,0.0,0.0,0.0,0.0,0.0,0.0,0.0,0.0,0.0,0.0,0.0,0.0,0.0,0.0,0.0,0.0,0.0,0.0,0.0,0.0,0.0,0.0,0.0,0.0,0.0,0.0,0.0,0.0,0.0,0.0,0.0,0.0,0.0,0.0,0.0,0.0,0.0,0.0,0.0,0.0,0.0,0.0,0.0,0.0,0.0,0.0,0.0,0.0,0.0,0.0,0.0,0.0,0.0,0.0,0.0,0.0,0.0,0.0,0.0,0.0,0.0,0.0,0.0,0.0,0.0,0.0,0.0,0.0,0.0,0.0,0.0,0.0,0.0,0.0,0.0,0.0,0.0,0.0,0.0,0.0,0.0,0.0,0.0,0.0,0.0,0.0,0.0,0.0,0.0,0.0,0.0,0.0,0.0,0.0,0.0,0.0,0.0,0.0,0.0,0.0,0.0,0.0,0.0,0.0,0.0,0.0,0.0,0.0,0.0,0.0,0.0,0.0,0.0,0.0,0.0,0.0,0.0,0.0,0.0,0.0,0.0,0.0,0.0,0.0,0.0,0.0,0.0,0.0,0.0,0.0,0.0,0.0,0.0,0.0,0.0,0.0,0.0,0.0,0.0,0.0,0.0,0.0,0.0,0.0,0.0,0.0,0.0,0.0,0.0,0.0,0.0,0.0,0.0,0.0,0.0,0.0,0.0,0.0,0.0,0.0,0.0,0.0,0.0,0.0,0.0,0.0,0.0,0.0,0.0,0.0,0.0,0.0,0.0,0.0,0.0,0.0,0.0,0.0,0.0,0.0,0.0,0.0,0.0,0.0,0.0,0.0,0.0,0.0,0.0,0.0,0.0,0.0,0.0,0.0,0.0,0.0,0.0,0.0,0.0,0.0,0.0,0.0,0.0,0.0,0.0,0.0,0.0,0.0,0.0,0.0,0.0,0.0,0.0,0.0,0.0,0.0,0.0,0.0,0.0,0.0,0.0,0.0,0.0,0.0,0.0,0.0,0.0,0.0,0.0,0.0,0.0,0.0,0.0,0.0,0.0,0.0,0.0,0.0,0.0,0.0,0.0,0.0,0.0,0.0,0.0,0.0,0.0,0.0,0.0,0.0,0.0,0.0,0.0,0.0,0.0,0.0,0.0,0.0,0.0,0.0,0.0,0.0,0.0,0.0,0.0,0.0,0.0,0.0,0.0,0.0,0.0,0.0,0.0,0.0,0.0,0.0,0.0,0.0,0.0,0.0,0.0,0.0,0.0,0.0,0.0,0.0,0.0,0.0,0.0,0.0,0.0,0.0,0.0,0.0,0.0,0.0,0.0,0.0,0.0,0.0,0.0,0.0,0.0,0.0,0.0,0.0,0.0,0.0,0.0,0.0,0.0,0.0,0.0,0.0,0.0,0.0,0.0,0.0,0.0,0.0,0.0,0.0,0.0,0.0,0.0,0.0,0.0,0.0,0.0,0.0,0.0,0.0,0.0,0.0,0.0,0.0,0.0,0.0,0.0,0.0,0.0,0.0,0.0,0.0,0.0,0.0,0.0,0.0,0.0,0.0,0.0,0.0,0.0,0.0,0.0,0.0,0.0,0.0,0.0,0.0,0.0,0.0,0.0,0.0,0.0,0.0,0.0,0.0,0.0,0.0,0.0,0.0,0.0,0.0,0.0,0.0,0.0,0.0,0.0,0.0,0.0,0.0,0.0,0.0,0.0,0.0,0.0,0.0,0.0,0.0,0.0,0.0,0.0,0.0,0.0,0.0,0.0,0.0,0.0,0.0,0.0,0.0,0.0,0.0,0.0,0.0,0.0,0.0,0.0,0.0,0.0,0.0,0.0,0.0,0.0,0.0,0.0,0.0,0.0,0.0,0.0,0.0,0.0,0.0,0.0,0.0,0.0,0.0,0.0,0.0,0.0,0.0,0.0,0.0,0.0,0.0,0.0,0.0,0.0,0.0,0.0,0.0,0.0,0.0,0.0,0.0,0.0,0.0,0.0,0.0,0.0,0.0,0.0,0.0,0.0,0.0,0.0,0.0,0.0,0.0,0.0,0.0,0.0,0.0,0.0,0.0,0.0,0.0,0.0,0.0,0.0,0.0,0.0,0.0,0.0,0.0,0.0,0.0,0.0,0.0,0.0,0.0,0.0,0.0,0.0,0.0,0.0,0.0,0.0,0.0,0.0,0.0,0.0,0.0,0.0,0.0,0.0,0.0,0.0,0.0,0.0,0.0,0.0,0.0,0.0,-4.889,0.0,0.0,0.0,0.0,0.0,0.0,0.0,0.0,0.0,0.0,0.0,0.0,0.0,0.0,0.0,0.0,0.0,0.0,0.0,0.0,0.0,0.0,0.0,0.0,0.0,0.0,0.0,0.0,0.0,0.0,0.0,0.0,0.0,0.0,0.0,0.0,0.0,0.0,0.0,0.0,0.0,0.0,0.0,0.0,0.0,0.0,0.0,0.0,0.0,0.0,0.0,0.0,0.0,0.0,0.0,0.0,0.0,0.0,0.0,0.0,0.0,0.0,0.0,0.0,0.0,0.0,0.0,0.0,0.0,0.0,0.0,0.0,0.0,0.0,0.0,0.0,0.0,0.0,0.0,0.0,0.0,0.0,0.0,0.0,0.0,0.0,0.0,0.0,0.0,0.0,0.0,0.0,0.0,0.0,0.0,0.0,0.0,0.0,0.0,0.0,0.0,0.0,0.0,0.0,0.0,0.0,0.0,0.0,0.0,0.0,-4.889,-4.889,-4.889,-4.889,-4.889,0.0,0.0,0.0,0.0,0.0,0.0,0.0,0.0,0.0,0.0,0.0,0.0,0.0,0.0,0.0,0.0,0.0,0.0,0.0,0.0,0.0,0.0,0.0,0.0,0.0,0.0,0.0,0.0,0.0,0.0,0.0,0.0,0.0,0.0,0.0,0.0,0.0,0.0,0.0,0.0,0.0,0.0,0.0,0.0,0.0,0.0,0.0,0.0,0.0,0.0,0.0,0.0,0.0,0.0,0.0,0.0,0.0,0.0,0.0,0.0,0.0,0.0,0.0,0.0,0.0,0.0,0.0,0.0,0.0,0.0,0.0,0.0,0.0,0.0,0.0,0.0,0.0,0.0,0.0,0.0,0.0,0.0,0.0,0.0,0.0,0.0,0.0,0.0,0.0,0.0,0.0,0.0,0.0,0.0,0.0,0.0,0.0,0.0,0.0,0.0,0.0,0.0,0.0,0.0,0.0,0.0,0.0,0.0,0.0,0.0,0.0,0.0,-4.9447,-4.9485,-4.9447,0.0,0.0,0.0,0.0,0.0,0.0,0.0,0.0,0.0,0.0,0.0,0.0,0.0,0.0,0.0,0.0,0.0,0.0,0.0,0.0,0.0,0.0,0.0,0.0,0.0,0.0,0.0,0.0,0.0,0.0,0.0,0.0,0.0,0.0,0.0,0.0,0.0,0.0,0.0,0.0,0.0,0.0,0.0,0.0,0.0,0.0,0.0,0.0,0.0,0.0,0.0,0.0,0.0,0.0,0.0,0.0,0.0,0.0,0.0,0.0,0.0,0.0,0.0,0.0,0.0,0.0,0.0,0.0,0.0,0.0,0.0,0.0,0.0,0.0,0.0,0.0,0.0,0.0,0.0,0.0,0.0,0.0,0.0,0.0,0.0,0.0,0.0,0.0,0.0,0.0,0.0,0.0,0.0,0.0,0.0,0.0,0.0,0.0,0.0,0.0,0.0,0.0,0.0,0.0,0.0,0.0,0.0,0.0,0.0,0.0,-4.9633,-5.1119,-5.1156,0.0,-5.1064,0.0,0.0,0.0,0.0,0.0,0.0,0.0,0.0,0.0,0.0,0.0,0.0,0.0,0.0,0.0,0.0,0.0,0.0,0.0,0.0,0.0,0.0,0.0,0.0,0.0,0.0,0.0,0.0,0.0,0.0,0.0,0.0,0.0,0.0,0.0,0.0,0.0,0.0,0.0,0.0,0.0,0.0,0.0,0.0,0.0,0.0,0.0,0.0,0.0,0.0,0.0,0.0,0.0,0.0,0.0,0.0,0.0,0.0,0.0,0.0,0.0,0.0,0.0,0.0,0.0,0.0,0.0,0.0,0.0,0.0,0.0,0.0,0.0,0.0,0.0,0.0,0.0,0.0,0.0,0.0,0.0,0.0,0.0,0.0,0.0,0.0,0.0,0.0,0.0,0.0,0.0,0.0,0.0,0.0,0.0,0.0,0.0,0.0,0.0,0.0,0.0,0.0,0.0,0.0,0.0,0.0,0.0,0.0,0.0,0.0,-4.9707,-5.1379,-5.1379,-5.0933,0.0,0.0,0.0,0.0,0.0,0.0,0.0,0.0,0.0,0.0,0.0,0.0,0.0,0.0,0.0,0.0,0.0,0.0,0.0,0.0,0.0,0.0,0.0,0.0,0.0,0.0,0.0,0.0,0.0,0.0,0.0,0.0,0.0,0.0,0.0,0.0,0.0,0.0,0.0,0.0,0.0,0.0,0.0,0.0,0.0,0.0,0.0,0.0,0.0,0.0,0.0,0.0,0.0,0.0,0.0,0.0,0.0,0.0,0.0,0.0,0.0,0.0,0.0,0.0,0.0,0.0,0.0,0.0,0.0,0.0,0.0,0.0,0.0,0.0,0.0,0.0,0.0,0.0,0.0,0.0,0.0,0.0,0.0,0.0,0.0,0.0,0.0,0.0,0.0,0.0,0.0,0.0,0.0,0.0,0.0,0.0,0.0,0.0,0.0,0.0,0.0,0.0,0.0,0.0,0.0,0.0,0.0,0.0,0.0,0.0,-5.0116,-5.0376,-5.1899,-5.1083,-5.0249,-4.9596,0.0,0.0,0.0,0.0,0.0,0.0,0.0,0.0,0.0,0.0,0.0,0.0,0.0,0.0,0.0,0.0,0.0,0.0,0.0,0.0,0.0,0.0,0.0,0.0,0.0,0.0,0.0,0.0,0.0,0.0,0.0,0.0,0.0,0.0,0.0,0.0,0.0,0.0,0.0,0.0,0.0,0.0,0.0,0.0,0.0,0.0,0.0,0.0,0.0,0.0,0.0,0.0,0.0,0.0,0.0,0.0,0.0,0.0,0.0,0.0,0.0,0.0,0.0,0.0,0.0,0.0,0.0,0.0,0.0,0.0,0.0,0.0,0.0,0.0,0.0,0.0,0.0,0.0,0.0,0.0,0.0,0.0,0.0,0.0,0.0,0.0,0.0,0.0,0.0,0.0,0.0,0.0,0.0,0.0,0.0,0.0,0.0,0.0,0.0,0.0,0.0,0.0,0.0,0.0,0.0,0.0,0.0,0.0,-5.346,-5.2048,-5.2048,-5.346,-5.036,-4.9418,0.0,0.0,0.0,0.0,0.0,0.0,0.0,0.0,0.0,0.0,0.0,0.0,0.0,0.0,0.0,0.0,0.0,0.0,0.0,0.0,0.0,0.0,0.0,0.0,0.0,0.0,0.0,0.0,0.0,0.0,0.0,0.0,0.0,0.0,0.0,0.0,0.0,0.0,0.0,0.0,0.0,0.0,0.0,0.0,0.0,0.0,0.0,0.0,0.0,0.0,0.0,0.0,0.0,0.0,0.0,0.0,0.0,0.0,0.0,0.0,0.0,0.0,0.0,0.0,0.0,0.0,0.0,0.0,0.0,0.0,0.0,0.0,0.0,0.0,0.0,0.0,0.0,0.0,0.0,0.0,0.0,0.0,0.0,0.0,0.0,0.0,0.0,0.0,0.0,0.0,0.0,0.0,0.0,0.0,0.0,0.0,0.0,0.0,0.0,0.0,0.0,0.0,0.0,0.0,0.0,0.0,0.0,0.0,0.0,-5.1491,-5.1416,-5.1379,-5.1361,-5.0009,-4.9306,0.0,0.0,0.0,0.0,0.0,0.0,0.0,0.0,0.0,0.0,0.0,0.0,0.0,0.0,0.0,0.0,0.0,0.0,0.0,0.0,0.0,0.0,0.0,0.0,0.0,0.0,0.0,0.0,0.0,0.0,0.0,0.0,0.0,0.0,0.0,0.0,0.0,0.0,0.0,0.0,0.0,0.0,0.0,0.0,0.0,0.0,0.0,0.0,0.0,0.0,0.0,0.0,0.0,0.0,0.0,0.0,0.0,0.0,0.0,0.0,0.0,0.0,0.0,0.0,0.0,0.0,0.0,0.0,0.0,0.0,0.0,0.0,0.0,0.0,0.0,0.0,0.0,0.0,0.0,0.0,0.0,0.0,0.0,0.0,0.0,0.0,0.0,0.0,0.0,0.0,0.0,0.0,0.0,0.0,0.0,0.0,0.0,0.0,0.0,0.0,0.0,0.0,0.0,0.0,0.0,0.0,0.0,0.0,0.0,-5.1008,0.0,-5.1639,-5.0562,-4.9843,-4.8938,0.0,0.0,0.0,0.0,0.0,0.0,0.0,0.0,0.0,0.0,0.0,0.0,0.0,0.0,0.0,0.0,0.0,0.0,0.0,0.0,0.0,0.0,0.0,0.0,0.0,0.0,0.0,0.0,0.0,0.0,0.0,0.0,0.0,0.0,0.0,0.0,0.0,0.0,0.0,0.0,0.0,0.0,0.0,0.0,0.0,0.0,0.0,0.0,0.0,0.0,0.0,0.0,0.0,0.0,0.0,0.0,0.0,0.0,0.0,0.0,0.0,0.0,0.0,0.0,0.0,0.0,0.0,0.0,0.0,0.0,0.0,0.0,0.0,0.0,0.0,0.0,0.0,0.0,0.0,0.0,0.0,0.0,0.0,0.0,0.0,0.0,0.0,0.0,0.0,0.0,0.0,0.0,0.0,0.0,0.0,0.0,0.0,0.0,0.0,0.0,0.0,0.0,0.0,0.0,0.0,0.0,0.0,0.0,-5.0896,-5.2457,-5.3274,-5.2902,-5.1454,-4.9709,-4.815,0.0,0.0,0.0,0.0,0.0,0.0,0.0,0.0,0.0,0.0,0.0,0.0,0.0,0.0,0.0,0.0,0.0,0.0,0.0,0.0,0.0,0.0,0.0,0.0,0.0,0.0,0.0,0.0,0.0,0.0,0.0,0.0,0.0,0.0,0.0,0.0,0.0,0.0,0.0,0.0,0.0,0.0,0.0,0.0,0.0,0.0,0.0,0.0,0.0,0.0,0.0,0.0,0.0,0.0,0.0,0.0,0.0,0.0,0.0,0.0,0.0,0.0,0.0,0.0,0.0,0.0,0.0,0.0,0.0,0.0,0.0,0.0,0.0,0.0,0.0,0.0,0.0,0.0,0.0,0.0,0.0,0.0,0.0,0.0,0.0,0.0,0.0,0.0,0.0,0.0,0.0,0.0,0.0,0.0,0.0,0.0,0.0,0.0,0.0,0.0,0.0,0.0,0.0,0.0,0.0,0.0,0.0,0.0,0.0,-5.0116,-5.1416,-5.2419,-5.2884,-4.8864,-4.7738,0.0,0.0,0.0,0.0,0.0,0.0,0.0,0.0,0.0,0.0,0.0,0.0,0.0,0.0,0.0,0.0,0.0,0.0,0.0,0.0,0.0,0.0,0.0,0.0,0.0,0.0,0.0,0.0,0.0,0.0,0.0,0.0,0.0,0.0,0.0,0.0,0.0,0.0,0.0,0.0,0.0,0.0,0.0,0.0,0.0,0.0,0.0,0.0,0.0,0.0,0.0,0.0,0.0,0.0,0.0,0.0,0.0,0.0,0.0,0.0,0.0,0.0,0.0,0.0,0.0,0.0,0.0,0.0,0.0,0.0,0.0,0.0,0.0,0.0,0.0,0.0,0.0,0.0,0.0,0.0,0.0,0.0,0.0,0.0,0.0,0.0,0.0,0.0,0.0,0.0,0.0,0.0,0.0,0.0,0.0,0.0,0.0,0.0,0.0,0.0,0.0,0.0,0.0,0.0,0.0,0.0,0.0,0.0,0.0,-5.1804,-5.2419,-5.294,-5.3348,-4.9287,-4.7752,-4.8979,0.0,0.0,0.0,0.0,0.0,0.0,0.0,0.0,0.0,0.0,0.0,0.0,0.0,0.0,0.0,0.0,0.0,0.0,0.0,0.0,0.0,0.0,0.0,0.0,0.0,0.0,0.0,0.0,0.0,0.0,0.0,0.0,0.0,0.0,0.0,0.0,0.0,0.0,0.0,0.0,0.0,0.0,0.0,0.0,0.0,0.0,0.0,0.0,0.0,0.0,0.0,0.0,0.0,0.0,0.0,0.0,0.0,0.0,0.0,0.0,0.0,0.0,0.0,0.0,0.0,0.0,0.0,0.0,0.0,0.0,0.0,0.0,0.0,0.0,0.0,0.0,0.0,0.0,0.0,0.0,0.0,0.0,0.0,0.0,0.0,0.0,0.0,0.0,0.0,0.0,0.0,0.0,0.0,0.0,0.0,0.0,0.0,0.0,0.0,0.0,0.0,0.0,0.0,0.0,0.0,0.0,0.0,0.0,-5.6705,-5.5973,-5.4891,-5.3311,-5.1081,-4.8439,0.0,0.0,0.0,0.0,0.0,0.0,0.0,0.0,0.0,0.0,0.0,0.0,0.0,0.0,0.0,0.0,0.0,0.0,0.0,0.0,0.0,0.0,0.0,0.0,0.0,0.0,0.0,0.0,0.0,0.0,0.0,0.0,0.0,0.0,0.0,0.0,0.0,0.0,0.0,0.0,0.0,0.0,0.0,0.0,0.0,0.0,0.0,0.0,0.0,0.0,0.0,0.0,0.0,0.0,0.0,0.0,0.0,0.0,0.0,0.0,0.0,0.0,0.0,0.0,0.0,0.0,0.0,0.0,0.0,0.0,0.0,0.0,0.0,0.0,0.0,0.0,0.0,0.0,0.0,0.0,0.0,0.0,0.0,0.0,0.0,0.0,0.0,0.0,0.0,0.0,0.0,0.0,0.0,0.0,0.0,0.0,0.0,0.0,0.0,0.0,0.0,0.0,0.0,0.0,0.0,0.0,0.0,0.0,0.0,-5.9206,-6.1388,-6.1677,-5.9812,-5.4775,-5.1946,0.0,0.0,0.0,0.0,0.0,0.0,0.0,0.0,0.0,0.0,0.0,0.0,0.0,0.0,0.0,0.0,0.0,0.0,0.0,0.0,0.0,0.0,0.0,0.0,0.0,0.0,0.0,0.0,0.0,0.0,0.0,0.0,0.0,0.0,0.0,0.0,0.0,0.0,0.0,0.0,0.0,0.0,0.0,0.0,0.0,0.0,0.0,0.0,0.0,0.0,0.0,0.0,0.0,0.0,0.0,0.0,0.0,0.0,0.0,0.0,0.0,0.0,0.0,0.0,0.0,0.0,0.0,0.0,0.0,0.0,0.0,0.0,0.0,0.0,0.0,0.0,0.0,0.0,0.0,0.0,0.0,0.0,0.0,0.0,0.0,0.0,0.0,0.0,0.0,0.0,0.0,0.0,0.0,0.0,0.0,0.0,0.0,0.0,0.0,0.0,0.0,0.0,0.0,0.0,0.0,0.0,0.0,0.0,-5.9664,-6.2857,-6.6512,-6.7583,-6.5742,-6.0073,-5.5615,0.0,0.0,0.0,0.0,0.0,0.0,0.0,0.0,0.0,0.0,0.0,0.0,0.0,0.0,0.0,0.0,0.0,0.0,0.0,0.0,0.0,0.0,0.0,0.0,0.0,0.0,0.0,0.0,0.0,0.0,0.0,0.0,0.0,0.0,0.0,0.0,0.0,0.0,0.0,0.0,0.0,0.0,0.0,0.0,0.0,0.0,0.0,0.0,0.0,0.0,0.0,0.0,0.0,0.0,0.0,0.0,0.0,0.0,0.0,0.0,0.0,0.0,0.0,0.0,0.0,0.0,0.0,0.0,0.0,0.0,0.0,0.0,0.0,0.0,0.0,0.0,0.0,0.0,0.0,0.0,0.0,0.0,0.0,0.0,0.0,0.0,0.0,0.0,0.0,0.0,0.0,0.0,0.0,0.0,0.0,0.0,0.0,0.0,0.0,0.0,0.0,0.0,0.0,0.0,0.0,0.0,0.0,0.0,-6.344,-6.6673,-7.1014,-7.2446,-7.0575,-6.5573,-5.9078,0.0,0.0,0.0,0.0,0.0,0.0,0.0,0.0,0.0,0.0,0.0,0.0,0.0,0.0,0.0,0.0,0.0,0.0,0.0,0.0,0.0,0.0,0.0,0.0,0.0,0.0,0.0,0.0,0.0,0.0,0.0,0.0,0.0,0.0,0.0,0.0,0.0,0.0,0.0,0.0,0.0,0.0,0.0,0.0,0.0,0.0,0.0,0.0,0.0,0.0,0.0,0.0,0.0,0.0,0.0,0.0,0.0,0.0,0.0,0.0,0.0,0.0,0.0,0.0,0.0,0.0,0.0,0.0,0.0,0.0,0.0,0.0,0.0,0.0,0.0,0.0,0.0,0.0,0.0,0.0,0.0,0.0,0.0,0.0,0.0,0.0,0.0,0.0,0.0,0.0,0.0,0.0,0.0,0.0,0.0,0.0,0.0,0.0,0.0,0.0,0.0,0.0,0.0,0.0,0.0,0.0,0.0,0.0,-6.3803,-6.7519,-7.2964,-7.4847,-7.2785,-6.6806,-6.0478,0.0,0.0,0.0,0.0,0.0,0.0,0.0,0.0,0.0,0.0,0.0,0.0,0.0,0.0,0.0,0.0,0.0,0.0,0.0,0.0,0.0,0.0,0.0,0.0,0.0,0.0,0.0,0.0,0.0,0.0,0.0,0.0,0.0,0.0,0.0,0.0,0.0,0.0,0.0,0.0,0.0,0.0,0.0,0.0,0.0,0.0,0.0,0.0,-4.8866,0.0,0.0,0.0,0.0,0.0,0.0,0.0,0.0,0.0,0.0,0.0,0.0,0.0,0.0,0.0,0.0,0.0,0.0,0.0,0.0,0.0,0.0,0.0,0.0,0.0,0.0,0.0,0.0,0.0,0.0,0.0,0.0,0.0,0.0,0.0,0.0,0.0,0.0,0.0,0.0,0.0,0.0,0.0,0.0,0.0,0.0,0.0,0.0,0.0,0.0,0.0,0.0,0.0,0.0,0.0,0.0,0.0,0.0,0.0,-6.533,-6.9528,-7.4335,-7.5526,-7.2724,-6.778,-6.2275,0.0,0.0,0.0,0.0,0.0,0.0,0.0,0.0,0.0,0.0,0.0,0.0,0.0,0.0,0.0,0.0,0.0,0.0,0.0,0.0,0.0,0.0,0.0,0.0,0.0,0.0,0.0,0.0,0.0,0.0,0.0,0.0,0.0,0.0,0.0,0.0,0.0,0.0,0.0,0.0,0.0,0.0,0.0,0.0,0.0,0.0,0.0,0.0,0.0,0.0,0.0,0.0,0.0,0.0,0.0,0.0,0.0,0.0,0.0,0.0,0.0,0.0,0.0,0.0,0.0,0.0,0.0,0.0,0.0,0.0,0.0,0.0,0.0,0.0,0.0,0.0,0.0,0.0,0.0,0.0,0.0,0.0,0.0,0.0,0.0,0.0,0.0,0.0,0.0,0.0,0.0,0.0,0.0,0.0,0.0,0.0,0.0,0.0,0.0,0.0,0.0,0.0,0.0,0.0,0.0,0.0,0.0,-6.2332,-6.7083,-7.1651,-7.5408,-7.568,-7.2343,-6.8566,-6.3836,-5.8032,0.0,0.0,0.0,0.0,0.0,0.0,0.0,0.0,0.0,0.0,0.0,0.0,0.0,0.0,0.0,0.0,0.0,0.0,0.0,0.0,0.0,0.0,0.0,0.0,0.0,0.0,0.0,0.0,0.0,0.0,0.0,0.0,0.0,0.0,0.0,0.0,0.0,0.0,-4.4436,-4.5394,0.0,0.0,0.0,0.0,0.0,0.0,0.0,0.0,-5.2548,0.0,0.0,0.0,0.0,0.0,0.0,0.0,0.0,0.0,0.0,0.0,0.0,0.0,0.0,0.0,0.0,0.0,0.0,0.0,0.0,0.0,0.0,0.0,0.0,0.0,0.0,0.0,0.0,0.0,0.0,0.0,0.0,0.0,0.0,0.0,0.0,0.0,0.0,0.0,0.0,0.0,0.0,0.0,0.0,0.0,0.0,0.0,0.0,0.0,0.0,0.0,0.0,0.0,0.0,0.0,0.0,-6.0161,-6.3841,-6.795,-7.2514,-7.6217,-7.6671,-7.3587,-6.907,-6.3948,-5.8409,0.0,0.0,0.0,0.0,0.0,0.0,0.0,0.0,0.0,0.0,0.0,0.0,0.0,0.0,0.0,0.0,0.0,0.0,0.0,0.0,0.0,0.0,0.0,0.0,0.0,0.0,0.0,0.0,0.0,0.0,0.0,0.0,0.0,0.0,0.0,0.0,0.0,0.0,0.0,-4.786,-4.8551,0.0,0.0,0.0,0.0,0.0,0.0,0.0,0.0,-5.3473,0.0,0.0,0.0,0.0,0.0,0.0,0.0,0.0,0.0,0.0,0.0,0.0,0.0,0.0,0.0,0.0,0.0,0.0,0.0,0.0,0.0,0.0,0.0,0.0,0.0,0.0,0.0,0.0,0.0,0.0,0.0,0.0,0.0,0.0,0.0,0.0,0.0,0.0,0.0,0.0,0.0,0.0,0.0,0.0,0.0,0.0,0.0,0.0,0.0,0.0,0.0,0.0,0.0,0.0,0.0,-6.0035,-6.4425,-6.8671,-7.2725,-7.4919,-7.4617,-7.1696,-6.6533,-6.1537,0.0,0.0,0.0,0.0,0.0,0.0,0.0,0.0,0.0,0.0,0.0,0.0,0.0,0.0,0.0,0.0,0.0,0.0,0.0,0.0,0.0,0.0,0.0,0.0,0.0,0.0,0.0,0.0,0.0,0.0,0.0,0.0,0.0,0.0,0.0,0.0,0.0,0.0,0.0,0.0,-4.8055,-4.8687,-4.8347,0.0,0.0,0.0,0.0,0.0,0.0,-5.2741,-5.3832,0.0,0.0,0.0,0.0,0.0,0.0,0.0,0.0,0.0,0.0,0.0,0.0,0.0,0.0,0.0,0.0,0.0,0.0,0.0,0.0,0.0,0.0,0.0,0.0,0.0,0.0,0.0,0.0,0.0,0.0,0.0,0.0,0.0,0.0,0.0,0.0,0.0,0.0,0.0,0.0,0.0,0.0,0.0,0.0,0.0,0.0,0.0,0.0,0.0,0.0,0.0,0.0,0.0,0.0,0.0,-5.9156,-6.4331,-6.8767,-7.2237,-7.3161,-7.2225,-6.9404,-6.4272,-5.9559,0.0,0.0,0.0,0.0,0.0,0.0,0.0,0.0,0.0,0.0,0.0,0.0,0.0,0.0,0.0,0.0,0.0,0.0,0.0,0.0,0.0,0.0,0.0,0.0,0.0,0.0,0.0,0.0,0.0,0.0,0.0,0.0,0.0,0.0,0.0,0.0,0.0,0.0,0.0,0.0,0.0,-4.9424,-4.9158,-4.8995,0.0,0.0,0.0,0.0,-5.1536,-5.3559,0.0,0.0,0.0,0.0,0.0,0.0,0.0,0.0,0.0,0.0,0.0,0.0,0.0,0.0,0.0,0.0,0.0,0.0,0.0,0.0,0.0,0.0,0.0,0.0,0.0,0.0,0.0,0.0,0.0,0.0,0.0,0.0,0.0,0.0,0.0,0.0,0.0,0.0,0.0,0.0,0.0,0.0,0.0,0.0,0.0,0.0,0.0,0.0,0.0,0.0,0.0,0.0,0.0,0.0,0.0,0.0,-5.8404,-6.32,-6.7313,-7.0563,-7.1876,-7.1228,-6.8572,-6.5028,-6.0629,0.0,0.0,0.0,0.0,0.0,0.0,0.0,0.0,0.0,0.0,0.0,0.0,0.0,0.0,0.0,0.0,0.0,0.0,0.0,0.0,0.0,0.0,0.0,0.0,0.0,0.0,0.0,0.0,0.0,0.0,0.0,0.0,0.0,0.0,0.0,0.0,0.0,0.0,0.0,0.0,0.0,-5.3327,-5.1732,-5.149,-5.1211,0.0,0.0,-5.1694,-5.2083,-5.5395,0.0,0.0,0.0,0.0,0.0,0.0,0.0,0.0,0.0,0.0,0.0,0.0,0.0,0.0,0.0,0.0,0.0,0.0,0.0,0.0,0.0,0.0,0.0,0.0,0.0,0.0,0.0,0.0,0.0,0.0,0.0,0.0,0.0,0.0,0.0,0.0,0.0,0.0,0.0,0.0,0.0,0.0,0.0,0.0,0.0,0.0,0.0,0.0,0.0,0.0,0.0,0.0,0.0,0.0,0.0,-5.6197,-5.8747,-6.3293,-6.6817,-6.9056,-6.9447,-6.8668,-6.6707,-6.1968,-5.7882,0.0,0.0,0.0,0.0,0.0,0.0,0.0,0.0,0.0,0.0,0.0,0.0,0.0,0.0,0.0,0.0,0.0,0.0,0.0,0.0,0.0,0.0,0.0,0.0,0.0,0.0,0.0,0.0,0.0,0.0,0.0,0.0,0.0,0.0,0.0,0.0,0.0,0.0,0.0,0.0,0.0,0.0,-5.1563,-5.1651,0.0,0.0,0.0,-5.2258,-5.3301,0.0,0.0,0.0,0.0,0.0,0.0,0.0,0.0,0.0,0.0,0.0,0.0,0.0,0.0,0.0,0.0,0.0,0.0,0.0,0.0,0.0,0.0,0.0,0.0,0.0,0.0,0.0,0.0,0.0,0.0,0.0,0.0,0.0,0.0,0.0,0.0,0.0,0.0,0.0,0.0,0.0,0.0,0.0,0.0,0.0,0.0,0.0,0.0,0.0,0.0,0.0,0.0,0.0,0.0,0.0,0.0,0.0,-5.8819,-6.265,-6.5502,-6.7185,-6.6922,-6.6016,-6.4433,-5.9593,0.0,0.0,0.0,0.0,0.0,0.0,0.0,0.0,0.0,0.0,0.0,0.0,0.0,0.0,0.0,0.0,0.0,0.0,0.0,0.0,0.0,0.0,0.0,0.0,0.0,0.0,0.0,-4.3212,0.0,0.0,0.0,0.0,0.0,0.0,0.0,0.0,0.0,0.0,0.0,0.0,0.0,0.0,-5.3005,-5.173,-5.2332,-5.2956,0.0,0.0,-5.3182,-5.4267,-5.6284,-5.7396,0.0,0.0,0.0,0.0,0.0,0.0,0.0,0.0,0.0,0.0,0.0,0.0,0.0,0.0,0.0,0.0,0.0,0.0,0.0,0.0,0.0,0.0,0.0,0.0,0.0,0.0,0.0,0.0,0.0,0.0,0.0,0.0,0.0,0.0,0.0,0.0,0.0,0.0,0.0,0.0,0.0,0.0,0.0,0.0,0.0,0.0,0.0,0.0,0.0,0.0,0.0,0.0,0.0,0.0,-5.6347,-5.7883,-6.0228,-6.2553,-6.4655,-6.4475,-6.3602,-6.2057,-5.9745,-5.6775,0.0,0.0,0.0,0.0,0.0,0.0,0.0,0.0,0.0,0.0,0.0,0.0,0.0,0.0,0.0,0.0,0.0,0.0,0.0,0.0,0.0,0.0,0.0,0.0,0.0,0.0,0.0,0.0,0.0,0.0,0.0,0.0,0.0,0.0,0.0,0.0,0.0,0.0,0.0,0.0,0.0,-5.4058,-5.3352,-5.4613,-5.5681,0.0,-5.5621,-5.5191,-5.4678,-5.7838,-5.9197,-5.5921,0.0,0.0,0.0,0.0,0.0,0.0,0.0,0.0,0.0,0.0,0.0,0.0,0.0,0.0,0.0,0.0,0.0,0.0,0.0,0.0,0.0,0.0,0.0,0.0,0.0,0.0,0.0,0.0,0.0,0.0,0.0,0.0,0.0,0.0,0.0,0.0,0.0,0.0,0.0,0.0,0.0,0.0,0.0,0.0,0.0,0.0,0.0,0.0,0.0,0.0,0.0,0.0,0.0,-5.6572,-5.8556,-6.0464,-6.2299,-6.3984,-6.3899,-6.3028,-6.1415,-5.9209,-5.6633,0.0,0.0,0.0,0.0,0.0,0.0,0.0,0.0,0.0,0.0,0.0,0.0,0.0,0.0,0.0,0.0,0.0,0.0,0.0,0.0,0.0,0.0,0.0,0.0,0.0,0.0,0.0,0.0,-4.5956,-4.6399,-4.7049,0.0,0.0,0.0,0.0,0.0,0.0,0.0,0.0,0.0,0.0,-5.5039,-5.4349,-5.5551,0.0,0.0,-5.6517,-5.6196,-5.6149,-5.7674,-5.8427,-5.7061,-5.8071,0.0,0.0,0.0,0.0,0.0,0.0,0.0,0.0,0.0,0.0,0.0,0.0,0.0,0.0,0.0,0.0,0.0,0.0,0.0,0.0,0.0,0.0,0.0,0.0,0.0,0.0,0.0,0.0,0.0,0.0,0.0,0.0,0.0,0.0,0.0,0.0,0.0,0.0,0.0,0.0,0.0,0.0,0.0,0.0,0.0,0.0,0.0,0.0,0.0,0.0,0.0,0.0,-5.6461,-5.8905,-6.0145,-6.1639,-6.3364,-6.3162,-6.2176,-6.0409,-5.856,-5.6347,0.0,0.0,0.0,0.0,0.0,0.0,0.0,0.0,0.0,0.0,0.0,0.0,0.0,0.0,0.0,0.0,0.0,0.0,0.0,0.0,0.0,0.0,0.0,0.0,0.0,0.0,0.0,0.0,-4.683,-4.7355,-4.8291,0.0,0.0,0.0,0.0,0.0,0.0,0.0,0.0,0.0,0.0,-5.4919,-5.4667,-5.5714,-5.6767,-5.751,-5.681,-5.6369,-5.69,-5.7471,-5.7679,-5.723,0.0,0.0,0.0,0.0,0.0,0.0,0.0,0.0,0.0,0.0,0.0,0.0,0.0,0.0,0.0,0.0,0.0,0.0,0.0,0.0,0.0,0.0,0.0,0.0,0.0,0.0,0.0,0.0,0.0,0.0,-5.3757,0.0,0.0,0.0,0.0,0.0,0.0,0.0,0.0,0.0,0.0,0.0,0.0,0.0,0.0,0.0,0.0,0.0,0.0,0.0,0.0,0.0,0.0,-5.5864,-5.8661,-5.8723,-5.9938,-6.2339,-6.196,-6.0796,-5.8845,-5.8024,-5.616,-5.3054,0.0,0.0,0.0,0.0,0.0,0.0,0.0,0.0,0.0,0.0,0.0,0.0,0.0,0.0,0.0,0.0,0.0,0.0,0.0,0.0,0.0,0.0,0.0,0.0,0.0,0.0,-4.7017,-4.7298,-4.7731,0.0,0.0,0.0,0.0,0.0,0.0,0.0,0.0,0.0,0.0,-5.1867,-5.3337,-5.4317,-5.5122,-5.6266,-5.7824,-5.6518,-5.5641,-5.6463,-5.7379,-5.7468,0.0,0.0,0.0,0.0,0.0,0.0,0.0,0.0,0.0,0.0,0.0,0.0,0.0,0.0,0.0,0.0,0.0,0.0,0.0,0.0,0.0,0.0,0.0,0.0,0.0,0.0,0.0,-5.124,-5.2732,0.0,0.0,0.0,0.0,0.0,0.0,0.0,0.0,0.0,0.0,0.0,-6.0173,-6.0829,0.0,0.0,0.0,0.0,0.0,0.0,0.0,0.0,0.0,0.0,0.0,0.0,-5.566,-5.8054,-5.8445,-5.9723,-6.2037,-6.1326,-6.0192,-5.8738,-5.7989,-5.6347,-5.3742,0.0,0.0,0.0,0.0,0.0,0.0,0.0,0.0,0.0,0.0,0.0,0.0,0.0,0.0,0.0,0.0,0.0,0.0,0.0,0.0,0.0,0.0,0.0,0.0,0.0,-4.745,0.0,0.0,0.0,0.0,0.0,0.0,0.0,0.0,0.0,0.0,0.0,-5.0213,-5.1065,-5.2755,-5.419,-5.5085,-5.5822,-5.6536,0.0,0.0,0.0,0.0,0.0,0.0,0.0,0.0,0.0,0.0,0.0,0.0,0.0,0.0,-6.282,-6.2512,-6.2805,-6.3078,-6.3078,0.0,0.0,0.0,0.0,0.0,0.0,0.0,0.0,0.0,0.0,0.0,0.0,0.0,0.0,-5.2269,0.0,-5.3472,0.0,0.0,0.0,0.0,0.0,0.0,0.0,0.0,-5.8953,-5.991,-6.1036,-6.1676,-6.1187,0.0,-5.8747,-5.7735,0.0,0.0,0.0,0.0,0.0,0.0,0.0,0.0,-5.56,-5.77,-5.8566,-5.984,-6.1563,-6.1181,-6.022,-5.8738,-5.7168,-5.574,-5.4429,-5.3171,-5.2101,0.0,0.0,0.0,0.0,0.0,0.0,0.0,0.0,0.0,0.0,0.0,0.0,0.0,0.0,0.0,0.0,0.0,0.0,0.0,0.0,0.0,0.0,0.0,-4.7578,0.0,0.0,0.0,0.0,0.0,0.0,0.0,0.0,0.0,-4.9819,-5.0333,-5.1054,-5.1837,-5.3025,-5.4068,-5.4854,0.0,0.0,0.0,0.0,0.0,0.0,0.0,-5.7153,-5.7363,-5.8256,-5.9429,-6.0696,-6.1095,-6.1627,-6.2781,0.0,0.0,-6.3358,-6.3681,-6.399,-6.4029,-6.5513,-6.6653,-6.6278,-6.7794,-6.919,0.0,0.0,0.0,0.0,0.0,0.0,0.0,0.0,-5.3268,-5.4054,0.0,-5.4517,0.0,0.0,0.0,0.0,0.0,-5.5193,0.0,0.0,-5.9272,-6.0266,-6.1787,-6.1937,-6.1449,-6.051,-5.9722,-5.8391,-5.6613,-5.4801,0.0,0.0,0.0,0.0,0.0,0.0,-5.57,-5.7448,-5.8804,-6.0033,-6.0985,-6.1362,-6.056,-5.856,-5.5642,-5.4394,-5.4991,-5.2993,-5.2101,-5.2804,-5.2101,0.0,0.0,0.0,0.0,0.0,0.0,0.0,0.0,0.0,0.0,0.0,0.0,0.0,0.0,0.0,0.0,0.0,0.0,0.0,0.0,-4.7493,0.0,0.0,0.0,0.0,0.0,0.0,0.0,0.0,0.0,0.0,-5.1379,-5.1454,-5.1751,-5.2494,0.0,0.0,0.0,0.0,-5.4388,-5.6023,-5.554,-5.5577,-5.7175,-5.7992,-5.8451,-5.8499,0.0,0.0,-6.1935,-6.2101,-6.2589,-6.4282,-6.4551,-6.432,-6.3589,-6.4233,-6.489,-6.5016,-6.538,-6.6016,-6.7584,-6.8819,-6.9759,-5.637,0.0,0.0,0.0,0.0,-5.3883,-5.4695,-5.5653,-5.4964,-5.4929,-5.5321,-5.4463,0.0,0.0,0.0,0.0,0.0,0.0,-5.6497,-5.9022,-6.026,-6.1519,-6.2688,-6.3851,-6.3363,-6.1411,-6.045,-5.9118,-5.7453,-5.6196,-5.4983,-5.3831,0.0,0.0,0.0,0.0,-5.5643,-5.6653,-5.7762,-5.8811,-5.9806,-5.9122,-5.795,-5.624,-5.5321,-5.4456,-5.3599,-5.3421,-5.2921,-5.2101,-5.2376,0.0,0.0,0.0,0.0,0.0,0.0,0.0,0.0,0.0,0.0,0.0,0.0,0.0,0.0,0.0,0.0,0.0,0.0,0.0,-4.7156,-4.7653,-4.7939,0.0,0.0,0.0,0.0,0.0,0.0,0.0,0.0,0.0,-5.294,-5.2605,-5.2345,0.0,0.0,-5.3534,-5.3757,-5.3794,-5.4166,-5.5206,-5.5169,0.0,-5.6469,-5.7299,-5.7959,-5.8419,-5.9789,-6.1089,-6.1947,-6.2101,-6.2639,-6.4282,-6.4628,-6.4705,-6.5114,-6.5546,-6.6265,-6.7354,-6.7498,-6.7858,-6.9504,-7.0141,-7.0777,-6.0852,-5.8061,-5.6368,-5.5788,-5.6047,-5.6341,-5.6965,-5.7733,-5.7117,-5.6893,-5.6836,-5.5958,-5.5231,-5.4671,-5.4761,0.0,0.0,0.0,-5.7867,-6.0394,-6.1698,-6.2844,-6.3734,-6.4764,-6.4129,-6.2051,-6.1127,-5.9797,-5.8137,-5.7315,-5.6176,-5.4834,0.0,0.0,-5.4519,-5.5478,-5.6228,-5.6779,-5.7697,-5.8458,-5.9025,-5.7783,-5.6668,-5.5705,-5.4777,-5.3992,-5.335,-5.3457,-5.3135,-5.2208,-5.2921,-5.285,0.0,0.0,0.0,0.0,0.0,0.0,0.0,0.0,0.0,0.0,0.0,-4.8415,-4.7747,0.0,0.0,0.0,-4.7621,-4.7542,-4.7542,-4.7999,0.0,0.0,0.0,0.0,0.0,0.0,0.0,-5.1934,-5.2011,-5.2234,-5.32,-5.32,-5.3088,-5.3088,-5.3497,-5.3794,-5.3794,0.0,-5.4574,-5.5391,-5.58,-5.6283,-5.7138,-5.7762,-5.8409,-5.9086,-6.0085,-6.1089,-6.1947,-6.232,-6.3051,-6.4243,-6.4897,-6.5397,-6.6205,-6.636,-6.6703,-6.8117,-6.8793,-6.96,-7.0972,-7.1714,-7.2651,-6.5013,-6.3143,-5.9175,-5.8072,-5.8858,-5.8443,-5.8746,-5.9558,-5.9384,-5.9272,-5.9103,-5.8108,-5.7695,-5.762,-5.6717,0.0,-5.7621,-5.8438,-6.011,-6.2524,-6.3379,-6.4196,-6.4902,-6.4902,-6.4122,-6.2562,-6.1633,-6.0407,-5.8921,-5.8211,-5.7392,-5.6506,-5.6124,-5.605,-5.6317,-5.6773,-5.718,-5.7489,-5.823,-5.8555,-5.8408,-5.7038,-5.624,-5.6062,-5.3956,-5.31,-5.3645,-5.3135,-5.2768,-5.2733,-5.3492,-5.3242,-5.1815,0.0,0.0,0.0,0.0,0.0,0.0,0.0,0.0,0.0,0.0,0.0,0.0,0.0,0.0,-4.8012,-4.8269,0.0,-4.8364,-4.8383,0.0,0.0,0.0,-4.8325,-4.8165,-4.9251,-4.9953,-4.9933,0.0,0.0,-5.2679,-5.3348,-5.3794,-5.3794,-5.3794,-5.3794,-5.3794,-5.4463,-5.5317,-5.6134,-5.6952,-5.7769,-5.8364,-5.8894,-5.9372,-5.9991,-6.0597,-6.1243,-6.2101,-6.2897,-6.3705,-6.4589,-6.5359,-6.6051,-6.6859,-6.6631,-6.6664,-6.7604,-6.9221,-7.0855,-7.187,-7.3236,-7.4525,-6.6205,-6.518,-6.3847,-6.2704,-6.1834,-6.2029,-6.1446,-6.0285,-5.9918,-5.9065,-5.7874,-5.7052,-5.666,-5.666,-5.6415,-5.71,-5.8417,-5.9255,-6.0964,-6.3342,-6.4828,-6.5608,-6.5794,-6.5794,-6.5274,-6.4159,-6.219,-6.1001,-6.0555,-5.9148,-5.8368,-5.8141,-5.8021,-5.7427,-5.6357,-5.7019,-5.7427,-5.7509,-5.774,-5.7252,-5.606,-5.5669,-5.492,-5.3742,-5.26,-5.1779,-5.1351,-5.1744,-5.1672,-5.1137,-5.2386,-5.2707,-5.1744,-5.1851,0.0,0.0,0.0,0.0,0.0,0.0,0.0,0.0,0.0,-4.8058,-4.7803,0.0,-4.7726,0.0,-4.8569,-4.8605,-4.8151,-4.8269,0.0,0.0,-4.8212,-4.8488,-4.9492,-4.9123,-4.9603,-5.1695,-5.1788,-5.2159,-5.3385,-5.3683,-5.3794,-5.3794,-5.3794,-5.3794,-5.3831,-5.45,-5.5317,-5.6172,-5.7026,-5.7769,-5.8553,-5.9253,-5.9689,-5.9906,-6.0925,-6.205,-6.2858,-6.3705,-6.4551,-6.5397,-6.5743,-6.5974,-6.6205,-6.6757,-6.7542,-6.8404,-6.9221,-7.0387,-7.2495,-7.3822,-7.4759,-6.6628,-6.5872,-6.547,-6.4764,-6.3894,-6.3848,-6.3182,-6.2124,-6.1715,-6.0853,-5.9589,-5.8438,-5.7695,-5.736,-5.736,-5.8252,-5.9812,-6.0645,-6.2153,-6.4136,-6.5496,-6.6091,-6.6091,-6.5719,-6.5274,-6.473,-6.271,-6.1558,-6.115,-5.9887,-5.9048,-5.8698,-5.8677,-5.8252,-5.7435,-5.7806,-5.7946,-5.7799,-5.767,-5.7071,-5.6025,-5.5107,-5.4242,-5.3421,-5.2279,-5.1494,-5.1066,-5.1779,-5.1851,-5.1137,-5.2529,-5.285,-5.1779,-5.2029,-5.209,0.0,0.0,0.0,0.0,0.0,0.0,0.0,0.0,0.0,0.0,0.0,-4.7975,-4.8192,-4.8642,-4.8714,-4.8212,-4.8476,-4.8642,-4.8605,-4.8513,-4.8679,-4.9486,-4.9676,-5.0343,-5.1881,-5.2308,-5.2791,-5.3683,-5.3794,-5.3794,-5.3831,-5.4128,-5.4351,-5.4406,-5.5057,-5.5874,-5.6729,-5.7509,-5.8178,-5.864,-5.9326,-5.9923,-6.0329,-6.1319,-6.237,-6.3166,-6.4012,-6.4743,-6.5205,-6.5628,-6.6013,-6.6384,-6.7038,-6.7992,-6.9165,-6.9767,-7.0808,-7.2846,-7.4251,-7.5266,-6.6628,-6.5885,-6.5513,-6.5397,-6.5314,-6.4649,-6.4233,-6.4001,-6.3503,-6.2784,-6.1856,-6.0407,-5.9367,-5.8677,-5.8677,-5.9552,-6.1076,-6.1856,-6.3082,-6.4508,-6.5496,-6.5942,-6.5905,-6.5139,-6.4791,-6.473,-6.3082,-6.1893,-6.1187,-6.0258,-5.9383,-5.8714,-5.8677,-5.8677,-5.8635,-5.8677,-5.8529,-5.8105,-5.7774,-5.7351,-5.684,-5.5147,-5.4116,-5.3866,-5.2534,-5.1712,-5.164,-5.2258,-5.2269,-5.1637,-5.2957,-5.31,-5.1779,-5.2401,-5.2523,0.0,-5.1033,0.0,0.0,0.0,0.0,0.0,0.0,0.0,0.0,-4.866,-4.8456,-4.8072,-4.855,-4.8785,-4.8477,-4.8732,-4.889,-4.889,-4.889,-4.8964,-4.9224,-5.0413,-5.1379,-5.1676,-5.2865,-5.3683,-5.3794,-5.3794,-5.3812,-5.4017,-5.4537,-5.5057,-5.5391,-5.5986,-5.6692,-5.7435,-5.8178,-5.864,-5.8946,-5.9514,-6.0264,-6.1029,-6.1969,-6.2654,-6.3397,-6.4243,-6.4782,-6.4897,-6.559,-6.6282,-6.6987,-6.7464,-6.8373,-7.0021,-7.0624,-7.1399,-7.2963,-7.4447,-7.5621,-6.6628,-6.5897,-6.5808,-6.5781,-6.5755,-6.5284,-6.4358,-6.3063,-6.2087,-6.0815,-5.9404,-5.9069,-5.8846,-5.8698,-5.8677,-5.9234,-6.0163,-6.1038,-6.1967,-6.2896,-6.4359,-6.5051,-6.5051,-6.4902,-6.4791,-6.4619,-6.2524,-6.1336,-6.1187,-5.9664,-5.8846,-5.8698,-5.8677,-5.8551,-5.8216,0.0,0.0,0.0,-5.7774,-5.7097,-5.6071,-5.5646,-5.4838,-5.3554,-5.263,0.0,-5.1261,-5.1023,-5.0887,-5.078,-5.1637,0.0,0.0,0.0,0.0,0.0,0.0,0.0,0.0,0.0,0.0,0.0,-5.0517,-5.037,-5.0392,-5.001,-4.9381,-4.8438,-4.8678,-4.891,-4.882,-4.8855,-4.889,-4.889,-4.889,-4.941,-5.0711,-5.0599,-5.1082,-5.3125,-5.3051,-5.3088,-5.3683,-5.3794,-5.4054,-5.4611,-5.4909,-5.5577,-5.684,-5.71,-5.7323,-5.7546,-5.8289,-5.8958,-5.9568,-6.0266,-6.1006,-6.1918,-6.3217,-6.409,-6.4474,-6.5128,-6.5667,-6.5705,-6.632,-6.6898,-6.7141,-6.7918,-6.9236,-7.0914,-7.1565,-7.2065,-7.3116,-7.4056,-7.4954,-6.6628,0.0,-6.5676,-6.5608,0.0,-6.4557,-6.3669,-6.2857,-6.23,-6.099,-5.9329,-5.9292,-5.9069,-5.8677,-5.8677,-5.9144,-5.9903,-6.037,-6.1001,-6.1856,-6.2636,-6.3208,-6.3639,-6.3639,-6.3825,-6.4159,-6.2562,-6.1596,-6.115,-5.9924,-5.9107,-5.8677,-5.8677,-5.8593,-5.8406,-5.8614,-5.8614,-5.8406,-5.8051,-5.7554,-5.6926,-5.6007,-5.5112,-5.4313,-5.3152,0.0,0.0,0.0,0.0,0.0,0.0,0.0,0.0,0.0,0.0,-5.2244,-5.2431,-5.2498,-5.2422,-5.1892,-5.1799,-5.2284,-5.2322,-5.1841,-5.062,-5.0249,-4.9674,-4.8752,-4.8803,-4.889,-4.889,-4.889,-4.889,-4.889,-4.9262,-4.9856,-5.0636,-5.1119,-5.1825,-5.294,-5.32,-5.3385,-5.3757,-5.4203,-5.4537,-5.4963,-5.5763,-5.6506,-5.7286,-5.7509,-5.7732,-5.8512,-5.8974,-5.9589,-6.0375,-6.0957,-6.1911,-6.3217,-6.4306,-6.529,-6.6333,-6.6821,-6.7128,-6.7167,-6.7513,-6.7936,-6.886,-6.9631,-7.072,-7.226,-7.3002,-7.3507,-7.433,-7.4876,-7.5266,-6.6513,-6.5885,-6.5566,-6.5297,-6.5061,-6.3681,-6.2862,-6.2482,0.0,0.0,0.0,-5.9701,-5.9329,-5.8698,-5.8677,-5.9069,-5.9701,-5.968,-6.0072,-6.0778,-6.089,-6.1336,-6.1967,-6.2094,-6.2524,-6.3119,-6.2376,-6.1633,-6.0964,-6.011,-5.9292,-5.8586,-5.8624,-5.8677,-5.8677,-5.8677,-5.8677,-5.8677,-5.8282,-5.8031,-5.7862,-5.6305,-5.5341,-5.5085,-5.3807,-5.287,-5.2394,-5.2361,-5.2315,-5.2302,-5.2278,-5.2278,-5.2338,-5.3431,-5.3644,-5.2767,-5.3526,-5.3946,-5.3638,-5.3412,-5.3461,-5.3756,-5.3794,-5.2865,-5.0711,-5.0413,-5.0005,-4.9187,-4.9002,-4.889,-4.889,-4.889,-4.8964,-4.9113,-4.9707,-5.019,-5.0599,-5.1714,-5.2605,-5.2828,-5.3423,-5.3868,-5.4054,-5.4574,-5.5169,-5.5577,-5.658,-5.7695,-5.7881,-5.8066,-5.8454,-5.9494,-5.9961,-6.046,-6.14,-6.2061,-6.2994,-6.4871,-6.5715,-6.6701,-6.8087,-6.8629,-6.8706,-6.8821,-6.8859,-6.9475,-7.0785,-7.1528,-7.2452,-7.3929,-7.4517,-7.4993,-7.5774,-7.6047,-7.6047,-6.6013,-6.5897,-6.5859,-6.5385,-6.4654,-6.4159,-6.2758,-6.0849,-6.0492,-5.9801,-5.8863,-5.8884,-5.8809,-5.8677,-5.8677,-5.8751,-5.8884,-5.8884,-5.8958,-5.9107,-5.9775,-6.0125,-6.0274,-6.1038,-6.1447,-6.1484,-6.0667,-6.0184,-5.9998,-5.9292,-5.8475,-5.7843,-5.8364,-5.8677,-5.8677,-5.8677,-5.8677,-5.8677,-5.8319,-5.7773,-5.7089,-5.6787,-5.5992,-5.4684,-5.4375,-5.3897,-5.3172,-5.2893,-5.2717,-5.2717,-5.2717,-5.2717,-5.2739,-5.3836,-5.4338,-5.4185,-5.4317,-5.4543,-5.4699,-5.383,-5.3461,-5.3756,-5.3794,-5.3348,-5.2345,-5.1602,-5.0859,-5.0005,-4.9373,-4.889,-4.889,-4.8964,-4.9262,-4.9856,-5.0116,-5.0711,-5.1974,-5.2457,-5.294,-5.3534,-5.372,-5.4128,-5.476,-5.5,-5.5652,-5.6766,-5.7435,-5.7992,-5.9107,-5.9568,-5.9627,-5.9961,-6.0555,-6.1596,-6.2962,-6.3893,-6.4991,-6.6576,-6.805,-6.8992,-6.9602,-6.9744,-6.9937,-7.0437,-7.0552,-7.0975,-7.1912,-7.291,-7.3894,-7.4925,-7.538,-7.5888,-7.6672,-7.6828,-7.6867,-6.6282,-6.5885,-6.5663,-6.535,-6.4862,-6.3438,-6.1523,-5.9525,-5.8855,-5.8661,-5.8698,-5.8677,-5.8677,-5.8677,-5.8677,-5.8677,-5.8677,-5.8677,-5.8677,-5.8735,-5.9048,-5.9234,-5.9308,-6.011,-6.046,-6.0481,-6.0593,-6.0147,-5.9271,-5.8884,-5.8289,-5.7621,-5.8326,-5.8677,-5.8677,-5.8677,-5.8677,-5.8677,-5.8106,-5.7614,-5.7223,-5.6335,-5.5484,-5.4781,-5.4337,-5.385,-5.3318,-5.3172,-5.3088,-5.3088,-5.3491,-5.3711,-5.3748,-5.5207,-5.5829,-5.5217,-5.5792,-5.5788,-5.5038,-5.4104,-5.3639,-5.3775,-5.3794,-5.3645,-5.3311,-5.2531,-5.1714,-5.0896,-5.045,-5.0265,-5.0265,-5.0265,-5.0413,-5.0748,-5.1193,-5.1788,-5.2494,-5.3051,-5.3571,-5.4277,-5.4463,-5.4797,-5.5614,-5.6097,-5.6543,-5.7472,-5.8141,-5.9086,-5.9887,-6.1113,-6.1893,-6.1967,-6.2264,-6.3193,-6.4665,-6.5627,-6.6773,-6.8338,-6.9576,-7.0707,-7.1439,-7.1745,-7.1898,-7.2206,-7.2283,-7.2668,-7.336,-7.4149,-7.5011,-7.5797,-7.6276,-7.6698,-7.7023,-7.7101,-7.7101,-6.6397,-6.5742,-6.5513,-6.5138,-6.4419,-6.235,-6.0392,-5.8698,-5.8066,-5.8029,-5.8401,-5.8252,-5.8178,-5.8178,-5.8364,-5.8438,-5.8475,-5.8624,-5.8677,-5.8677,-5.8677,-5.8677,-5.8772,-5.9367,-5.9605,-5.968,-6.0333,-5.9961,-5.8809,-5.8677,-5.8401,-5.7881,-5.8215,-5.8512,-5.8677,-5.8677,-5.8677,-5.8661,-5.7918,-5.7398,-5.7212,-5.5949,-5.5131,-5.4703,-5.4128,-5.3678,-5.344,-5.342,-5.342,-5.3457,-5.4158,-5.4601,-5.4695,-5.6438,-5.7089,-5.6325,-5.6957,-5.6878,-5.5429,-5.4537,-5.4091,-5.4054,-5.3886,-5.3794,-5.3757,-5.3237,-5.2531,-5.1788,-5.1454,-5.1342,-5.1305,-5.1342,-5.1454,-5.1639,-5.2197,-5.2642,-5.2902,-5.3571,-5.4277,-5.4909,-5.5169,-5.5652,-5.6432,-5.71,-5.7621,-5.8178,-5.9292,-6.0221,-6.0831,-6.2524,-6.3639,-6.4531,-6.4568,-6.5051,-6.6425,-6.7421,-6.8585,-7.0099,-7.1124,-7.2223,-7.3277,-7.3707,-7.3885,-7.3937,-7.3822,-7.4053,-7.4788,-7.531,-7.5797,-7.641,-7.6783,-7.7059,-7.7062,-7.7101,-7.7101,-6.5753,-6.5441,-6.5611,-6.4575,-6.2513,-6.1167,-5.9866,-5.8756,-5.8624,-5.8215,-5.7621,-5.684,-5.6543,-5.6617,-5.7323,-5.7621,-5.7658,-5.8364,-5.8661,-5.8624,-5.8677,-5.8677,-5.8661,-5.8772,-5.8809,-5.8826,-5.8958,-5.8958,-5.8661,-5.8661,-5.8661,-5.8512,-5.7955,-5.7992,-5.8586,-5.8661,-5.8677,-5.8661,-5.7918,-5.7138,-5.6469,-5.6283,-5.5466,-5.3943,-5.3868,-5.3775,-5.3737,-5.3737,-5.3756,-5.3811,-5.4516,-5.4961,-5.511,-5.6597,-5.7452,-5.7336,-5.7452,-5.71,-5.6246,-5.5391,-5.4909,-5.4834,-5.4277,-5.3868,-5.3831,-5.3757,-5.3348,-5.2605,-5.1825,-5.1528,-5.1416,-5.1491,-5.1825,-5.2419,-5.2605,-5.2902,-5.3645,-5.4426,-5.4926,-5.4963,-5.5763,-5.6469,-5.7212,-5.7583,-5.8215,-5.9589,-6.0534,-6.167,-6.2799,-6.3653,-6.4976,-6.6982,-6.7465,-6.7367,-6.8233,-6.928,-7.0373,-7.1688,-7.2963,-7.3832,-7.4405,-7.463,-7.4784,-7.513,-7.5014,-7.4938,-7.5512,-7.6189,-7.6484,-7.6738,-7.6999,-7.7179,-7.7101,-7.7101,-7.7101,-6.497,-6.4253,-6.4149,-6.2874,-6.0941,-6.0329,-5.9607,-5.8698,-5.8215,-5.7806,-5.736,-5.6134,-5.58,-5.632,-5.6655,-5.6803,-5.6803,-5.7138,-5.7286,-5.7286,-5.7286,-5.7546,-5.7955,-5.7992,-5.8215,-5.8677,-5.8677,-5.8475,-5.8066,-5.7971,-5.7992,-5.8029,-5.8103,-5.8178,-5.8029,-5.7992,-5.7769,-5.7286,-5.7435,-5.6878,-5.5689,-5.554,-5.4983,-5.3943,-5.3794,-5.3794,-5.3794,-5.3794,-5.3794,-5.3868,-5.4574,-5.5223,-5.5763,-5.6878,-5.7732,-5.8141,-5.7769,-5.736,-5.7026,-5.6246,-5.5763,-5.5763,-5.5466,-5.5094,-5.4574,-5.4481,-5.4166,-5.3423,-5.3014,-5.2828,-5.2791,-5.2828,-5.2977,-5.3237,-5.3311,-5.3645,-5.4426,-5.4778,-5.5317,-5.6283,-5.6803,-5.7323,-5.8066,-5.8624,-5.9589,-6.1076,-6.2094,-6.3156,-6.4173,-6.551,-6.6959,-6.8283,-6.936,-7.0029,-7.0066,-7.0772,-7.1779,-7.2779,-7.3782,-7.4597,-7.5265,-7.5476,-7.563,-7.5976,-7.5692,-7.5577,-7.5861,-7.6769,-7.7317,-7.7392,-7.759,-7.7882,-7.7882,-7.7453,-7.7179,-6.416,-6.3203,-6.2711,-6.1551,-6.0075,-5.9929,-5.942,-5.8698,-5.8066,-5.7732,-5.736,-5.6209,-5.5874,-5.6209,-5.606,-5.5949,-5.5986,-5.6172,-5.632,-5.632,-5.632,-5.6729,-5.7435,-5.7509,-5.7918,-5.8586,-5.8677,-5.8401,-5.7881,-5.7843,-5.7843,-5.7918,-5.8215,-5.8103,-5.7546,-5.7323,-5.6915,-5.6432,-5.6915,-5.6469,-5.5186,-5.5,-5.4592,-5.3905,-5.3794,-5.3794,-5.3794,-5.3794,-5.3794,-5.3831,-5.4797,-5.5652,-5.6283,-5.7249,-5.8103,-5.8586,-5.8178,-5.7843,-5.7786,-5.71,-5.6655,-5.6617,-5.6469,-5.606,-5.554,-5.5354,-5.4983,-5.424,-5.4128,-5.4054,-5.3831,-5.3794,-5.3794,-5.3794,-5.3943,-5.4388,-5.4909,-5.5317,-5.6209,-5.7286,-5.7658,-5.8141,-5.9011,-6.0088,-6.1462,-6.2524,-6.3802,-6.4879,-6.5807,-6.754,-6.8914,-6.9472,-7.1106,-7.1701,-7.1441,-7.1912,-7.2828,-7.3598,-7.4404,-7.4961,-7.5787,-7.5947,-7.6216,-7.6316,-7.6293,-7.6597,-7.7067,-7.7732,-7.8271,-7.8331,-7.8535,-7.8624,-7.8311,-7.7804,-7.7414,-6.3435,-6.2336,-6.1767,-6.1067,-6.0416,-6.0,-5.9441,-5.8677,-5.8624,-5.8194,-5.7621,-5.736,-5.6952,-5.6283,-5.5577,-5.5094,-5.5206,-5.5912,-5.6246,-5.6209,-5.6246,-5.6729,-5.7472,-5.7509,-5.7918,-5.8661,-5.8677,-5.8661,-5.8586,-5.8624,-5.8661,-5.8586,-5.7955,-5.7546,-5.736,-5.6692,-5.632,-5.6172,-5.6283,-5.5874,-5.5094,-5.4963,-5.4611,-5.3905,-5.3794,-5.3794,-5.3794,-5.3794,-5.3794,-5.3794,-5.5243,-5.6172,-5.6395,-5.7732,-5.8586,-5.8624,-5.8661,-5.8624,-5.8512,-5.7881,-5.7472,-5.7398,-5.6878,-5.632,-5.6283,-5.6246,-5.5874,-5.5038,-5.4909,-5.4555,-5.4017,-5.3831,-5.3868,-5.3943,-5.45,-5.4889,-5.5094,-5.6395,-5.7286,-5.7658,-5.8252,-5.9107,-5.9865,-6.1945,-6.3134,-6.4085,-6.5682,-6.7293,-6.8134,-6.9076,-7.0215,-7.1329,-7.2023,-7.2209,-7.2209,-7.272,-7.3573,-7.4299,-7.4711,-7.5114,-7.5595,-7.6038,-7.6455,-7.6809,-7.6986,-7.7476,-7.8282,-7.8834,-7.9197,-7.9421,-7.9539,-7.9473,-7.9118,-7.8582,-7.8074,-6.2645,-6.111,-6.0398,-5.987,-5.955,-5.9393,-5.9082,-5.8698,-5.8677,-5.8549,-5.8215,-5.7732,-5.7323,-5.7026,-5.6209,-5.554,-5.5038,-5.5354,-5.5466,-5.5466,-5.5466,-5.6209,-5.7435,-5.7509,-5.7918,-5.8586,-5.8677,-5.8677,-5.8677,-5.8677,-5.8677,-5.8549,-5.7918,-5.7286,-5.6692,-5.5912,-5.5243,-5.4834,-5.5206,-5.5057,-5.4388,-5.4723,-5.4611,-5.3868,-5.3794,-5.3794,-5.3794,-5.3794,-5.3794,-5.3794,-5.4388,-5.4946,-5.5577,-5.7026,-5.7955,-5.7992,-5.8401,-5.8677,-5.8661,-5.8438,-5.8252,-5.8252,-5.8029,-5.7546,-5.7175,-5.7063,-5.6729,-5.5986,-5.528,-5.4834,-5.4574,-5.4128,-5.4017,-5.45,-5.4834,-5.5466,-5.6395,-5.7175,-5.7695,-5.8252,-5.8995,-6.0147,-6.1856,-6.3059,-6.4419,-6.6388,-6.754,-6.8617,-6.9806,-7.0735,-7.1515,-7.2072,-7.2655,-7.299,-7.299,-7.3392,-7.4024,-7.4686,-7.5246,-7.5984,-7.6568,-7.7208,-7.7675,-7.8059,-7.8119,-7.8492,-7.9378,-7.997,-8.0323,-8.0942,-8.1012,-8.0353,-8.0068,-7.9342,-7.8643,-6.1278,-5.9871,-5.9532,-5.9272,-5.9101,-5.9101,-5.9004,-5.8902,-5.8842,-5.8801,-5.8689,-5.8124,-5.7918,-5.7806,-5.7323,-5.6617,-5.5837,-5.5577,-5.5429,-5.5429,-5.5429,-5.6172,-5.7323,-5.7509,-5.7955,-5.8586,-5.8677,-5.8677,-5.8677,-5.8677,-5.8677,-5.8661,-5.7695,-5.684,-5.6209,-5.5206,-5.4314,-5.4017,-5.4351,-5.4351,-5.3943,-5.4351,-5.4388,-5.3905,-5.3794,-5.3794,-5.3794,-5.3794,-5.3794,-5.3831,-5.4054,-5.4574,-5.5466,-5.6729,-5.7509,-5.7583,-5.8252,-5.8677,-5.8677,-5.8677,-5.8677,-5.8677,-5.8698,-5.8438,-5.7955,-5.7918,-5.7509,-5.6766,-5.6209,-5.5763,-5.5391,-5.4946,-5.4723,-5.5094,-5.5466,-5.6268,-5.7466,-5.7859,-5.8438,-5.9295,-6.0621,-6.2103,-6.3661,-6.4679,-6.6314,-6.8654,-6.9286,-7.0252,-7.1143,-7.1998,-7.2581,-7.2629,-7.3272,-7.3617,-7.3971,-7.4512,-7.4845,-7.5447,-7.6311,-7.7011,-7.7811,-7.842,-7.8956,-7.9263,-7.962,-7.9928,-8.0382,-8.1047,-8.17,-8.2401,-8.1923,-8.1191,-8.0679,-8.002,-7.94,-5.9353,-5.8597,-5.9259,-5.9397,-5.9196,-5.9253,-5.929,-5.9215,-5.9063,-5.8984,-5.8965,-5.8747,-5.8628,-5.8624,-5.8438,-5.8141,-5.7398,-5.6729,-5.6395,-5.632,-5.6283,-5.6729,-5.7583,-5.7621,-5.7992,-5.8661,-5.8661,-5.8661,-5.8586,-5.8512,-5.8475,-5.8289,-5.6989,-5.6246,-5.6246,-5.4723,-5.3868,-5.3831,-5.3905,-5.3868,-5.3794,-5.3868,-5.3905,-5.3794,-5.3794,-5.3794,-5.3794,-5.3794,-5.3794,-5.3905,-5.4443,-5.5354,-5.6023,-5.6915,-5.7472,-5.7621,-5.8252,-5.864,-5.8677,-5.8677,-5.8677,-5.8677,-5.8677,-5.8661,-5.8586,-5.8586,-5.8289,-5.7658,-5.736,-5.71,-5.6432,-5.6209,-5.5949,-5.5391,-5.6434,-5.745,-5.8035,-5.8764,-5.9591,-6.0717,-6.248,-6.4154,-6.521,-6.6611,-6.8357,-6.9694,-7.092,-7.1812,-7.2158,-7.2864,-7.3335,-7.3532,-7.4057,-7.468,-7.5139,-7.5658,-7.5952,-7.6414,-7.7356,-7.8216,-7.9198,-7.9918,-8.0535,-8.0935,-8.1454,-8.1807,-8.23,-8.2862,-8.2974,-8.3298,-8.2606,-8.2099,-8.1553,-8.1007,-8.0393,-5.8527,-5.7835,-5.863,-5.8871,-5.8774,-5.9264,-5.9456,-5.929,-5.9215,-5.9197,-5.9159,-5.8984,-5.8922,-5.8882,-5.8781,-5.8586,-5.8326,-5.8029,-5.7658,-5.7212,-5.7138,-5.7546,-5.8178,-5.8326,-5.8438,-5.8586,-5.8141,-5.7881,-5.7806,-5.736,-5.7063,-5.684,-5.5986,-5.5429,-5.5391,-5.4388,-5.3794,-5.3794,-5.3794,-5.3794,-5.3794,-5.3794,-5.3794,-5.3794,-5.3794,-5.3794,-5.3794,-5.3794,-5.3794,-5.3794,-5.4054,-5.4574,-5.5391,-5.6209,-5.6915,-5.7509,-5.8252,-5.8677,-5.8677,-5.8677,-5.8677,-5.8677,-5.8677,-5.8677,-5.8677,-5.8677,-5.8586,-5.8252,-5.7843,-5.736,-5.7212,-5.7138,-5.6989,-5.6766,-5.7395,-5.8166,-5.8913,-5.988,-6.1344,-6.3065,-6.3917,-6.5144,-6.7089,-6.8642,-6.9446,-7.1032,-7.1923,-7.2306,-7.2897,-7.3538,-7.3976,-7.4006,-7.495,-7.5874,-7.6347,-7.7349,-7.8312,-7.8564,-7.9177,-7.9877,-8.0771,-8.1398,-8.1994,-8.2647,-8.3179,-8.3682,-8.4204,-8.4342,-8.4325,-8.4278,-8.3888,-8.3343,-8.2758,-8.2184,-8.165,-5.8028,-5.7081,-5.7839,-5.8359,-5.8547,-5.9076,-5.9386,-5.947,-5.9456,-5.9438,-5.9401,-5.9197,-5.9101,-5.9063,-5.8885,-5.8821,-5.8821,-5.8739,-5.8438,-5.8029,-5.7955,-5.8231,-5.8661,-5.8677,-5.8512,-5.8289,-5.8066,-5.7769,-5.7472,-5.7026,-5.6766,-5.6617,-5.5577,-5.5,-5.4909,-5.424,-5.3794,-5.3794,-5.3794,-5.3794,-5.3794,-5.3794,-5.3794,-5.3794,-5.3794,-5.3794,-5.3794,-5.3794,-5.3794,-5.3794,-5.3794,-5.4203,-5.4983,-5.5837,-5.6655,-5.7472,-5.8215,-5.8677,-5.8677,-5.8677,-5.8677,-5.8677,-5.8677,-5.8677,-5.8677,-5.8677,-5.8677,-5.8586,-5.8289,-5.7955,-5.7955,-5.7955,-5.8016,-5.8102,-5.8297,-5.8929,-5.9966,-6.1726,-6.3153,-6.4747,-6.5872,-6.7447,-6.8849,-7.0128,-7.0672,-7.2285,-7.2604,-7.2849,-7.3458,-7.3996,-7.4395,-7.4985,-7.6101,-7.6905,-7.7525,-7.8898,-8.0606,-8.0975,-8.1246,-8.1859,-8.2569,-8.2931,-8.3448,-8.4269,-8.4888,-8.5184,-8.5658,-8.5338,-8.5195,-8.5104,-8.4988,-8.4293,-8.3642,-8.3525,-8.3109,-5.7649,-5.6285,-5.7005,-5.7763,-5.8391,-5.8672,-5.9111,-5.9701,-5.9702,-5.9633,-5.9598,-5.94,-5.9309,-5.9272,-5.9101,-5.9004,-5.8965,-5.8656,-5.8648,-5.8591,-5.8512,-5.8512,-5.864,-5.8677,-5.8401,-5.7955,-5.8252,-5.812,-5.7546,-5.7286,-5.7435,-5.71,-5.5874,-5.5112,-5.5057,-5.4314,-5.398,-5.4017,-5.3868,-5.3794,-5.3794,-5.3794,-5.3794,-5.3794,-5.3794,-5.3794,-5.3794,-5.3794,-5.3794,-5.3794,-5.3794,-5.4203,-5.5038,-5.5874,-5.6655,-5.7583,-5.8326,-5.8624,-5.8677,-5.8677,-5.8677,-5.8677,-5.8677,-5.8677,-5.8677,-5.8677,-5.8677,-5.8677,-5.8624,-5.8603,-5.8624,-5.8648,-5.887,-5.929,-5.9434,-6.0068,-6.1549,-6.3986,-6.5392,-6.6139,-6.8263,-7.0393,-7.0487,-7.1741,-7.2505,-7.3104,-7.3241,-7.3579,-7.4006,-7.4487,-7.5133,-7.6109,-7.726,-7.8396,-7.9179,-8.0784,-8.2357,-8.2633,-8.2922,-8.3443,-8.3907,-8.4175,-8.4518,-8.5389,-8.608,-8.6528,-8.6648,-8.6203,-8.6026,-8.6001,-8.565,-8.5027,-8.4721,-8.4565,-8.4299,-5.6739,-5.5375,-5.6171,-5.6626,-5.7043,-5.8104,-5.8802,-5.9089,-5.9609,-5.9803,-5.977,-5.9616,-5.9508,-5.9472,-5.9309,-5.9215,-5.9028,-5.8369,-5.8383,-5.8736,-5.8091,-5.8215,-5.8566,-5.8677,-5.8586,-5.8326,-5.8029,-5.7695,-5.7472,-5.6989,-5.6729,-5.6617,-5.6209,-5.5912,-5.5837,-5.5094,-5.4723,-5.4611,-5.4091,-5.3868,-5.3868,-5.3868,-5.3794,-5.3794,-5.3794,-5.3794,-5.3794,-5.3794,-5.3794,-5.3794,-5.3794,-5.45,-5.5763,-5.6209,-5.6952,-5.8103,-5.8512,-5.8677,-5.8677,-5.8677,-5.8677,-5.8677,-5.8677,-5.8677,-5.8677,-5.8677,-5.8677,-5.8677,-5.8677,-5.8698,-5.8739,-5.8965,-5.9606,-6.0675,-6.0852,-6.1453,-6.2847,-6.4616,-6.6474,-6.8276,-6.9621,-7.0941,-7.2106,-7.2642,-7.2977,-7.3324,-7.3663,-7.4016,-7.4477,-7.5306,-7.6133,-7.726,-7.8463,-7.9808,-8.1168,-8.2786,-8.3881,-8.4135,-8.441,-8.4724,-8.4938,-8.5015,-8.5359,-8.5901,-8.6331,-8.6758,-8.6885,-8.6716,-8.6763,-8.6767,-8.6546,-8.6079,-8.5767,-8.554,-8.5189,-5.6398,-5.4958,-5.5451,-5.6057,-5.6777,-5.7725,-5.8521,-5.9203,-5.9658,-5.9902,-5.9869,-5.9786,-5.9736,-5.9681,-5.9189,-5.8911,-5.878,-5.7865,-5.7847,-5.8483,-5.8308,-5.8429,-5.8644,-5.8677,-5.8549,-5.8215,-5.8103,-5.7843,-5.7509,-5.7026,-5.684,-5.6766,-5.6469,-5.632,-5.6246,-5.5874,-5.5577,-5.5503,-5.5094,-5.4834,-5.4834,-5.45,-5.4314,-5.4203,-5.4017,-5.3794,-5.3794,-5.3794,-5.3794,-5.3868,-5.4166,-5.4909,-5.6134,-5.6655,-5.7398,-5.8603,-5.8677,-5.8677,-5.8677,-5.8677,-5.8677,-5.8677,-5.8677,-5.8677,-5.8677,-5.8677,-5.8677,-5.8677,-5.8677,-5.8743,-5.9041,-5.9642,-6.0535,-6.1329,-6.2254,-6.3194,-6.4269,-6.5974,-6.7821,-6.9704,-7.1089,-7.2051,-7.3498,-7.3699,-7.3879,-7.4011,-7.4339,-7.4699,-7.5146,-7.6162,-7.7333,-7.8551,-7.9734,-8.1025,-8.2172,-8.3652,-8.4438,-8.4825,-8.5198,-8.5644,-8.5741,-8.5722,-8.5742,-8.6026,-8.6529,-8.6894,-8.6921,-8.706,-8.7269,-8.7276,-8.7298,-8.7085,-8.6624,-8.6312,-8.5962,-5.6588,-5.5185,-5.5185,-5.5981,-5.7118,-5.7384,-5.818,-5.9393,-5.9636,-5.9788,-5.9847,-5.9772,-5.9642,-5.9734,-5.8682,-5.8274,-5.822,-5.7218,-5.73,-5.794,-5.8502,-5.8945,-5.8805,-5.8719,-5.8401,-5.8029,-5.8438,-5.8252,-5.7881,-5.7658,-5.7621,-5.7509,-5.6989,-5.6655,-5.6766,-5.6543,-5.6432,-5.6395,-5.6134,-5.5986,-5.5912,-5.5466,-5.5169,-5.5057,-5.4388,-5.398,-5.3868,-5.3794,-5.3794,-5.3794,-5.4574,-5.5354,-5.6246,-5.7026,-5.7843,-5.8475,-5.8677,-5.8677,-5.8677,-5.8677,-5.8677,-5.8677,-5.8677,-5.8677,-5.8677,-5.8677,-5.8677,-5.8677,-5.8677,-5.8885,-5.9383,-6.0513,-6.1391,-6.1983,-6.3425,-6.4834,-6.6167,-6.7552,-6.9167,-7.0808,-7.2524,-7.3576,-7.4305,-7.4917,-7.5442,-7.487,-7.5208,-7.5735,-7.6316,-7.7249,-7.8571,-7.9956,-8.1116,-8.2221,-8.3258,-8.4338,-8.481,-8.5203,-8.563,-8.6008,-8.6161,-8.6144,-8.5934,-8.6073,-8.6477,-8.6722,-8.6826,-8.7057,-8.7593,-8.7689,-8.7596,-8.7408,-8.717,-8.6936,-8.6624,-5.7801,-5.6853,-5.6853,-5.6702,-5.6588,-5.7118,-5.7611,-5.8028,-5.8672,-5.9241,-5.962,-5.9257,-5.8992,-5.89,-5.8018,-5.7624,-5.7516,-5.6673,-5.6463,-5.7225,-5.8653,-5.914,-5.9082,-5.8882,-5.8607,-5.8496,-5.8586,-5.8586,-5.8438,-5.8364,-5.8438,-5.8326,-5.8141,-5.8178,-5.8029,-5.7472,-5.7249,-5.7138,-5.6692,-5.6469,-5.6432,-5.6209,-5.5986,-5.5874,-5.5131,-5.4426,-5.3905,-5.3794,-5.3794,-5.398,-5.4611,-5.5503,-5.6283,-5.71,-5.7918,-5.8475,-5.8677,-5.8677,-5.8677,-5.8677,-5.8677,-5.8677,-5.8677,-5.8677,-5.8677,-5.8677,-5.8677,-5.8677,-5.8698,-5.8984,-5.9691,-6.053,-6.1622,-6.2741,-6.3937,-6.5462,-6.7385,-6.8731,-6.9986,-7.1713,-7.3336,-7.4734,-7.5569,-7.5435,-7.5695,-7.5767,-7.6208,-7.6831,-7.7555,-7.8326,-7.9566,-8.094,-8.1797,-8.277,-8.3816,-8.4793,-8.5453,-8.585,-8.623,-8.6752,-8.6963,-8.6619,-8.647,-8.6315,-8.6286,-8.661,-8.714,-8.7667,-8.8322,-8.8126,-8.7967,-8.7861,-8.7715,-8.7481,-8.7365,-5.8273,-5.7484,-5.7446,-5.7187,-5.6853,-5.7232,-5.7422,-5.7497,-5.7839,-5.8293,-5.8559,-5.8233,-5.8104,-5.8028,-5.7232,-5.6853,-5.6876,-5.6775,-5.6706,-5.7325,-5.859,-5.9326,-5.9272,-5.9101,-5.9002,-5.8945,-5.8902,-5.8862,-5.8821,-5.8739,-5.864,-5.8677,-5.8698,-5.8586,-5.8677,-5.8252,-5.8103,-5.8029,-5.7695,-5.7435,-5.7398,-5.7026,-5.6617,-5.6209,-5.5503,-5.476,-5.4426,-5.398,-5.4035,-5.4443,-5.5169,-5.58,-5.6395,-5.7398,-5.8252,-5.8586,-5.8677,-5.8677,-5.8677,-5.8677,-5.8677,-5.8677,-5.8677,-5.8677,-5.8677,-5.8677,-5.8677,-5.8677,-5.8777,-5.9057,-6.0053,-6.1048,-6.2138,-6.3246,-6.4526,-6.5948,-6.7508,-6.8852,-7.0637,-7.2654,-7.439,-7.5682,-7.6349,-7.6296,-7.6493,-7.6779,-7.7324,-7.7886,-7.8326,-7.9165,-8.026,-8.1407,-8.2227,-8.3168,-8.4216,-8.5205,-8.6168,-8.6594,-8.7017,-8.7689,-8.8224,-8.7651,-8.7022,-8.7102,-8.7234,-8.7501,-8.8021,-8.8557,-8.8839,-8.8695,-8.8536,-8.8406,-8.8261,-8.8105,-8.7988,-5.8608,-5.7863,-5.7901,-5.7795,-5.762,-5.7491,-5.7529,-5.7627,-5.7308,-5.746,-5.7497,-5.7384,-5.7232,-5.7043,-5.636,-5.6057,-5.6398,-5.7027,-5.7273,-5.772,-5.8933,-5.9467,-5.9454,-5.94,-5.9382,-5.9364,-5.9159,-5.9043,-5.9022,-5.8882,-5.8801,-5.8739,-5.8698,-5.8698,-5.8677,-5.8677,-5.8586,-5.8528,-5.8475,-5.8475,-5.8475,-5.7955,-5.736,-5.658,-5.58,-5.5206,-5.4778,-5.4314,-5.4166,-5.4983,-5.5837,-5.6283,-5.684,-5.7769,-5.8677,-5.8677,-5.8677,-5.8677,-5.8677,-5.8677,-5.8677,-5.8677,-5.8677,-5.8677,-5.8677,-5.8677,-5.8677,-5.8814,-5.897,-5.9527,-6.0473,-6.1684,-6.2745,-6.3761,-6.5131,-6.6237,-6.7372,-6.8743,-7.0986,-7.3407,-7.4763,-7.5932,-7.6934,-7.7312,-7.7584,-7.7853,-7.8372,-7.8883,-7.925,-7.9942,-8.1008,-8.1729,-8.246,-8.3736,-8.4805,-8.5735,-8.6673,-8.7498,-8.788,-8.853,-8.9256,-8.9027,-8.8492,-8.8305,-8.8442,-8.8538,-8.8747,-8.9192,-8.9328,-8.9203,-8.9244,-8.929,-8.9068,-8.8761,-8.8689,-5.9817,-5.965,-5.965,-5.9307,-5.857,-5.7863,-5.7947,-5.8235,-5.7074,-5.7232,-5.8195,-5.7043,-5.6512,-5.6323,-5.5527,-5.5564,-5.6398,-5.7156,-5.7823,-5.8359,-5.9365,-5.9786,-5.9753,-5.9736,-5.977,-5.9719,-5.9454,-5.9272,-5.9197,-5.9063,-5.8925,-5.8922,-5.8801,-5.8719,-5.8698,-5.8677,-5.8677,-5.8677,-5.8677,-5.8677,-5.8624,-5.8475,-5.8066,-5.7286,-5.6506,-5.5837,-5.5094,-5.4388,-5.4166,-5.4983,-5.5837,-5.6617,-5.7323,-5.8215,-5.8624,-5.8677,-5.8677,-5.8677,-5.8677,-5.8677,-5.8677,-5.8677,-5.8677,-5.8677,-5.8677,-5.8677,-5.8751,-5.9041,-5.9582,-6.0342,-6.0867,-6.2301,-6.3609,-6.4626,-6.5515,-6.6673,-6.8332,-6.9635,-7.0962,-7.3229,-7.4622,-7.6047,-7.7176,-7.7922,-7.7891,-7.8234,-7.8877,-7.938,-7.98,-8.0645,-8.1737,-8.2244,-8.2591,-8.4029,-8.5507,-8.6355,-8.7269,-8.8377,-8.8912,-8.9332,-8.9905,-9.0211,-9.0079,-8.9509,-8.9011,-8.8841,-8.919,-8.9765,-8.9972,-8.9986,-9.0113,-9.0274,-8.9901,-8.9586,-8.9586,-6.0241,-6.0235,-6.0654,-6.0334,-5.9566,-5.9117,-5.8844,-5.8608,-5.7461,-5.7582,-5.8044,-5.7422,-5.7081,-5.7156,-5.6588,-5.6474,-5.6929,-5.7687,-5.8309,-5.8878,-5.9522,-5.9902,-5.9902,-5.9902,-5.9902,-5.9853,-5.9702,-5.9525,-5.9436,-5.9253,-5.912,-5.9022,-5.8902,-5.8821,-5.8719,-5.8677,-5.8698,-5.8698,-5.8677,-5.8677,-5.8677,-5.8677,-5.8438,-5.8029,-5.7398,-5.6729,-5.6283,-5.554,-5.554,-5.6209,-5.6692,-5.7303,-5.7955,-5.8401,-5.8677,-5.8677,-5.8677,-5.8677,-5.8677,-5.8677,-5.8677,-5.8677,-5.8677,-5.8677,-5.8677,-5.8714,-5.8863,-5.9334,-5.9678,-6.0732,-6.1882,-6.3106,-6.4217,-6.5345,-6.6162,-6.7309,-6.8653,-6.9771,-7.133,-7.3106,-7.4881,-7.6498,-7.7888,-7.8303,-7.818,-7.8607,-7.9332,-7.9847,-8.0273,-8.1195,-8.2186,-8.2655,-8.3065,-8.4395,-8.5963,-8.7132,-8.7936,-8.8988,-8.9676,-9.0096,-9.0287,-9.0478,-9.0478,-9.0135,-8.9714,-8.9332,-8.9762,-9.0395,-9.0576,-9.0755,-9.0919,-9.0995,-9.068,-9.0482,-9.0482,-6.0609,-6.0613,-6.1429,-6.1285,-6.0555,-6.0449,-6.0137,-5.9467,-5.8524,-5.8403,-5.878,-5.8287,-5.812,-5.8158,-5.7763,-5.7422,-5.7687,-5.8407,-5.8726,-5.9105,-5.9598,-5.9902,-5.9902,-5.9902,-5.9902,-5.9885,-5.9869,-5.982,-5.9668,-5.9436,-5.9309,-5.9178,-5.9101,-5.8945,-5.8821,-5.8801,-5.876,-5.8698,-5.8677,-5.8677,-5.8677,-5.8677,-5.8677,-5.8603,-5.7955,-5.7435,-5.7212,-5.6506,-5.658,-5.7063,-5.7472,-5.7786,-5.8491,-5.8677,-5.8677,-5.8677,-5.8677,-5.8677,-5.8677,-5.8677,-5.8677,-5.8677,-5.8677,-5.8677,-5.8677,-5.8751,-5.8974,-5.9701,-6.0315,-6.1168,-6.278,-6.3848,-6.4868,-6.5977,-6.7058,-6.8031,-6.9063,-7.0306,-7.1967,-7.3673,-7.5452,-7.6711,-7.7851,-7.8126,-7.7871,-7.8589,-7.9363,-8.011,-8.0608,-8.1452,-8.2357,-8.2971,-8.3729,-8.4909,-8.6392,-8.7962,-8.8748,-8.96,-9.0058,-9.0402,-9.0517,-9.0593,-9.0517,-9.044,-9.0402,-9.0194,-9.0623,-9.08,-9.0864,-9.1076,-9.1554,-9.1693,-9.1459,-9.1332,-9.1339,-6.1478,-6.154,-6.238,-6.2228,-6.1511,-6.1415,-6.1766,-6.2018,-6.0548,-5.9863,-6.0089,-5.9694,-5.8979,-5.8097,-5.7687,-5.7914,-5.8407,-5.8726,-5.9143,-5.9598,-5.9826,-5.9902,-5.9902,-5.9902,-5.9902,-5.9902,-5.9902,-5.9885,-5.9803,-5.965,-5.9563,-5.9454,-5.9309,-5.9159,-5.8965,-5.8905,-5.8845,-5.8739,-5.8698,-5.8677,-5.8677,-5.8677,-5.8677,-5.8512,-5.8066,-5.7621,-5.7583,-5.7026,-5.6952,-5.7472,-5.7583,-5.7918,-5.8549,-5.8677,-5.8677,-5.8677,-5.8677,-5.8677,-5.8677,-5.8677,-5.8677,-5.8677,-5.8677,-5.8677,-5.8809,-5.8884,-5.9181,-5.9812,-6.0815,-6.2198,-6.3721,-6.4653,-6.5726,-6.6792,-6.785,-6.8864,-6.9885,-7.0853,-7.2516,-7.4059,-7.5754,-7.6499,-7.7378,-7.7517,-7.769,-7.8535,-7.9349,-8.0162,-8.1012,-8.1893,-8.2517,-8.3107,-8.4404,-8.5629,-8.6689,-8.8331,-8.9327,-9.0131,-9.0364,-9.0631,-9.0631,-9.0631,-9.0631,-9.0555,-9.0631,-9.0631,-9.0656,-9.0761,-9.1006,-9.1252,-9.1552,-9.1944,-9.2223,-9.2175,-9.2041,-6.2777,-6.2395,-6.3274,-6.3427,-6.3083,-6.3053,-6.3199,-6.3154,-6.2208,-6.1881,-6.2046,-6.1688,-6.0805,-5.9586,-5.9121,-5.903,-5.9317,-5.9333,-5.9522,-5.9826,-5.9902,-5.9902,-5.9902,-5.9902,-5.9902,-5.9902,-5.9902,-5.9902,-5.9853,-5.982,-5.9736,-5.9616,-5.9528,-5.9364,-5.9178,-5.9043,-5.8945,-5.8845,-5.8781,-5.8698,-5.8677,-5.8677,-5.8677,-5.8677,-5.8326,-5.8178,-5.8029,-5.7955,-5.7806,-5.8178,-5.8178,-5.8326,-5.8624,-5.8677,-5.8677,-5.8677,-5.8677,-5.8677,-5.8677,-5.8677,-5.8677,-5.8698,-5.8735,-5.8863,-5.9218,-5.9483,-6.0129,-6.1528,-6.2046,-6.3294,-6.4954,-6.6049,-6.7467,-6.8502,-6.8996,-7.0362,-7.132,-7.1829,-7.301,-7.4551,-7.5946,-7.668,-7.7237,-7.7488,-7.8033,-7.9024,-7.9758,-8.0493,-8.1452,-8.248,-8.2957,-8.3284,-8.4799,-8.6375,-8.7383,-8.8595,-8.9558,-9.0274,-9.044,-9.0631,-9.0631,-9.0631,-9.0631,-9.0631,-9.0631,-9.0631,-9.0593,-9.0699,-9.0877,-9.1154,-9.1469,-9.1889,-9.2221,-9.2299,-9.2165,-6.3923,-6.3579,-6.4229,-6.4382,-6.4244,-6.4435,-6.4428,-6.4291,-6.3719,-6.3482,-6.3267,-6.2436,-6.1612,-6.1191,-6.0253,-5.9766,-5.9864,-5.9902,-5.9902,-5.9902,-5.9902,-5.9902,-5.9902,-5.9902,-5.9902,-5.9902,-5.9902,-5.9902,-5.9902,-5.9869,-5.9803,-5.9685,-5.9702,-5.9581,-5.9382,-5.9253,-5.914,-5.8965,-5.8801,-5.8698,-5.8677,-5.8677,-5.8677,-5.8677,-5.8677,-5.8677,-5.8677,-5.8624,-5.8661,-5.8624,-5.8624,-5.8624,-5.8677,-5.8677,-5.8677,-5.8677,-5.8677,-5.8677,-5.8677,-5.8677,-5.8677,-5.8756,-5.916,-5.9654,-6.0429,-6.0536,-6.1252,-6.3125,-6.3352,-6.4649,-6.6304,-6.7554,-6.8602,-6.9679,-7.0498,-7.2034,-7.3191,-7.332,-7.3758,-7.5102,-7.6313,-7.7011,-7.7488,-7.7635,-7.8332,-7.9433,-8.0241,-8.0901,-8.1893,-8.303,-8.3688,-8.4088,-8.5534,-8.7088,-8.8033,-8.8986,-8.9854,-9.0383,-9.053,-9.0631,-9.0631,-9.0631,-9.0631,-9.0631,-9.0593,-9.0699,-9.0741,-9.0721,-9.0761,-9.1171,-9.1539,-9.1839,-9.2121,-9.2176,-9.2041,-6.4611,-6.5222,-6.5261,-6.4879,-6.4267,-6.5031,-6.5299,-6.5169,-6.5131,-6.4169,-6.2834,-6.1294,-6.0896,-6.0925,-6.0421,-5.9918,-5.9902,-5.9902,-5.9902,-5.9902,-5.9902,-5.9902,-5.9902,-5.9902,-5.9902,-5.9902,-5.9902,-5.9902,-5.9902,-5.9902,-5.9885,-5.9869,-5.982,-5.9736,-5.9633,-5.9472,-5.929,-5.9063,-5.8862,-5.8739,-5.8719,-5.8698,-5.8677,-5.8677,-5.8677,-5.8677,-5.8677,-5.8677,-5.8677,-5.8677,-5.8677,-5.8677,-5.8677,-5.8677,-5.8677,-5.8863,-5.89,-5.8937,-5.9069,-5.902,-5.8814,-5.9065,-5.9754,-6.083,-6.1766,-6.2095,-6.3014,-6.4398,-6.4737,-6.5914,-6.7524,-6.8808,-6.9645,-7.0853,-7.1803,-7.2643,-7.3738,-7.4323,-7.4863,-7.5889,-7.6764,-7.7592,-7.8394,-7.8712,-7.8982,-8.0084,-8.1122,-8.1782,-8.259,-8.3618,-8.4492,-8.5267,-8.6512,-8.7736,-8.8613,-8.9453,-9.006,-9.0383,-9.0572,-9.0631,-9.0631,-9.0631,-9.0631,-9.0635,-9.0676,-9.078,-9.0875,-9.0932,-9.1038,-9.1331,-9.1605,-9.1806,-9.178,-9.1732,-9.1495,-6.4649,-6.5413,-6.5413,-6.5222,-6.4955,-6.5261,-6.5413,-6.5299,-6.4879,-6.4023,-6.2756,-6.1353,-6.0855,-6.0947,-6.0165,-5.9748,-5.9869,-5.9902,-5.9902,-5.9902,-5.9902,-5.9902,-5.9902,-5.9902,-5.9902,-5.9902,-5.9902,-5.9902,-5.9902,-5.9902,-5.9902,-5.9902,-5.9902,-5.9869,-5.9786,-5.965,-5.9418,-5.9215,-5.8984,-5.8865,-5.8882,-5.8739,-5.8677,-5.8677,-5.8677,-5.8677,-5.8677,-5.8677,-5.8677,-5.8677,-5.8677,-5.8714,-5.8751,-5.8751,-5.9032,-5.9346,-5.942,-5.9664,-6.0008,-5.9987,-6.0115,-6.0885,-6.1405,-6.2036,-6.3133,-6.3517,-6.4432,-6.5487,-6.644,-6.7609,-6.9311,-7.0095,-7.0726,-7.2073,-7.3082,-7.3755,-7.4445,-7.518,-7.6084,-7.7126,-7.7793,-7.8478,-7.926,-7.9993,-8.0247,-8.0667,-8.1705,-8.27,-8.3398,-8.4301,-8.5206,-8.6121,-8.7324,-8.8237,-8.9107,-8.969,-9.0212,-9.0405,-9.0631,-9.0631,-9.0631,-9.0631,-9.0593,-9.0656,-9.0741,-9.0894,-9.1018,-9.1104,-9.1315,-9.1566,-9.1665,-9.1693,-9.1564,-9.1325,-9.084,-6.442,-6.5375,-6.5413,-6.5413,-6.5413,-6.5413,-6.5261,-6.4955,-6.4458,-6.3541,-6.2442,-6.1308,-6.0849,-6.0713,-6.0172,-5.9698,-5.9885,-5.9902,-5.9902,-5.9902,-5.9902,-5.9902,-5.9902,-5.9902,-5.9902,-5.9902,-5.9902,-5.9902,-5.9902,-5.9902,-5.9902,-5.9902,-5.9902,-5.9885,-5.9853,-5.9702,-5.9545,-5.9364,-5.9197,-5.9043,-5.8984,-5.8902,-5.8739,-5.8719,-5.8677,-5.8677,-5.8677,-5.8677,-5.8677,-5.8677,-5.8714,-5.8826,-5.8937,-5.9181,-5.9515,-5.9961,-6.037,-6.063,-6.0943,-6.114,-6.1484,-6.2454,-6.2759,-6.3448,-6.4372,-6.5166,-6.604,-6.7446,-6.8295,-6.9383,-7.1068,-7.1842,-7.2396,-7.3684,-7.4728,-7.5437,-7.5946,-7.6611,-7.7479,-7.8428,-7.9014,-7.962,-8.0302,-8.103,-8.1274,-8.1613,-8.2256,-8.321,-8.3978,-8.4948,-8.6153,-8.7013,-8.7993,-8.8808,-8.9528,-8.9991,-9.0383,-9.0427,-9.0631,-9.0631,-9.0631,-9.0614,-9.0699,-9.0781,-9.0912,-9.1048,-9.1261,-9.1469,-9.1644,-9.185,-9.185,-9.1819,-9.1201,-9.0911,-9.0203,-6.3962,-6.5337,-6.5413,-6.5413,-6.5375,-6.5375,-6.4955,-6.4473,-6.4167,-6.3197,-6.1769,-6.0795,-6.0341,-6.0213,-5.9998,-5.9934,-5.9902,-5.9902,-5.9902,-5.9902,-5.9902,-5.9902,-5.9902,-5.9902,-5.9902,-5.9902,-5.9902,-5.9902,-5.9902,-5.9902,-5.9902,-5.9902,-5.9902,-5.9902,-5.9869,-5.9719,-5.9616,-5.9581,-5.9382,-5.9215,-5.9101,-5.9041,-5.8882,-5.8781,-5.8698,-5.8698,-5.8677,-5.8677,-5.8772,-5.8921,-5.89,-5.9197,-5.9812,-5.9887,-6.0317,-6.1124,-6.1177,-6.1289,-6.1406,-6.1612,-6.272,-6.3986,-6.4373,-6.4982,-6.6433,-6.723,-6.77,-6.9097,-7.02,-7.1041,-7.2456,-7.376,-7.4314,-7.5042,-7.6046,-7.6855,-7.7358,-7.7749,-7.8542,-7.963,-8.0315,-8.0888,-8.157,-8.211,-8.2344,-8.2638,-8.3059,-8.3721,-8.4657,-8.5852,-8.7173,-8.7881,-8.8709,-8.9211,-8.9897,-9.0257,-9.0551,-9.0593,-9.0614,-9.0635,-9.0658,-9.0719,-9.0781,-9.0929,-9.1149,-9.1344,-9.1592,-9.1883,-9.185,-9.1821,-9.1987,-9.1856,-9.1176,-9.0268,-8.9292,-6.4382,-6.5413,-6.5413,-6.5413,-6.5299,-6.4802,-6.4688,-6.4764,-6.3847,-6.2662,-6.1549,-6.0487,-6.0114,-6.0068,-5.9874,-5.9847,-5.9966,-5.9902,-5.9902,-5.9902,-5.9902,-5.9902,-5.9902,-5.9902,-5.9902,-5.9902,-5.9902,-5.9902,-5.9902,-5.9902,-5.9902,-5.9902,-5.9902,-5.9902,-5.9885,-5.982,-5.9803,-5.977,-5.9633,-5.9474,-5.9401,-5.9159,-5.9002,-5.8902,-5.8855,-5.883,-5.8884,-5.8921,-5.9107,-5.9441,-5.9494,-5.9924,-6.0614,-6.0784,-6.1284,-6.2068,-6.2358,-6.3237,-6.4159,-6.5035,-6.5267,-6.582,-6.6099,-6.6562,-6.7769,-6.909,-6.986,-7.0667,-7.1898,-7.2751,-7.3921,-7.4788,-7.5474,-7.6178,-7.7091,-7.7875,-7.8428,-7.877,-7.9434,-8.0786,-8.1739,-8.2998,-8.3862,-8.3807,-8.3878,-8.4339,-8.4829,-8.5127,-8.5893,-8.7153,-8.8439,-8.8861,-8.944,-8.9835,-9.0212,-9.0487,-9.0635,-9.0658,-9.0679,-9.0699,-9.0721,-9.0858,-9.1035,-9.1245,-9.1445,-9.1643,-9.1844,-9.1937,-9.1737,-9.1724,-9.1456,-9.1009,-9.019,-8.9019,-8.7814,-6.4649,-6.5375,-6.5413,-6.5413,-6.5337,-6.484,-6.4649,-6.4305,-6.2815,-6.1707,-6.1091,-6.0304,-6.0084,-6.0137,-5.9944,-5.9744,-6.0013,-5.9934,-5.9902,-5.9902,-5.9902,-5.9902,-5.9902,-5.9902,-5.9902,-5.9902,-5.9902,-5.9902,-5.9902,-5.9902,-5.9902,-5.9902,-5.9902,-5.9902,-5.9885,-5.9885,-5.9885,-5.9836,-5.9753,-5.965,-5.9508,-5.9383,-5.9327,-5.9378,-5.9387,-5.9376,-5.9499,-5.9627,-5.9775,-6.0184,-6.0465,-6.0827,-6.147,-6.1931,-6.2415,-6.3143,-6.4011,-6.5022,-6.6331,-6.6819,-6.7049,-6.787,-6.7744,-6.8129,-6.9052,-7.0129,-7.1052,-7.2014,-7.3399,-7.424,-7.5027,-7.5855,-7.698,-7.7739,-7.8532,-7.9358,-7.9723,-8.0068,-8.1308,-8.2569,-8.3575,-8.4899,-8.5825,-8.5725,-8.5572,-8.6087,-8.6667,-8.6883,-8.7113,-8.8241,-8.9182,-8.9528,-8.992,-9.0212,-9.0383,-9.053,-9.0676,-9.0721,-9.0762,-9.0858,-9.1056,-9.1204,-9.1383,-9.1552,-9.1706,-9.1844,-9.1928,-9.1949,-9.1583,-9.0885,-9.0093,-8.9598,-8.9046,-8.7965,-8.6687,-6.4688,-6.5337,-6.5413,-6.5413,-6.5375,-6.5146,-6.4267,-6.2815,-6.1325,-6.0651,-6.0485,-6.0509,-6.0352,-6.0279,-6.0152,-6.0038,-5.9975,-5.9934,-5.9902,-5.9902,-5.9902,-5.9902,-5.9902,-5.9902,-5.9902,-5.9902,-5.9902,-5.9902,-5.9902,-5.9902,-5.9902,-5.9902,-5.9902,-5.9902,-5.9902,-5.9902,-5.9902,-5.9885,-5.9853,-5.9845,-5.9894,-5.9807,-6.0022,-6.019,-6.0275,-6.0468,-6.0662,-6.0837,-6.1001,-6.1171,-6.1267,-6.2027,-6.2606,-6.299,-6.3785,-6.4648,-6.5606,-6.6674,-6.7683,-6.7967,-6.8708,-6.9525,-6.9283,-6.9744,-7.0475,-7.1321,-7.2245,-7.3437,-7.4707,-7.5394,-7.6064,-7.7438,-7.881,-7.9608,-8.0402,-8.0866,-8.1155,-8.2034,-8.3524,-8.4668,-8.5393,-8.6328,-8.68,-8.687,-8.7135,-8.7815,-8.8218,-8.8268,-8.8532,-8.8936,-8.9725,-8.9811,-9.019,-9.053,-9.0635,-9.0719,-9.0839,-9.1003,-9.1035,-9.1137,-9.1361,-9.1564,-9.1669,-9.1789,-9.1866,-9.1986,-9.216,-9.1782,-9.1223,-9.0356,-8.9345,-8.855,-8.8131,-8.7042,-8.583,-6.5184,-6.5413,-6.5413,-6.5413,-6.5222,-6.4114,-6.2968,-6.2013,-6.2013,-6.1898,-6.1249,-6.0637,-6.0394,-6.0366,-6.0197,-6.0122,-6.0022,-5.9982,-5.9918,-5.9902,-5.9902,-5.9902,-5.9902,-5.9902,-5.9902,-5.9902,-5.9902,-5.9902,-5.9902,-5.9902,-5.9902,-5.9902,-5.9902,-5.9902,-5.9902,-5.9902,-5.9939,-5.9977,-6.0015,-6.0231,-6.045,-6.0533,-6.0902,-6.1262,-6.1257,-6.1396,-6.1496,-6.1459,-6.1602,-6.2048,-6.2309,-6.3061,-6.4527,-6.4992,-6.5626,-6.6761,-6.75,-6.8167,-6.903,-6.9697,-7.0392,-7.1294,-7.1591,-7.1706,-7.2245,-7.2759,-7.3644,-7.463,-7.5861,-7.6639,-7.7262,-7.8423,-7.9566,-8.0344,-8.1239,-8.201,-8.2434,-8.3697,-8.5168,-8.6235,-8.6997,-8.7563,-8.7975,-8.8288,-8.8646,-8.9399,-8.9748,-8.9627,-8.9665,-8.9977,-9.0165,-9.0285,-9.0415,-9.0701,-9.0858,-9.0931,-9.1121,-9.1245,-9.1323,-9.1441,-9.1657,-9.185,-9.1985,-9.2043,-9.2145,-9.2217,-9.2323,-9.173,-9.0807,-8.9785,-8.8792,-8.7954,-8.7088,-8.5871,-8.468,-6.5413,-6.5413,-6.5413,-6.5222,-6.4764,-6.3847,-6.2777,-6.1822,-6.1822,-6.1554,-6.1096,-6.0599,-6.0384,-6.0356,-6.0241,-6.0167,-6.0084,-6.0013,-5.9934,-5.9902,-5.9902,-5.9902,-5.9902,-5.9902,-5.9902,-5.9902,-5.9902,-5.9902,-5.9902,-5.9902,-5.9902,-5.9902,-5.9902,-5.9902,-5.9902,-5.9939,-6.0151,-6.0302,-6.0454,-6.0681,-6.0972,-6.1396,-6.1949,-6.2389,-6.2276,-6.2308,-6.2408,-6.2258,-6.2742,-6.3419,-6.3831,-6.4671,-6.605,-6.6743,-6.7375,-6.8392,-6.9093,-6.9805,-7.0679,-7.1486,-7.2129,-7.2745,-7.3451,-7.3597,-7.3674,-7.3996,-7.4595,-7.5361,-7.6707,-7.7861,-7.85,-7.9123,-7.9937,-8.0734,-8.1862,-8.3001,-8.4078,-8.5265,-8.645,-8.7575,-8.8318,-8.8909,-8.9367,-8.9697,-8.9884,-9.0143,-9.0339,-9.0346,-9.0305,-9.036,-9.0544,-9.0664,-9.0743,-9.0857,-9.1035,-9.1213,-9.1383,-9.1539,-9.1631,-9.1754,-9.2006,-9.2109,-9.2207,-9.2269,-9.2398,-9.2315,-9.2056,-9.1174,-9.0208,-8.9128,-8.7808,-8.6516,-8.542,-8.4254,-8.3124,-6.5282,-6.5191,-6.5314,-6.4917,-6.4344,-6.4206,-6.3236,-6.1669,-6.1058,-6.0485,-6.046,-6.0422,-6.0384,-6.0356,-6.0256,-6.0182,-6.0068,-6.0029,-5.9934,-5.9902,-5.9902,-5.9902,-5.9902,-5.9902,-5.9902,-5.9902,-5.9902,-5.9902,-5.9902,-5.9902,-5.9902,-5.9902,-5.9902,-5.9902,-5.9902,-6.0129,-6.0416,-6.0833,-6.125,-6.1629,-6.1705,-6.2163,-6.2793,-6.3293,-6.3446,-6.3502,-6.3808,-6.4138,-6.4479,-6.5093,-6.5745,-6.6348,-6.7649,-6.8622,-6.9264,-6.9973,-7.0794,-7.1346,-7.2091,-7.286,-7.3325,-7.384,-7.4326,-7.4784,-7.5014,-7.4977,-7.5413,-7.6276,-7.7602,-7.8529,-7.9172,-8.0331,-8.1308,-8.2168,-8.3153,-8.4196,-8.5228,-8.661,-8.8102,-8.9143,-8.9914,-9.0472,-9.0799,-9.1161,-9.1313,-9.1145,-9.103,-9.1183,-9.0895,-9.0896,-9.0912,-9.1035,-9.107,-9.1171,-9.1383,-9.1552,-9.1682,-9.1828,-9.1887,-9.1995,-9.2199,-9.2295,-9.2411,-9.2334,-9.227,-9.1855,-9.1434,-9.0504,-8.9413,-8.8086,-8.664,-8.4958,-8.3785,-8.2965,-8.1943,-6.447,-6.3809,-6.4293,-6.4688,-6.4993,-6.4458,-6.3594,-6.2548,-6.1669,-6.0995,-6.0499,-6.0422,-6.0384,-6.037,-6.0241,-6.0114,-6.0084,-6.0013,-5.9934,-5.9902,-5.9902,-5.9902,-5.9902,-5.9902,-5.9902,-5.9902,-5.9902,-5.9977,-5.9923,-5.9939,-5.9939,-5.9902,-5.9902,-5.9902,-6.0091,-6.0394,-6.0925,-6.1489,-6.2286,-6.2871,-6.3154,-6.3255,-6.3661,-6.4176,-6.4462,-6.4422,-6.4728,-6.5162,-6.5483,-6.5933,-6.6861,-6.8203,-7.0004,-7.0819,-7.1668,-7.2437,-7.2591,-7.2899,-7.3297,-7.3941,-7.4486,-7.4899,-7.5359,-7.5819,-7.6084,-7.596,-7.6347,-7.7313,-7.8219,-7.9072,-8.008,-8.1386,-8.2704,-8.3611,-8.4478,-8.5448,-8.6404,-8.8102,-8.9754,-9.0612,-9.1431,-9.1901,-9.2255,-9.2464,-9.2666,-9.2604,-9.2411,-9.2226,-9.1616,-9.1408,-9.1361,-9.1397,-9.1368,-9.1469,-9.1694,-9.1844,-9.1948,-9.2096,-9.2182,-9.2288,-9.2383,-9.242,-9.2411,-9.2202,-9.1985,-9.1562,-9.0858,-8.9832,-8.8655,-8.7137,-8.6043,-8.4591,-8.3413,-8.2515,-8.1334,-6.3889,-6.3461,-6.414,-6.4693,-6.5,-6.4667,-6.4142,-6.3537,-6.2719,-6.1795,-6.0919,-6.0613,-6.0422,-6.0408,-6.0241,-6.0114,-6.0084,-5.9975,-5.9934,-5.9902,-5.9902,-5.9902,-5.9902,-5.9902,-5.9902,-5.9939,-6.0302,-6.0378,-5.9999,-6.0319,-6.0432,-6.0053,-5.9939,-6.0129,-6.0394,-6.0963,-6.1636,-6.2433,-6.3405,-6.4139,-6.4644,-6.4688,-6.4828,-6.531,-6.5339,-6.5335,-6.5606,-6.6028,-6.64,-6.7442,-6.8755,-6.9979,-7.1381,-7.2154,-7.286,-7.336,-7.3668,-7.4053,-7.4273,-7.4794,-7.5543,-7.6049,-7.6077,-7.6458,-7.7198,-7.7123,-7.7079,-7.7969,-7.9078,-7.9951,-8.0854,-8.2057,-8.3765,-8.4958,-8.5762,-8.6633,-8.8282,-9.0146,-9.1179,-9.1785,-9.2517,-9.3094,-9.3336,-9.3291,-9.3437,-9.3321,-9.32,-9.3026,-9.2458,-9.1953,-9.1912,-9.1793,-9.1781,-9.1839,-9.2045,-9.2151,-9.2197,-9.2318,-9.2412,-9.244,-9.246,-9.2487,-9.2421,-9.2226,-9.1834,-9.1159,-9.0359,-8.9372,-8.7726,-8.614,-8.5275,-8.4444,-8.3269,-8.2137,-8.1356,-6.3409,-6.3497,-6.4241,-6.4695,-6.4821,-6.4948,-6.4805,-6.4405,-6.3726,-6.2835,-6.19,-6.1197,-6.0734,-6.038,-6.0308,-6.0197,-6.0106,-5.9998,-5.9934,-5.9902,-5.9902,-5.9902,-5.9902,-5.9902,-5.9902,-6.0091,-6.0394,-6.0243,-5.9939,-6.0319,-6.0394,-6.0053,-6.0205,-6.0487,-6.1072,-6.1652,-6.2319,-6.3497,-6.4466,-6.5321,-6.5718,-6.5994,-6.6109,-6.6193,-6.6298,-6.6241,-6.6566,-6.701,-6.7423,-6.8522,-7.0186,-7.1189,-7.2115,-7.2822,-7.336,-7.386,-7.4553,-7.4812,-7.5089,-7.5645,-7.6564,-7.7134,-7.6923,-7.7214,-7.8,-7.8558,-7.85,-7.9088,-8.017,-8.1126,-8.2029,-8.3282,-8.4993,-8.6549,-8.7357,-8.8321,-9.0285,-9.2099,-9.266,-9.3143,-9.3729,-9.4315,-9.4382,-9.4344,-9.4356,-9.4175,-9.3866,-9.3551,-9.3264,-9.2861,-9.2638,-9.2411,-9.2243,-9.2347,-9.2366,-9.2351,-9.2325,-9.2393,-9.2465,-9.2484,-9.2496,-9.2499,-9.2454,-9.2295,-9.1814,-9.0862,-8.9997,-8.9089,-8.729,-8.5416,-8.4636,-8.3894,-8.2645,-8.1708,-8.1591,-6.2873,-6.2742,-6.3466,-6.4135,-6.4831,-6.5538,-6.543,-6.4791,-6.4588,-6.3977,-6.3229,-6.2899,-6.2136,-6.0323,-6.0197,-6.0099,-6.0106,-6.0051,-5.9972,-5.9902,-6.0053,-5.9977,-5.9902,-5.9902,-5.9902,-6.0129,-6.0373,-6.0091,-6.0529,-6.0497,-6.0524,-6.0898,-6.0958,-6.1473,-6.2407,-6.3024,-6.3825,-6.4843,-6.5681,-6.6581,-6.6619,-6.6873,-6.7113,-6.7357,-6.7717,-6.7791,-6.8127,-6.8704,-6.9143,-6.9785,-7.0658,-7.1645,-7.2503,-7.3283,-7.3937,-7.462,-7.5313,-7.576,-7.6147,-7.651,-7.731,-7.8131,-7.8079,-7.8375,-7.9378,-8.0657,-8.0792,-8.1182,-8.2177,-8.2996,-8.3971,-8.538,-8.6974,-8.8501,-8.9593,-9.0997,-9.269,-9.3686,-9.4413,-9.4861,-9.5353,-9.5673,-9.5789,-9.5919,-9.6243,-9.5952,-9.5418,-9.5063,-9.4414,-9.3928,-9.3358,-9.3049,-9.2729,-9.249,-9.2393,-9.2447,-9.2436,-9.2448,-9.2456,-9.25,-9.2492,-9.2512,-9.2421,-9.2351,-9.1411,-9.0345,-8.9477,-8.8891,-8.7056,-8.5338,-8.4284,-8.3269,-8.202,-8.1239,-8.1083]},{"header":{"parameterUnit":"m.s-1","parameterCategory":1,"la1":31.0,"la2":29.5877,"lo1":-88.7671,"lo2":-86.6584,"dy":0.0162,"dx":0.0185,"nx":115,"ny":88,"refTime":"2023-04-25T12:00:00:Z","depth":0,"parameterNumber":3,"parameterNumberName":"V-component_of_WINDS"},"data":[0.0,0.0,0.0,0.0,0.0,0.0,0.0,0.0,0.0,0.0,0.0,0.0,0.0,0.0,0.0,0.0,0.0,0.0,0.0,0.0,0.0,0.0,0.0,0.0,0.0,0.0,0.0,0.0,0.0,0.0,0.0,0.0,0.0,0.0,0.0,0.0,0.0,0.0,0.0,0.0,0.0,0.0,0.0,0.0,0.0,0.0,0.0,0.0,0.0,0.0,0.0,0.0,0.0,0.0,0.0,0.0,0.0,0.0,0.0,0.0,0.0,0.0,0.0,0.0,0.0,0.0,0.0,0.0,0.0,0.0,0.0,0.0,0.0,0.0,0.0,0.0,0.0,0.0,0.0,0.0,0.0,0.0,0.0,0.0,0.0,0.0,0.0,0.0,0.0,0.0,0.0,0.0,0.0,0.0,0.0,0.0,0.0,0.0,0.0,0.0,0.0,0.0,0.0,0.0,0.0,0.0,0.0,0.0,0.0,0.0,0.0,0.0,0.0,0.0,0.0,0.0,0.0,0.0,0.0,0.0,0.0,0.0,0.0,0.0,0.0,0.0,0.0,0.0,0.0,0.0,0.0,0.0,0.0,0.0,0.0,0.0,0.0,0.0,0.0,0.0,0.0,0.0,0.0,0.0,0.0,0.0,0.0,0.0,0.0,0.0,0.0,0.0,0.0,0.0,0.0,0.0,0.0,0.0,0.0,0.0,0.0,0.0,0.0,0.0,0.0,0.0,0.0,0.0,0.0,0.0,0.0,0.0,0.0,0.0,0.0,0.0,0.0,0.0,0.0,0.0,0.0,0.0,0.0,0.0,0.0,0.0,0.0,0.0,0.0,0.0,0.0,0.0,0.0,0.0,0.0,0.0,0.0,0.0,0.0,0.0,0.0,0.0,0.0,0.0,0.0,0.0,0.0,0.0,0.0,0.0,0.0,0.0,0.0,0.0,0.0,0.0,0.0,0.0,0.0,0.0,0.0,0.0,0.0,0.0,0.0,0.0,0.0,0.0,0.0,0.0,0.0,0.0,0.0,0.0,0.0,0.0,0.0,0.0,0.0,0.0,0.0,0.0,0.0,0.0,0.0,0.0,0.0,0.0,0.0,0.0,0.0,0.0,0.0,0.0,0.0,0.0,0.0,0.0,0.0,0.0,0.0,0.0,0.0,0.0,0.0,0.0,0.0,0.0,0.0,0.0,0.0,0.0,0.0,0.0,0.0,0.0,0.0,0.0,0.0,0.0,0.0,0.0,0.0,0.0,0.0,0.0,0.0,0.0,0.0,0.0,0.0,0.0,0.0,0.0,0.0,0.0,0.0,0.0,0.0,0.0,0.0,0.0,0.0,0.0,0.0,0.0,0.0,0.0,0.0,0.0,0.0,0.0,0.0,0.0,0.0,0.0,0.0,0.0,0.0,0.0,0.0,0.0,0.0,0.0,0.0,0.0,0.0,0.0,0.0,0.0,0.0,0.0,0.0,0.0,0.0,0.0,0.0,0.0,0.0,0.0,0.0,0.0,0.0,0.0,0.0,0.0,0.0,0.0,0.0,0.0,0.0,0.0,0.0,0.0,0.0,0.0,0.0,0.0,0.0,0.0,0.0,0.0,0.0,0.0,0.0,0.0,0.0,0.0,0.0,0.0,0.0,0.0,0.0,0.0,0.0,0.0,0.0,0.0,0.0,0.0,0.0,0.0,0.0,0.0,0.0,0.0,0.0,0.0,0.0,0.0,0.0,0.0,0.0,0.0,0.0,0.0,0.0,0.0,0.0,0.0,0.0,0.0,0.0,0.0,0.0,0.0,0.0,0.0,0.0,0.0,0.0,0.0,0.0,0.0,0.0,0.0,0.0,0.0,0.0,0.0,0.0,0.0,0.0,0.0,0.0,0.0,0.0,0.0,0.0,0.0,0.0,0.0,0.0,0.0,0.0,0.0,0.0,0.0,0.0,0.0,0.0,0.0,0.0,0.0,0.0,0.0,0.0,0.0,0.0,0.0,0.0,0.0,0.0,0.0,0.0,0.0,0.0,0.0,0.0,0.0,0.0,0.0,0.0,0.0,0.0,0.0,0.0,0.0,0.0,0.0,0.0,0.0,0.0,0.0,0.0,0.0,0.0,0.0,0.0,0.0,0.0,0.0,0.0,0.0,0.0,0.0,0.0,0.0,0.0,0.0,0.0,0.0,0.0,0.0,0.0,0.0,0.0,0.0,0.0,0.0,0.0,0.0,0.0,0.0,0.0,0.0,0.0,0.0,0.0,0.0,0.0,0.0,0.0,0.0,0.0,0.0,0.0,0.0,0.0,0.0,0.0,0.0,0.0,0.0,0.0,0.0,0.0,0.0,0.0,0.0,0.0,0.0,0.0,0.0,0.0,0.0,0.0,0.0,0.0,0.0,0.0,0.0,0.0,0.0,0.0,0.0,0.0,0.0,0.0,0.0,0.0,0.0,0.0,0.0,0.0,0.0,0.0,0.0,0.0,0.0,0.0,0.0,0.0,0.0,0.0,0.0,0.0,0.0,0.0,0.0,0.0,0.0,0.0,0.0,0.0,0.0,0.0,0.0,0.0,0.0,0.0,0.0,0.0,0.0,0.0,0.0,0.0,0.0,0.0,0.0,0.0,0.0,0.0,0.0,0.0,0.0,0.0,0.0,0.0,0.0,0.0,0.0,0.0,0.0,0.0,0.0,0.0,0.0,0.0,0.0,0.0,0.0,0.0,0.0,0.0,0.0,0.0,0.0,0.0,0.0,0.0,0.0,0.0,0.0,0.0,0.0,0.0,0.0,0.0,0.0,0.0,0.0,0.0,0.0,0.0,0.0,0.0,0.0,0.0,0.0,0.0,0.0,0.0,0.0,0.0,0.0,0.0,0.0,0.0,0.0,0.0,0.0,0.0,0.0,0.0,0.0,0.0,0.0,0.0,0.0,0.0,0.0,0.0,0.0,0.0,0.0,0.0,0.0,0.0,0.0,0.0,0.0,0.0,0.0,0.0,0.0,0.0,0.0,0.0,0.0,0.0,0.0,0.0,0.0,0.0,0.0,0.0,0.0,0.0,0.0,0.0,0.0,0.0,0.0,0.0,0.0,0.0,0.0,0.0,0.0,0.0,0.0,0.0,0.0,0.0,0.0,0.0,0.0,0.0,0.0,0.0,0.0,0.0,0.0,0.0,0.0,0.0,0.0,0.0,0.0,0.0,0.0,0.0,0.0,0.0,0.0,0.0,0.0,0.0,0.0,0.0,0.0,0.0,0.0,0.0,0.0,0.0,0.0,0.0,0.0,0.0,0.0,0.0,0.0,0.0,0.0,0.0,0.0,0.0,0.0,0.0,0.0,0.0,0.0,0.0,0.0,0.0,0.0,0.0,0.0,0.0,0.0,0.0,0.0,0.0,0.0,0.0,0.0,0.0,0.0,0.0,0.0,0.0,0.0,0.0,0.0,0.0,0.0,0.0,0.0,0.0,0.0,0.0,0.0,0.0,0.0,0.0,0.0,0.0,0.0,0.0,0.0,0.0,0.0,0.0,0.0,0.0,0.0,0.0,0.0,0.0,0.0,0.0,0.0,0.0,0.0,0.0,0.0,0.0,0.0,0.0,0.0,0.0,0.0,0.0,0.0,0.0,0.0,0.0,0.0,0.0,0.0,0.0,0.0,0.0,0.0,0.0,0.0,0.0,0.0,0.0,0.0,0.0,0.0,0.0,0.0,0.0,0.0,0.0,0.0,0.0,0.0,0.0,0.0,0.0,0.0,0.0,0.0,0.0,0.0,0.0,0.0,0.0,0.0,0.0,0.0,0.0,0.0,0.0,0.0,0.0,0.0,0.0,0.0,0.0,0.0,0.0,0.0,0.0,0.0,0.0,0.0,0.0,0.0,0.0,0.0,0.0,0.0,0.0,0.0,0.0,0.0,0.0,0.0,0.0,0.0,0.0,0.0,0.0,0.0,0.0,0.0,0.0,0.0,0.0,0.0,0.0,0.0,0.0,0.0,0.0,0.0,0.0,0.0,0.0,0.0,0.0,0.0,0.0,0.0,0.0,0.0,0.0,0.0,0.0,0.0,0.0,0.0,0.0,0.0,0.0,0.0,0.0,0.0,0.0,0.0,0.0,0.0,0.0,0.0,0.0,0.0,0.0,0.0,0.0,0.0,0.0,0.0,0.0,0.0,0.0,0.0,0.0,0.0,0.0,0.0,0.0,0.0,0.0,0.0,0.0,0.0,0.0,0.0,0.0,0.0,0.0,0.0,0.0,0.0,0.0,0.0,0.0,0.0,0.0,0.0,1.5885,0.0,0.0,0.0,0.0,0.0,0.0,0.0,0.0,0.0,0.0,0.0,0.0,0.0,0.0,0.0,0.0,0.0,0.0,0.0,0.0,0.0,0.0,0.0,0.0,0.0,0.0,0.0,0.0,0.0,0.0,0.0,0.0,0.0,0.0,0.0,0.0,0.0,0.0,0.0,0.0,0.0,0.0,0.0,0.0,0.0,0.0,0.0,0.0,0.0,0.0,0.0,0.0,0.0,0.0,0.0,0.0,0.0,0.0,0.0,0.0,0.0,0.0,0.0,0.0,0.0,0.0,0.0,0.0,0.0,0.0,0.0,0.0,0.0,0.0,0.0,0.0,0.0,0.0,0.0,0.0,0.0,0.0,0.0,0.0,0.0,0.0,0.0,0.0,0.0,0.0,0.0,0.0,0.0,0.0,0.0,0.0,0.0,0.0,0.0,0.0,0.0,0.0,0.0,0.0,0.0,0.0,0.0,0.0,0.0,0.0,1.5885,1.5885,1.5885,1.5885,1.5885,0.0,0.0,0.0,0.0,0.0,0.0,0.0,0.0,0.0,0.0,0.0,0.0,0.0,0.0,0.0,0.0,0.0,0.0,0.0,0.0,0.0,0.0,0.0,0.0,0.0,0.0,0.0,0.0,0.0,0.0,0.0,0.0,0.0,0.0,0.0,0.0,0.0,0.0,0.0,0.0,0.0,0.0,0.0,0.0,0.0,0.0,0.0,0.0,0.0,0.0,0.0,0.0,0.0,0.0,0.0,0.0,0.0,0.0,0.0,0.0,0.0,0.0,0.0,0.0,0.0,0.0,0.0,0.0,0.0,0.0,0.0,0.0,0.0,0.0,0.0,0.0,0.0,0.0,0.0,0.0,0.0,0.0,0.0,0.0,0.0,0.0,0.0,0.0,0.0,0.0,0.0,0.0,0.0,0.0,0.0,0.0,0.0,0.0,0.0,0.0,0.0,0.0,0.0,0.0,0.0,0.0,0.0,0.0,0.0,0.0,0.0,0.0,1.6066,1.6079,1.6066,0.0,0.0,0.0,0.0,0.0,0.0,0.0,0.0,0.0,0.0,0.0,0.0,0.0,0.0,0.0,0.0,0.0,0.0,0.0,0.0,0.0,0.0,0.0,0.0,0.0,0.0,0.0,0.0,0.0,0.0,0.0,0.0,0.0,0.0,0.0,0.0,0.0,0.0,0.0,0.0,0.0,0.0,0.0,0.0,0.0,0.0,0.0,0.0,0.0,0.0,0.0,0.0,0.0,0.0,0.0,0.0,0.0,0.0,0.0,0.0,0.0,0.0,0.0,0.0,0.0,0.0,0.0,0.0,0.0,0.0,0.0,0.0,0.0,0.0,0.0,0.0,0.0,0.0,0.0,0.0,0.0,0.0,0.0,0.0,0.0,0.0,0.0,0.0,0.0,0.0,0.0,0.0,0.0,0.0,0.0,0.0,0.0,0.0,0.0,0.0,0.0,0.0,0.0,0.0,0.0,0.0,0.0,0.0,0.0,0.0,1.6127,1.661,1.6622,0.0,1.6653,0.0,0.0,0.0,0.0,0.0,0.0,0.0,0.0,0.0,0.0,0.0,0.0,0.0,0.0,0.0,0.0,0.0,0.0,0.0,0.0,0.0,0.0,0.0,0.0,0.0,0.0,0.0,0.0,0.0,0.0,0.0,0.0,0.0,0.0,0.0,0.0,0.0,0.0,0.0,0.0,0.0,0.0,0.0,0.0,0.0,0.0,0.0,0.0,0.0,0.0,0.0,0.0,0.0,0.0,0.0,0.0,0.0,0.0,0.0,0.0,0.0,0.0,0.0,0.0,0.0,0.0,0.0,0.0,0.0,0.0,0.0,0.0,0.0,0.0,0.0,0.0,0.0,0.0,0.0,0.0,0.0,0.0,0.0,0.0,0.0,0.0,0.0,0.0,0.0,0.0,0.0,0.0,0.0,0.0,0.0,0.0,0.0,0.0,0.0,0.0,0.0,0.0,0.0,0.0,0.0,0.0,0.0,0.0,0.0,0.0,1.6151,1.6694,1.6694,1.6549,0.0,0.0,0.0,0.0,0.0,0.0,0.0,0.0,0.0,0.0,0.0,0.0,0.0,0.0,0.0,0.0,0.0,0.0,0.0,0.0,0.0,0.0,0.0,0.0,0.0,0.0,0.0,0.0,0.0,0.0,0.0,0.0,0.0,0.0,0.0,0.0,0.0,0.0,0.0,0.0,0.0,0.0,0.0,0.0,0.0,0.0,0.0,0.0,0.0,0.0,0.0,0.0,0.0,0.0,0.0,0.0,0.0,0.0,0.0,0.0,0.0,0.0,0.0,0.0,0.0,0.0,0.0,0.0,0.0,0.0,0.0,0.0,0.0,0.0,0.0,0.0,0.0,0.0,0.0,0.0,0.0,0.0,0.0,0.0,0.0,0.0,0.0,0.0,0.0,0.0,0.0,0.0,0.0,0.0,0.0,0.0,0.0,0.0,0.0,0.0,0.0,0.0,0.0,0.0,0.0,0.0,0.0,0.0,0.0,0.0,1.6284,1.6368,1.6863,1.6845,1.663,1.6115,0.0,0.0,0.0,0.0,0.0,0.0,0.0,0.0,0.0,0.0,0.0,0.0,0.0,0.0,0.0,0.0,0.0,0.0,0.0,0.0,0.0,0.0,0.0,0.0,0.0,0.0,0.0,0.0,0.0,0.0,0.0,0.0,0.0,0.0,0.0,0.0,0.0,0.0,0.0,0.0,0.0,0.0,0.0,0.0,0.0,0.0,0.0,0.0,0.0,0.0,0.0,0.0,0.0,0.0,0.0,0.0,0.0,0.0,0.0,0.0,0.0,0.0,0.0,0.0,0.0,0.0,0.0,0.0,0.0,0.0,0.0,0.0,0.0,0.0,0.0,0.0,0.0,0.0,0.0,0.0,0.0,0.0,0.0,0.0,0.0,0.0,0.0,0.0,0.0,0.0,0.0,0.0,0.0,0.0,0.0,0.0,0.0,0.0,0.0,0.0,0.0,0.0,0.0,0.0,0.0,0.0,0.0,0.0,1.737,1.6911,1.6911,1.737,1.7279,1.7016,0.0,0.0,0.0,0.0,0.0,0.0,0.0,0.0,0.0,0.0,0.0,0.0,0.0,0.0,0.0,0.0,0.0,0.0,0.0,0.0,0.0,0.0,0.0,0.0,0.0,0.0,0.0,0.0,0.0,0.0,0.0,0.0,0.0,0.0,0.0,0.0,0.0,0.0,0.0,0.0,0.0,0.0,0.0,0.0,0.0,0.0,0.0,0.0,0.0,0.0,0.0,0.0,0.0,0.0,0.0,0.0,0.0,0.0,0.0,0.0,0.0,0.0,0.0,0.0,0.0,0.0,0.0,0.0,0.0,0.0,0.0,0.0,0.0,0.0,0.0,0.0,0.0,0.0,0.0,0.0,0.0,0.0,0.0,0.0,0.0,0.0,0.0,0.0,0.0,0.0,0.0,0.0,0.0,0.0,0.0,0.0,0.0,0.0,0.0,0.0,0.0,0.0,0.0,0.0,0.0,0.0,0.0,0.0,0.0,1.673,1.6706,1.6694,1.675,1.7098,1.7219,0.0,0.0,0.0,0.0,0.0,0.0,0.0,0.0,0.0,0.0,0.0,0.0,0.0,0.0,0.0,0.0,0.0,0.0,0.0,0.0,0.0,0.0,0.0,0.0,0.0,0.0,0.0,0.0,0.0,0.0,0.0,0.0,0.0,0.0,0.0,0.0,0.0,0.0,0.0,0.0,0.0,0.0,0.0,0.0,0.0,0.0,0.0,0.0,0.0,0.0,0.0,0.0,0.0,0.0,0.0,0.0,0.0,0.0,0.0,0.0,0.0,0.0,0.0,0.0,0.0,0.0,0.0,0.0,0.0,0.0,0.0,0.0,0.0,0.0,0.0,0.0,0.0,0.0,0.0,0.0,0.0,0.0,0.0,0.0,0.0,0.0,0.0,0.0,0.0,0.0,0.0,0.0,0.0,0.0,0.0,0.0,0.0,0.0,0.0,0.0,0.0,0.0,0.0,0.0,0.0,0.0,0.0,0.0,0.0,1.6573,0.0,1.6779,1.6429,1.6738,1.6731,0.0,0.0,0.0,0.0,0.0,0.0,0.0,0.0,0.0,0.0,0.0,0.0,0.0,0.0,0.0,0.0,0.0,0.0,0.0,0.0,0.0,0.0,0.0,0.0,0.0,0.0,0.0,0.0,0.0,0.0,0.0,0.0,0.0,0.0,0.0,0.0,0.0,0.0,0.0,0.0,0.0,0.0,0.0,0.0,0.0,0.0,0.0,0.0,0.0,0.0,0.0,0.0,0.0,0.0,0.0,0.0,0.0,0.0,0.0,0.0,0.0,0.0,0.0,0.0,0.0,0.0,0.0,0.0,0.0,0.0,0.0,0.0,0.0,0.0,0.0,0.0,0.0,0.0,0.0,0.0,0.0,0.0,0.0,0.0,0.0,0.0,0.0,0.0,0.0,0.0,0.0,0.0,0.0,0.0,0.0,0.0,0.0,0.0,0.0,0.0,0.0,0.0,0.0,0.0,0.0,0.0,0.0,0.0,1.6537,1.7044,1.731,1.7189,1.6718,1.6271,1.5761,0.0,0.0,0.0,0.0,0.0,0.0,0.0,0.0,0.0,0.0,0.0,0.0,0.0,0.0,0.0,0.0,0.0,0.0,0.0,0.0,0.0,0.0,0.0,0.0,0.0,0.0,0.0,0.0,0.0,0.0,0.0,0.0,0.0,0.0,0.0,0.0,0.0,0.0,0.0,0.0,0.0,0.0,0.0,0.0,0.0,0.0,0.0,0.0,0.0,0.0,0.0,0.0,0.0,0.0,0.0,0.0,0.0,0.0,0.0,0.0,0.0,0.0,0.0,0.0,0.0,0.0,0.0,0.0,0.0,0.0,0.0,0.0,0.0,0.0,0.0,0.0,0.0,0.0,0.0,0.0,0.0,0.0,0.0,0.0,0.0,0.0,0.0,0.0,0.0,0.0,0.0,0.0,0.0,0.0,0.0,0.0,0.0,0.0,0.0,0.0,0.0,0.0,0.0,0.0,0.0,0.0,0.0,0.0,0.0,1.6284,1.6706,1.7032,1.7247,1.7064,1.7316,0.0,0.0,0.0,0.0,0.0,0.0,0.0,0.0,0.0,0.0,0.0,0.0,0.0,0.0,0.0,0.0,0.0,0.0,0.0,0.0,0.0,0.0,0.0,0.0,0.0,0.0,0.0,0.0,0.0,0.0,0.0,0.0,0.0,0.0,0.0,0.0,0.0,0.0,0.0,0.0,0.0,0.0,0.0,0.0,0.0,0.0,0.0,0.0,0.0,0.0,0.0,0.0,0.0,0.0,0.0,0.0,0.0,0.0,0.0,0.0,0.0,0.0,0.0,0.0,0.0,0.0,0.0,0.0,0.0,0.0,0.0,0.0,0.0,0.0,0.0,0.0,0.0,0.0,0.0,0.0,0.0,0.0,0.0,0.0,0.0,0.0,0.0,0.0,0.0,0.0,0.0,0.0,0.0,0.0,0.0,0.0,0.0,0.0,0.0,0.0,0.0,0.0,0.0,0.0,0.0,0.0,0.0,0.0,0.0,1.652,1.6906,1.7201,1.7334,1.7393,1.7617,1.813,0.0,0.0,0.0,0.0,0.0,0.0,0.0,0.0,0.0,0.0,0.0,0.0,0.0,0.0,0.0,0.0,0.0,0.0,0.0,0.0,0.0,0.0,0.0,0.0,0.0,0.0,0.0,0.0,0.0,0.0,0.0,0.0,0.0,0.0,0.0,0.0,0.0,0.0,0.0,0.0,0.0,0.0,0.0,0.0,0.0,0.0,0.0,0.0,0.0,0.0,0.0,0.0,0.0,0.0,0.0,0.0,0.0,0.0,0.0,0.0,0.0,0.0,0.0,0.0,0.0,0.0,0.0,0.0,0.0,0.0,0.0,0.0,0.0,0.0,0.0,0.0,0.0,0.0,0.0,0.0,0.0,0.0,0.0,0.0,0.0,0.0,0.0,0.0,0.0,0.0,0.0,0.0,0.0,0.0,0.0,0.0,0.0,0.0,0.0,0.0,0.0,0.0,0.0,0.0,0.0,0.0,0.0,0.0,1.7472,1.785,1.7769,1.7322,1.7464,1.7094,0.0,0.0,0.0,0.0,0.0,0.0,0.0,0.0,0.0,0.0,0.0,0.0,0.0,0.0,0.0,0.0,0.0,0.0,0.0,0.0,0.0,0.0,0.0,0.0,0.0,0.0,0.0,0.0,0.0,0.0,0.0,0.0,0.0,0.0,0.0,0.0,0.0,0.0,0.0,0.0,0.0,0.0,0.0,0.0,0.0,0.0,0.0,0.0,0.0,0.0,0.0,0.0,0.0,0.0,0.0,0.0,0.0,0.0,0.0,0.0,0.0,0.0,0.0,0.0,0.0,0.0,0.0,0.0,0.0,0.0,0.0,0.0,0.0,0.0,0.0,0.0,0.0,0.0,0.0,0.0,0.0,0.0,0.0,0.0,0.0,0.0,0.0,0.0,0.0,0.0,0.0,0.0,0.0,0.0,0.0,0.0,0.0,0.0,0.0,0.0,0.0,0.0,0.0,0.0,0.0,0.0,0.0,0.0,0.0,1.8243,1.8988,1.9373,1.9434,1.933,1.9228,0.0,0.0,0.0,0.0,0.0,0.0,0.0,0.0,0.0,0.0,0.0,0.0,0.0,0.0,0.0,0.0,0.0,0.0,0.0,0.0,0.0,0.0,0.0,0.0,0.0,0.0,0.0,0.0,0.0,0.0,0.0,0.0,0.0,0.0,0.0,0.0,0.0,0.0,0.0,0.0,0.0,0.0,0.0,0.0,0.0,0.0,0.0,0.0,0.0,0.0,0.0,0.0,0.0,0.0,0.0,0.0,0.0,0.0,0.0,0.0,0.0,0.0,0.0,0.0,0.0,0.0,0.0,0.0,0.0,0.0,0.0,0.0,0.0,0.0,0.0,0.0,0.0,0.0,0.0,0.0,0.0,0.0,0.0,0.0,0.0,0.0,0.0,0.0,0.0,0.0,0.0,0.0,0.0,0.0,0.0,0.0,0.0,0.0,0.0,0.0,0.0,0.0,0.0,0.0,0.0,0.0,0.0,0.0,1.7673,1.8993,1.986,2.0904,2.2156,2.1569,2.0794,0.0,0.0,0.0,0.0,0.0,0.0,0.0,0.0,0.0,0.0,0.0,0.0,0.0,0.0,0.0,0.0,0.0,0.0,0.0,0.0,0.0,0.0,0.0,0.0,0.0,0.0,0.0,0.0,0.0,0.0,0.0,0.0,0.0,0.0,0.0,0.0,0.0,0.0,0.0,0.0,0.0,0.0,0.0,0.0,0.0,0.0,0.0,0.0,0.0,0.0,0.0,0.0,0.0,0.0,0.0,0.0,0.0,0.0,0.0,0.0,0.0,0.0,0.0,0.0,0.0,0.0,0.0,0.0,0.0,0.0,0.0,0.0,0.0,0.0,0.0,0.0,0.0,0.0,0.0,0.0,0.0,0.0,0.0,0.0,0.0,0.0,0.0,0.0,0.0,0.0,0.0,0.0,0.0,0.0,0.0,0.0,0.0,0.0,0.0,0.0,0.0,0.0,0.0,0.0,0.0,0.0,0.0,0.0,1.8116,1.9591,2.0615,2.2235,2.456,2.3705,2.2015,0.0,0.0,0.0,0.0,0.0,0.0,0.0,0.0,0.0,0.0,0.0,0.0,0.0,0.0,0.0,0.0,0.0,0.0,0.0,0.0,0.0,0.0,0.0,0.0,0.0,0.0,0.0,0.0,0.0,0.0,0.0,0.0,0.0,0.0,0.0,0.0,0.0,0.0,0.0,0.0,0.0,0.0,0.0,0.0,0.0,0.0,0.0,0.0,0.0,0.0,0.0,0.0,0.0,0.0,0.0,0.0,0.0,0.0,0.0,0.0,0.0,0.0,0.0,0.0,0.0,0.0,0.0,0.0,0.0,0.0,0.0,0.0,0.0,0.0,0.0,0.0,0.0,0.0,0.0,0.0,0.0,0.0,0.0,0.0,0.0,0.0,0.0,0.0,0.0,0.0,0.0,0.0,0.0,0.0,0.0,0.0,0.0,0.0,0.0,0.0,0.0,0.0,0.0,0.0,0.0,0.0,0.0,0.0,1.7694,1.976,2.1181,2.2527,2.4001,2.3739,2.3064,0.0,0.0,0.0,0.0,0.0,0.0,0.0,0.0,0.0,0.0,0.0,0.0,0.0,0.0,0.0,0.0,0.0,0.0,0.0,0.0,0.0,0.0,0.0,0.0,0.0,0.0,0.0,0.0,0.0,0.0,0.0,0.0,0.0,0.0,0.0,0.0,0.0,0.0,0.0,0.0,0.0,0.0,0.0,0.0,0.0,0.0,0.0,0.0,1.5056,0.0,0.0,0.0,0.0,0.0,0.0,0.0,0.0,0.0,0.0,0.0,0.0,0.0,0.0,0.0,0.0,0.0,0.0,0.0,0.0,0.0,0.0,0.0,0.0,0.0,0.0,0.0,0.0,0.0,0.0,0.0,0.0,0.0,0.0,0.0,0.0,0.0,0.0,0.0,0.0,0.0,0.0,0.0,0.0,0.0,0.0,0.0,0.0,0.0,0.0,0.0,0.0,0.0,0.0,0.0,0.0,0.0,0.0,0.0,1.7887,2.0266,2.2196,2.3904,2.5396,2.5511,2.4374,0.0,0.0,0.0,0.0,0.0,0.0,0.0,0.0,0.0,0.0,0.0,0.0,0.0,0.0,0.0,0.0,0.0,0.0,0.0,0.0,0.0,0.0,0.0,0.0,0.0,0.0,0.0,0.0,0.0,0.0,0.0,0.0,0.0,0.0,0.0,0.0,0.0,0.0,0.0,0.0,0.0,0.0,0.0,0.0,0.0,0.0,0.0,0.0,0.0,0.0,0.0,0.0,0.0,0.0,0.0,0.0,0.0,0.0,0.0,0.0,0.0,0.0,0.0,0.0,0.0,0.0,0.0,0.0,0.0,0.0,0.0,0.0,0.0,0.0,0.0,0.0,0.0,0.0,0.0,0.0,0.0,0.0,0.0,0.0,0.0,0.0,0.0,0.0,0.0,0.0,0.0,0.0,0.0,0.0,0.0,0.0,0.0,0.0,0.0,0.0,0.0,0.0,0.0,0.0,0.0,0.0,0.0,1.6702,1.8289,2.08,2.3234,2.5322,2.7138,2.7268,2.563,2.2131,0.0,0.0,0.0,0.0,0.0,0.0,0.0,0.0,0.0,0.0,0.0,0.0,0.0,0.0,0.0,0.0,0.0,0.0,0.0,0.0,0.0,0.0,0.0,0.0,0.0,0.0,0.0,0.0,0.0,0.0,0.0,0.0,0.0,0.0,0.0,0.0,0.0,0.0,1.4171,1.3987,0.0,0.0,0.0,0.0,0.0,0.0,0.0,0.0,1.5006,0.0,0.0,0.0,0.0,0.0,0.0,0.0,0.0,0.0,0.0,0.0,0.0,0.0,0.0,0.0,0.0,0.0,0.0,0.0,0.0,0.0,0.0,0.0,0.0,0.0,0.0,0.0,0.0,0.0,0.0,0.0,0.0,0.0,0.0,0.0,0.0,0.0,0.0,0.0,0.0,0.0,0.0,0.0,0.0,0.0,0.0,0.0,0.0,0.0,0.0,0.0,0.0,0.0,0.0,0.0,0.0,1.605,1.6957,1.8525,2.105,2.3393,2.519,2.6239,2.6947,2.6081,2.3525,0.0,0.0,0.0,0.0,0.0,0.0,0.0,0.0,0.0,0.0,0.0,0.0,0.0,0.0,0.0,0.0,0.0,0.0,0.0,0.0,0.0,0.0,0.0,0.0,0.0,0.0,0.0,0.0,0.0,0.0,0.0,0.0,0.0,0.0,0.0,0.0,0.0,0.0,0.0,1.378,1.3922,0.0,0.0,0.0,0.0,0.0,0.0,0.0,0.0,1.4892,0.0,0.0,0.0,0.0,0.0,0.0,0.0,0.0,0.0,0.0,0.0,0.0,0.0,0.0,0.0,0.0,0.0,0.0,0.0,0.0,0.0,0.0,0.0,0.0,0.0,0.0,0.0,0.0,0.0,0.0,0.0,0.0,0.0,0.0,0.0,0.0,0.0,0.0,0.0,0.0,0.0,0.0,0.0,0.0,0.0,0.0,0.0,0.0,0.0,0.0,0.0,0.0,0.0,0.0,0.0,1.6367,1.6887,1.84,2.1025,2.3622,2.542,2.6184,2.6881,2.628,0.0,0.0,0.0,0.0,0.0,0.0,0.0,0.0,0.0,0.0,0.0,0.0,0.0,0.0,0.0,0.0,0.0,0.0,0.0,0.0,0.0,0.0,0.0,0.0,0.0,0.0,0.0,0.0,0.0,0.0,0.0,0.0,0.0,0.0,0.0,0.0,0.0,0.0,0.0,0.0,1.3666,1.3731,1.3351,0.0,0.0,0.0,0.0,0.0,0.0,1.5873,1.5627,0.0,0.0,0.0,0.0,0.0,0.0,0.0,0.0,0.0,0.0,0.0,0.0,0.0,0.0,0.0,0.0,0.0,0.0,0.0,0.0,0.0,0.0,0.0,0.0,0.0,0.0,0.0,0.0,0.0,0.0,0.0,0.0,0.0,0.0,0.0,0.0,0.0,0.0,0.0,0.0,0.0,0.0,0.0,0.0,0.0,0.0,0.0,0.0,0.0,0.0,0.0,0.0,0.0,0.0,0.0,1.6614,1.6937,1.8346,2.0884,2.386,2.5754,2.6295,2.7034,2.6517,0.0,0.0,0.0,0.0,0.0,0.0,0.0,0.0,0.0,0.0,0.0,0.0,0.0,0.0,0.0,0.0,0.0,0.0,0.0,0.0,0.0,0.0,0.0,0.0,0.0,0.0,0.0,0.0,0.0,0.0,0.0,0.0,0.0,0.0,0.0,0.0,0.0,0.0,0.0,0.0,0.0,1.3706,1.3345,1.3645,0.0,0.0,0.0,0.0,1.5266,1.5865,0.0,0.0,0.0,0.0,0.0,0.0,0.0,0.0,0.0,0.0,0.0,0.0,0.0,0.0,0.0,0.0,0.0,0.0,0.0,0.0,0.0,0.0,0.0,0.0,0.0,0.0,0.0,0.0,0.0,0.0,0.0,0.0,0.0,0.0,0.0,0.0,0.0,0.0,0.0,0.0,0.0,0.0,0.0,0.0,0.0,0.0,0.0,0.0,0.0,0.0,0.0,0.0,0.0,0.0,0.0,0.0,1.6403,1.7675,1.9064,2.0484,2.4137,2.6101,2.6065,2.7352,2.6994,0.0,0.0,0.0,0.0,0.0,0.0,0.0,0.0,0.0,0.0,0.0,0.0,0.0,0.0,0.0,0.0,0.0,0.0,0.0,0.0,0.0,0.0,0.0,0.0,0.0,0.0,0.0,0.0,0.0,0.0,0.0,0.0,0.0,0.0,0.0,0.0,0.0,0.0,0.0,0.0,0.0,1.4539,1.459,1.4582,1.4564,0.0,0.0,1.4579,1.42,1.4973,0.0,0.0,0.0,0.0,0.0,0.0,0.0,0.0,0.0,0.0,0.0,0.0,0.0,0.0,0.0,0.0,0.0,0.0,0.0,0.0,0.0,0.0,0.0,0.0,0.0,0.0,0.0,0.0,0.0,0.0,0.0,0.0,0.0,0.0,0.0,0.0,0.0,0.0,0.0,0.0,0.0,0.0,0.0,0.0,0.0,0.0,0.0,0.0,0.0,0.0,0.0,0.0,0.0,0.0,0.0,1.6447,1.7193,1.7776,1.9238,2.1691,2.3997,2.5589,2.6445,2.6464,2.5771,0.0,0.0,0.0,0.0,0.0,0.0,0.0,0.0,0.0,0.0,0.0,0.0,0.0,0.0,0.0,0.0,0.0,0.0,0.0,0.0,0.0,0.0,0.0,0.0,0.0,0.0,0.0,0.0,0.0,0.0,0.0,0.0,0.0,0.0,0.0,0.0,0.0,0.0,0.0,0.0,0.0,0.0,1.4178,1.4445,0.0,0.0,0.0,1.4738,1.4782,0.0,0.0,0.0,0.0,0.0,0.0,0.0,0.0,0.0,0.0,0.0,0.0,0.0,0.0,0.0,0.0,0.0,0.0,0.0,0.0,0.0,0.0,0.0,0.0,0.0,0.0,0.0,0.0,0.0,0.0,0.0,0.0,0.0,0.0,0.0,0.0,0.0,0.0,0.0,0.0,0.0,0.0,0.0,0.0,0.0,0.0,0.0,0.0,0.0,0.0,0.0,0.0,0.0,0.0,0.0,0.0,0.0,1.7772,1.8039,1.9558,2.2398,2.411,2.5424,2.6443,2.5758,0.0,0.0,0.0,0.0,0.0,0.0,0.0,0.0,0.0,0.0,0.0,0.0,0.0,0.0,0.0,0.0,0.0,0.0,0.0,0.0,0.0,0.0,0.0,0.0,0.0,0.0,0.0,1.8957,0.0,0.0,0.0,0.0,0.0,0.0,0.0,0.0,0.0,0.0,0.0,0.0,0.0,0.0,1.4824,1.3861,1.4329,1.4562,0.0,0.0,1.5061,1.5241,1.6006,1.6662,0.0,0.0,0.0,0.0,0.0,0.0,0.0,0.0,0.0,0.0,0.0,0.0,0.0,0.0,0.0,0.0,0.0,0.0,0.0,0.0,0.0,0.0,0.0,0.0,0.0,0.0,0.0,0.0,0.0,0.0,0.0,0.0,0.0,0.0,0.0,0.0,0.0,0.0,0.0,0.0,0.0,0.0,0.0,0.0,0.0,0.0,0.0,0.0,0.0,0.0,0.0,0.0,0.0,0.0,1.649,1.7628,1.8773,2.0099,2.1712,2.475,2.6101,2.5546,2.59,2.5278,0.0,0.0,0.0,0.0,0.0,0.0,0.0,0.0,0.0,0.0,0.0,0.0,0.0,0.0,0.0,0.0,0.0,0.0,0.0,0.0,0.0,0.0,0.0,0.0,0.0,0.0,0.0,0.0,0.0,0.0,0.0,0.0,0.0,0.0,0.0,0.0,0.0,0.0,0.0,0.0,0.0,1.5119,1.4296,1.457,1.4659,0.0,1.5034,1.5565,1.4779,1.6108,1.7184,1.6963,0.0,0.0,0.0,0.0,0.0,0.0,0.0,0.0,0.0,0.0,0.0,0.0,0.0,0.0,0.0,0.0,0.0,0.0,0.0,0.0,0.0,0.0,0.0,0.0,0.0,0.0,0.0,0.0,0.0,0.0,0.0,0.0,0.0,0.0,0.0,0.0,0.0,0.0,0.0,0.0,0.0,0.0,0.0,0.0,0.0,0.0,0.0,0.0,0.0,0.0,0.0,0.0,0.0,1.6556,1.7832,1.827,1.9867,2.2579,2.4289,2.5545,2.6465,2.6053,2.5214,0.0,0.0,0.0,0.0,0.0,0.0,0.0,0.0,0.0,0.0,0.0,0.0,0.0,0.0,0.0,0.0,0.0,0.0,0.0,0.0,0.0,0.0,0.0,0.0,0.0,0.0,0.0,0.0,1.8684,1.8102,1.7825,0.0,0.0,0.0,0.0,0.0,0.0,0.0,0.0,0.0,0.0,1.4941,1.4499,1.5145,0.0,0.0,1.5607,1.6313,1.5176,1.6402,1.7446,1.7377,1.6858,0.0,0.0,0.0,0.0,0.0,0.0,0.0,0.0,0.0,0.0,0.0,0.0,0.0,0.0,0.0,0.0,0.0,0.0,0.0,0.0,0.0,0.0,0.0,0.0,0.0,0.0,0.0,0.0,0.0,0.0,0.0,0.0,0.0,0.0,0.0,0.0,0.0,0.0,0.0,0.0,0.0,0.0,0.0,0.0,0.0,0.0,0.0,0.0,0.0,0.0,0.0,0.0,1.6658,1.8291,1.8245,1.9879,2.3376,2.4246,2.5358,2.6817,2.6072,2.5087,0.0,0.0,0.0,0.0,0.0,0.0,0.0,0.0,0.0,0.0,0.0,0.0,0.0,0.0,0.0,0.0,0.0,0.0,0.0,0.0,0.0,0.0,0.0,0.0,0.0,0.0,0.0,0.0,1.8921,1.8119,1.7279,0.0,0.0,0.0,0.0,0.0,0.0,0.0,0.0,0.0,0.0,1.523,1.4968,1.5582,1.5876,1.5074,1.6156,1.6831,1.598,1.6683,1.7222,1.7088,0.0,0.0,0.0,0.0,0.0,0.0,0.0,0.0,0.0,0.0,0.0,0.0,0.0,0.0,0.0,0.0,0.0,0.0,0.0,0.0,0.0,0.0,0.0,0.0,0.0,0.0,0.0,0.0,0.0,0.0,1.7467,0.0,0.0,0.0,0.0,0.0,0.0,0.0,0.0,0.0,0.0,0.0,0.0,0.0,0.0,0.0,0.0,0.0,0.0,0.0,0.0,0.0,0.0,1.6747,1.906,1.8868,2.0419,2.3774,2.4955,2.5728,2.6199,2.5834,2.4931,2.3552,0.0,0.0,0.0,0.0,0.0,0.0,0.0,0.0,0.0,0.0,0.0,0.0,0.0,0.0,0.0,0.0,0.0,0.0,0.0,0.0,0.0,0.0,0.0,0.0,0.0,0.0,2.0688,2.0138,1.8982,0.0,0.0,0.0,0.0,0.0,0.0,0.0,0.0,0.0,0.0,1.5795,1.5926,1.5639,1.5806,1.6068,1.6444,1.6741,1.6945,1.7061,1.686,1.6411,0.0,0.0,0.0,0.0,0.0,0.0,0.0,0.0,0.0,0.0,0.0,0.0,0.0,0.0,0.0,0.0,0.0,0.0,0.0,0.0,0.0,0.0,0.0,0.0,0.0,0.0,0.0,1.5972,1.6437,0.0,0.0,0.0,0.0,0.0,0.0,0.0,0.0,0.0,0.0,0.0,1.7183,1.6869,0.0,0.0,0.0,0.0,0.0,0.0,0.0,0.0,0.0,0.0,0.0,0.0,1.715,2.0131,1.9343,2.0564,2.4125,2.4855,2.555,2.6152,2.5818,2.5087,2.3927,0.0,0.0,0.0,0.0,0.0,0.0,0.0,0.0,0.0,0.0,0.0,0.0,0.0,0.0,0.0,0.0,0.0,0.0,0.0,0.0,0.0,0.0,0.0,0.0,0.0,1.9776,0.0,0.0,0.0,0.0,0.0,0.0,0.0,0.0,0.0,0.0,0.0,1.5592,1.5612,1.5689,1.5795,1.5795,1.6337,1.668,0.0,0.0,0.0,0.0,0.0,0.0,0.0,0.0,0.0,0.0,0.0,0.0,0.0,0.0,1.1077,1.1023,1.0228,0.9497,0.9497,0.0,0.0,0.0,0.0,0.0,0.0,0.0,0.0,0.0,0.0,0.0,0.0,0.0,0.0,1.5545,0.0,1.6157,0.0,0.0,0.0,0.0,0.0,0.0,0.0,0.0,1.7183,1.7108,1.743,1.7177,1.7041,0.0,1.7332,1.7308,0.0,0.0,0.0,0.0,0.0,0.0,0.0,0.0,1.7731,2.0079,1.9596,2.0824,2.3941,2.4797,2.5484,2.6152,2.5453,2.4817,2.4305,2.3673,2.3197,0.0,0.0,0.0,0.0,0.0,0.0,0.0,0.0,0.0,0.0,0.0,0.0,0.0,0.0,0.0,0.0,0.0,0.0,0.0,0.0,0.0,0.0,0.0,1.9465,0.0,0.0,0.0,0.0,0.0,0.0,0.0,0.0,0.0,1.6187,1.5991,1.5914,1.6158,1.6148,1.6208,1.6444,0.0,0.0,0.0,0.0,0.0,0.0,0.0,1.6659,1.5773,1.4998,1.3994,1.2418,1.1392,1.0867,1.107,0.0,0.0,1.1172,0.9944,0.8922,0.8927,0.7464,0.5905,0.4707,0.4295,0.3853,0.0,0.0,0.0,0.0,0.0,0.0,0.0,0.0,1.4898,1.5564,0.0,1.6343,0.0,0.0,0.0,0.0,0.0,1.7204,0.0,0.0,1.7346,1.7281,1.779,1.7833,1.7693,1.7423,1.7196,1.7158,1.7241,1.741,0.0,0.0,0.0,0.0,0.0,0.0,1.8435,1.8874,1.9747,2.1333,2.3486,2.487,2.5784,2.6072,2.4846,2.4289,2.4484,2.3594,2.3197,2.3441,2.3197,0.0,0.0,0.0,0.0,0.0,0.0,0.0,0.0,0.0,0.0,0.0,0.0,0.0,0.0,0.0,0.0,0.0,0.0,0.0,0.0,1.9672,0.0,0.0,0.0,0.0,0.0,0.0,0.0,0.0,0.0,0.0,1.6694,1.6718,1.6815,1.7056,0.0,0.0,0.0,0.0,1.7672,1.8203,1.8046,1.8058,1.8577,1.6424,1.4709,1.4518,0.0,0.0,1.0921,1.088,1.1036,1.1335,1.1382,1.1341,1.1212,0.9958,0.8975,0.892,0.6511,0.4544,0.4504,0.3456,0.2512,1.211,0.0,0.0,0.0,0.0,1.5451,1.5877,1.6221,1.6346,1.6466,1.6518,1.6521,0.0,0.0,0.0,0.0,0.0,0.0,1.7746,1.8045,1.8136,1.815,1.8049,1.8384,1.8244,1.7682,1.7906,1.7863,1.7565,1.7921,1.7865,1.7491,0.0,0.0,0.0,0.0,1.8483,2.069,2.0952,2.2062,2.4239,2.5172,2.5423,2.504,2.4703,2.4245,2.3864,2.3785,2.3562,2.3197,2.3251,0.0,0.0,0.0,0.0,0.0,0.0,0.0,0.0,0.0,0.0,0.0,0.0,0.0,0.0,0.0,0.0,0.0,0.0,0.0,2.0565,1.9072,1.8342,0.0,0.0,0.0,0.0,0.0,0.0,0.0,0.0,0.0,1.7201,1.7092,1.7008,0.0,0.0,1.7394,1.7467,1.7479,1.7599,1.7937,1.7925,0.0,1.8348,1.7929,1.6825,1.4836,1.2368,1.0772,1.0853,1.088,1.0975,1.1335,1.1396,1.1409,1.1335,0.9358,0.777,0.7525,0.5164,0.3111,0.3035,0.2756,0.2472,1.2035,1.2606,1.3858,1.4558,1.4952,1.6089,1.6604,1.6623,1.6919,1.6988,1.6903,1.6975,1.7084,1.7303,1.7661,0.0,0.0,0.0,1.8593,1.8897,1.9306,1.9438,1.9333,1.9569,1.9377,1.8823,1.8907,1.8711,1.8261,1.814,1.7982,1.7817,0.0,0.0,1.8639,1.8361,1.895,2.0456,2.1357,2.244,2.3773,2.4826,2.523,2.4801,2.4388,2.4039,2.3753,2.38,2.3657,2.3244,2.3562,2.353,0.0,0.0,0.0,0.0,0.0,0.0,0.0,0.0,0.0,0.0,0.0,2.0302,2.0576,0.0,0.0,0.0,1.9361,1.945,1.945,1.8185,0.0,0.0,0.0,0.0,0.0,0.0,0.0,1.7503,1.7151,1.6972,1.7286,1.7286,1.7249,1.7249,1.7382,1.7479,1.7479,0.0,1.7732,1.7998,1.8131,1.8287,1.8565,1.8282,1.7094,1.4254,1.2088,1.0772,1.0853,1.0989,1.1118,1.1328,1.1443,1.1531,1.1674,0.9179,0.7011,0.7009,0.4584,0.2583,0.2478,0.2504,0.2537,1.1463,1.1489,1.4549,1.5086,1.4199,1.6552,1.6915,1.5889,1.6958,1.7346,1.7227,1.7558,1.7708,1.7685,1.8087,0.0,1.8722,1.8988,1.9531,2.0315,2.0593,2.0859,2.1088,2.1088,2.0834,2.0327,2.0026,1.9627,1.9145,1.8284,1.8027,1.836,1.9257,1.9231,1.8435,1.941,1.9549,1.8749,2.1266,2.2624,2.2787,2.4284,2.504,2.496,2.4023,2.3642,2.3954,2.3657,2.3425,2.3409,2.3816,2.3705,2.307,0.0,0.0,0.0,0.0,0.0,0.0,0.0,0.0,0.0,0.0,0.0,0.0,0.0,0.0,1.837,1.7569,0.0,1.7305,1.7252,0.0,0.0,0.0,1.7529,1.8188,1.7139,1.6654,1.7438,0.0,0.0,1.7117,1.7334,1.7479,1.7479,1.7479,1.7479,1.7479,1.7696,1.7974,1.8239,1.8505,1.877,1.8963,1.7795,1.5978,1.3643,1.171,1.0799,1.088,1.109,1.1233,1.1389,1.1525,1.1647,1.1789,0.9216,0.7007,0.7031,0.4613,0.2474,0.251,0.2557,0.2602,1.1674,1.164,1.3571,1.4045,1.3638,1.5537,1.6536,1.6931,1.8319,1.8694,1.8317,1.8194,1.8137,1.8137,1.8262,1.8553,1.9051,1.9253,1.9808,2.0581,2.1064,2.1317,2.1378,2.1378,2.1209,2.0847,2.0207,1.982,1.9676,1.9076,1.8824,1.8891,1.9132,1.8937,1.8312,1.8802,1.8937,1.8686,2.1015,2.2841,2.4085,2.4495,2.4452,2.3927,2.3419,2.3054,2.2863,2.3038,2.3006,2.2768,2.3324,2.3467,2.3038,2.3085,0.0,0.0,0.0,0.0,0.0,0.0,0.0,0.0,0.0,1.9112,1.974,0.0,1.9101,0.0,1.6723,1.6736,1.8003,1.7569,0.0,0.0,1.7726,1.7768,1.6921,1.6914,1.708,1.7234,1.6952,1.6948,1.7346,1.7443,1.7479,1.7479,1.7479,1.7479,1.7491,1.7708,1.7974,1.8251,1.8529,1.877,1.8884,1.699,1.5229,1.452,1.2465,1.0941,1.1084,1.1233,1.1382,1.1531,1.1592,1.1633,1.1674,0.9159,0.7248,0.6888,0.4613,0.2458,0.2532,0.2578,0.2611,1.1748,1.1763,1.3246,1.3766,1.3727,1.5993,1.7299,1.7887,1.9385,1.9772,1.9362,1.8988,1.8746,1.8638,1.8638,1.8927,1.9434,1.9778,2.0195,2.0917,2.1281,2.1474,2.1474,2.1354,2.1209,2.111,2.0376,2.0002,1.9869,1.9458,1.9257,1.9072,1.9136,1.8927,1.8662,1.8782,1.9108,1.955,2.1204,2.2769,2.407,2.4319,2.415,2.3785,2.3276,2.2927,2.2736,2.3054,2.3085,2.2768,2.3387,2.353,2.3054,2.3165,2.3124,0.0,0.0,0.0,0.0,0.0,0.0,0.0,0.0,0.0,0.0,0.0,1.8356,1.7779,1.663,1.6418,1.7726,1.7107,1.663,1.6617,1.7001,1.7,1.6199,1.6621,1.6967,1.692,1.6996,1.7153,1.7443,1.7479,1.7479,1.7491,1.7587,1.766,1.7743,1.7889,1.8155,1.8432,1.8686,1.8903,1.9124,1.6732,1.4941,1.4762,1.2685,1.0927,1.1138,1.1287,1.1416,1.1497,1.1572,1.164,1.1556,0.9123,0.7071,0.6736,0.4649,0.2705,0.2544,0.2593,0.2628,1.1748,1.1691,1.3031,1.3603,1.3808,1.6644,1.804,1.8428,1.9946,2.04,2.0098,1.9627,1.9289,1.9136,1.9136,1.935,1.9845,2.0098,2.0496,2.1038,2.1281,2.1426,2.1414,2.1244,2.1052,2.111,2.0496,2.011,1.9881,1.9579,1.9366,1.9148,1.9136,1.9136,1.9264,1.9136,1.9584,2.0576,2.1601,2.2591,2.3544,2.3836,2.3952,2.3842,2.3184,2.2821,2.2789,2.313,2.3203,2.299,2.3578,2.3642,2.3054,2.3194,2.3111,0.0,2.2521,0.0,0.0,0.0,0.0,0.0,0.0,0.0,0.0,1.7172,1.7397,1.8213,1.6776,1.6205,1.6988,1.6365,1.5885,1.5885,1.5885,1.591,1.5994,1.638,1.6694,1.6791,1.7177,1.7443,1.7479,1.7479,1.755,1.7551,1.772,1.7889,1.7998,1.8191,1.842,1.8662,1.8903,1.9124,1.894,1.6785,1.5026,1.4863,1.2819,1.1118,1.1179,1.1328,1.1423,1.1443,1.1565,1.1687,1.1736,0.9181,0.7186,0.7205,0.4706,0.2571,0.2548,0.26,0.2558,1.1748,1.1619,1.19,1.2043,1.2187,1.3951,1.6046,1.8157,1.9502,1.976,1.9301,1.9193,1.912,1.9072,1.9136,1.9318,1.9621,1.9833,2.0134,2.0436,2.0989,2.1136,2.1136,2.1088,2.1052,2.1074,2.0315,1.9929,1.9881,1.9386,1.912,1.9072,1.9136,1.952,2.0259,0.0,0.0,0.0,2.1601,2.2491,2.3154,2.3263,2.3066,2.2594,2.207,0.0,2.1496,2.2252,2.2656,2.2609,2.299,0.0,0.0,0.0,0.0,0.0,0.0,0.0,0.0,0.0,0.0,0.0,1.8013,1.7961,1.7783,1.6976,1.6763,1.7331,1.6524,1.5951,1.6099,1.5992,1.5885,1.5885,1.5885,1.6054,1.6477,1.6441,1.6598,1.7261,1.7237,1.7249,1.7443,1.7479,1.7563,1.7744,1.7841,1.8058,1.8469,1.8553,1.8625,1.8698,1.8939,1.9157,1.9427,1.6997,1.5281,1.5008,1.3149,1.1517,1.1369,1.1484,1.1579,1.1586,1.1694,1.1796,1.1763,0.9319,0.7201,0.7297,0.4691,0.2517,0.2633,0.2586,0.2617,1.1748,0.0,1.2395,1.2753,0.0,1.5053,1.6688,1.8024,1.8676,1.9084,1.9277,1.9265,1.9193,1.9136,1.9136,1.9217,1.9536,1.9615,1.982,2.0098,2.0352,2.0614,2.0678,2.0678,2.0738,2.0847,2.0327,2.0014,1.9869,1.947,1.9205,1.9136,1.9136,1.9392,1.9826,1.9328,1.9328,1.9826,2.0843,2.1519,2.1852,2.2062,2.1987,2.1669,2.1206,0.0,0.0,0.0,0.0,0.0,0.0,0.0,0.0,0.0,0.0,2.1574,2.1117,2.0415,1.9405,1.9595,1.9174,1.7812,1.7697,1.7535,1.7122,1.663,1.638,1.6549,1.6152,1.5885,1.5885,1.5885,1.5885,1.5885,1.6006,1.6199,1.6453,1.661,1.6839,1.7201,1.7286,1.7346,1.7467,1.7612,1.772,1.7925,1.8118,1.836,1.8613,1.8686,1.8758,1.9012,1.9233,1.9362,1.9472,1.7984,1.6155,1.5615,1.4036,1.2543,1.1846,1.1782,1.1837,1.1843,1.1904,1.1979,1.191,0.9476,0.7277,0.7197,0.4865,0.2647,0.2596,0.2615,0.2628,1.1728,1.1691,1.2968,1.3508,1.3681,1.6173,1.7433,1.7916,0.0,0.0,0.0,1.9398,1.9277,1.9072,1.9136,1.9193,1.9398,1.9463,1.9519,1.9748,1.9784,1.9929,2.0134,2.025,2.0315,2.0509,2.0267,2.0026,1.9808,1.9531,1.9265,1.9036,1.9048,1.9136,1.9136,1.9136,1.9136,1.9136,2.0068,2.055,2.0561,2.0842,2.0967,2.087,2.0386,2.0428,2.1102,2.1288,2.1402,2.1331,2.1388,2.1388,2.1345,2.0711,2.0592,2.1119,2.0681,1.9902,1.8797,1.8849,1.8473,1.7596,1.7479,1.7177,1.6477,1.638,1.6247,1.5982,1.5922,1.5885,1.5885,1.5885,1.591,1.5958,1.6151,1.6308,1.6441,1.6803,1.7092,1.7165,1.7358,1.7503,1.7563,1.7732,1.7925,1.8058,1.8384,1.8746,1.8807,1.8867,1.9063,1.9403,1.9483,1.9717,1.9728,1.8383,1.7248,1.6249,1.4719,1.3268,1.2466,1.2101,1.2115,1.2135,1.2142,1.225,1.2243,0.9735,0.7615,0.777,0.5047,0.2619,0.2646,0.2656,0.2656,1.164,1.1619,1.1835,1.1823,1.191,1.3418,1.5357,1.7376,1.8711,1.9214,1.9197,1.9132,1.9108,1.9136,1.9136,1.916,1.9132,1.9132,1.9157,1.9205,1.9422,1.9608,1.9657,1.9833,1.9965,1.9977,1.9712,1.9555,1.9495,1.9265,1.9,1.8794,1.8963,1.9136,1.9136,1.9136,1.9136,1.9136,2.0081,2.0459,2.0286,2.0319,2.0103,1.9701,1.9523,1.9351,1.9287,2.004,2.05,2.05,2.05,2.05,2.0443,1.9861,1.9509,1.9588,1.9569,1.9047,1.8103,1.8601,1.8473,1.7596,1.7479,1.7334,1.7008,1.6767,1.6525,1.6247,1.6042,1.5885,1.5885,1.591,1.6006,1.6199,1.6284,1.6477,1.6887,1.7044,1.7201,1.7394,1.7455,1.7587,1.7793,1.7937,1.8082,1.8444,1.8662,1.8843,1.9205,1.9427,1.9374,1.9483,1.9676,2.0014,2.023,1.8095,1.6883,1.6676,1.4464,1.2943,1.2429,1.2298,1.2332,1.242,1.244,1.2515,1.2599,1.0004,0.8093,0.7627,0.5023,0.2733,0.2677,0.2683,0.2684,1.1687,1.1691,1.2466,1.2851,1.2902,1.4865,1.6701,1.827,1.884,1.906,1.9072,1.9136,1.9136,1.9136,1.9136,1.9136,1.9136,1.9136,1.9136,1.9084,1.9257,1.9318,1.9342,1.9531,1.9717,1.9652,1.9688,1.9543,1.933,1.9132,1.8939,1.8722,1.8951,1.9136,1.9136,1.9136,1.9136,1.9136,1.9371,1.9487,1.9424,1.9123,1.8834,1.8596,1.8445,1.8542,1.8881,1.9287,1.9519,1.9519,1.9668,1.9748,1.9762,1.9279,1.9155,1.9486,1.9143,1.8666,1.7949,1.8037,1.7948,1.7537,1.7479,1.743,1.7322,1.7068,1.6803,1.6537,1.6392,1.6332,1.6332,1.6332,1.638,1.6489,1.6634,1.6827,1.7056,1.7237,1.7406,1.7636,1.7696,1.7805,1.807,1.8227,1.8372,1.8674,1.8891,1.9269,1.9458,1.9857,2.011,2.0134,2.0231,2.0533,2.0933,2.0221,1.8675,1.7356,1.6063,1.4546,1.3241,1.2651,1.2678,1.2732,1.2745,1.2813,1.2935,1.0174,0.8298,0.7549,0.5083,0.3013,0.269,0.2692,0.2692,1.1932,1.2259,1.3031,1.3697,1.4429,1.6634,1.8104,1.9072,1.8867,1.8855,1.8976,1.8927,1.8903,1.8903,1.8963,1.8988,1.9,1.9048,1.9136,1.9136,1.9136,1.9136,1.9096,1.9289,1.9439,1.9463,1.9603,1.9483,1.9108,1.9136,1.8976,1.8807,1.8915,1.9012,1.9136,1.9136,1.9136,1.906,1.8819,1.865,1.8589,1.8179,1.7913,1.784,1.7587,1.783,1.8532,1.859,1.859,1.8603,1.8847,1.9001,1.8967,1.8816,1.8963,1.9394,1.8989,1.8481,1.801,1.772,1.7575,1.7563,1.7574,1.7479,1.7467,1.7298,1.7068,1.6827,1.6718,1.6682,1.667,1.6682,1.6718,1.6779,1.696,1.7105,1.7189,1.7406,1.7636,1.7841,1.7925,1.8082,1.8336,1.8553,1.8722,1.8903,1.9265,1.9567,1.9839,2.0315,2.0678,2.0967,2.0979,2.1136,2.1583,2.142,2.0153,1.7722,1.7157,1.5681,1.3829,1.2996,1.3111,1.3037,1.3017,1.3057,1.2935,1.0333,0.8301,0.7694,0.5117,0.2775,0.2691,0.2692,0.2692,1.2409,1.3389,1.2531,1.3138,1.5369,1.6819,1.8089,1.902,1.9048,1.8915,1.8722,1.8469,1.8372,1.8396,1.8625,1.8722,1.8734,1.8963,1.906,1.9048,1.9136,1.9136,1.906,1.9096,1.9108,1.9185,1.9157,1.9157,1.906,1.906,1.906,1.9012,1.8831,1.8843,1.9036,1.906,1.9136,1.906,1.8819,1.8565,1.8348,1.8287,1.8022,1.7527,1.7503,1.7537,1.7655,1.7655,1.7596,1.7679,1.7911,1.8057,1.8106,1.8458,1.8736,1.8837,1.8736,1.8553,1.8275,1.7998,1.7841,1.7817,1.7636,1.7503,1.7491,1.7467,1.7334,1.7092,1.6839,1.6742,1.6706,1.673,1.6839,1.7032,1.7092,1.7189,1.743,1.7684,1.7913,1.7925,1.8118,1.8348,1.8589,1.871,1.8915,1.9362,1.9742,2.0038,2.048,2.0759,2.1112,2.1764,2.1921,2.197,2.2088,2.1098,2.0013,1.829,1.6845,1.5441,1.3958,1.3159,1.3186,1.3247,1.3227,1.3214,1.2636,1.0538,0.8123,0.7558,0.5384,0.2695,0.2692,0.2692,0.2692,1.4106,1.4982,1.5253,1.6333,1.7763,1.8444,1.8794,1.9072,1.8915,1.8782,1.8638,1.8239,1.8131,1.83,1.8408,1.8456,1.8456,1.8565,1.8613,1.8613,1.8613,1.8698,1.8831,1.8843,1.8915,1.9136,1.9136,1.9,1.8867,1.8906,1.8843,1.8855,1.8879,1.8903,1.8855,1.8843,1.877,1.8613,1.8662,1.8481,1.8094,1.8046,1.7865,1.7527,1.7479,1.7479,1.7479,1.7479,1.7479,1.7503,1.7732,1.801,1.8118,1.8481,1.8758,1.8891,1.877,1.8638,1.8529,1.8275,1.8118,1.8118,1.8022,1.7901,1.7732,1.7768,1.7599,1.7358,1.7225,1.7165,1.7153,1.7165,1.7213,1.7298,1.7322,1.743,1.7684,1.7864,1.7974,1.8287,1.8456,1.8625,1.8867,1.9048,1.9362,1.9845,2.025,2.0521,2.0929,2.1365,2.1837,2.2186,2.2536,2.2754,2.2766,2.2484,2.0922,1.8907,1.7799,1.6709,1.4034,1.3308,1.3336,1.3397,1.3432,1.3411,1.3376,1.0618,0.8041,0.7282,0.5341,0.272,0.272,0.2705,0.2695,1.5034,1.5832,1.7539,1.8452,1.887,1.9328,1.9378,1.9072,1.8867,1.8758,1.8638,1.8263,1.8155,1.8263,1.8215,1.8179,1.8191,1.8251,1.83,1.83,1.83,1.8432,1.8662,1.8686,1.8819,1.9036,1.9136,1.8976,1.8807,1.8794,1.8794,1.8819,1.8915,1.8879,1.8698,1.8625,1.8493,1.8336,1.8493,1.8348,1.7998,1.7937,1.7804,1.7515,1.7479,1.7479,1.7479,1.7479,1.7479,1.7491,1.7805,1.8082,1.8287,1.8601,1.8879,1.9036,1.8903,1.8794,1.8845,1.8553,1.8408,1.8396,1.8348,1.8215,1.8046,1.7986,1.7865,1.7624,1.7587,1.7563,1.7491,1.7479,1.7479,1.7479,1.7527,1.7672,1.7841,1.7974,1.8263,1.8613,1.8734,1.8891,1.9245,1.9596,2.0044,2.0315,2.0807,2.1159,2.1462,2.1945,2.2392,2.2573,2.3104,2.3297,2.3212,2.3279,2.1919,1.9634,1.8379,1.722,1.4217,1.3562,1.361,1.3714,1.3624,1.3248,1.281,1.0493,0.7537,0.6423,0.4631,0.2746,0.2735,0.2717,0.2703,1.4354,1.5759,1.7857,1.8161,1.7467,1.8846,1.9314,1.9136,1.9048,1.8979,1.8722,1.8638,1.8505,1.8287,1.8058,1.7901,1.7937,1.8167,1.8275,1.8263,1.8275,1.8432,1.8674,1.8686,1.8819,1.906,1.9136,1.906,1.9036,1.9048,1.906,1.9036,1.8831,1.8698,1.8638,1.842,1.83,1.8251,1.8287,1.8155,1.7901,1.7925,1.7744,1.7515,1.7479,1.7479,1.7479,1.7479,1.7479,1.7479,1.795,1.8251,1.8324,1.8758,1.9036,1.9048,1.906,1.9048,1.9012,1.8807,1.8674,1.865,1.8481,1.83,1.8287,1.8275,1.8155,1.7949,1.7841,1.7792,1.7551,1.7491,1.7503,1.7527,1.7708,1.7901,1.7901,1.8324,1.8613,1.8734,1.8927,1.9205,1.9524,2.0202,2.0589,2.0822,2.1341,2.1946,2.2138,2.2527,2.2814,2.3176,2.3315,2.3375,2.3375,2.319,2.1881,1.9735,1.8109,1.7428,1.5208,1.3493,1.3825,1.4062,1.4182,1.3661,1.2399,1.0204,0.7277,0.5467,0.4168,0.3036,0.3109,0.283,0.2812,1.6128,1.6732,1.739,1.7663,1.7781,1.83,1.877,1.9072,1.9136,1.9024,1.8915,1.8758,1.8625,1.8529,1.8263,1.8046,1.7949,1.7986,1.8022,1.8022,1.8022,1.8263,1.8662,1.8686,1.8819,1.9036,1.9136,1.9136,1.9136,1.9136,1.9136,1.9024,1.8819,1.8613,1.842,1.8167,1.795,1.7817,1.7937,1.7889,1.7672,1.7781,1.7744,1.7503,1.7479,1.7479,1.7479,1.7479,1.7479,1.7479,1.7672,1.7853,1.8058,1.8529,1.8831,1.8843,1.8976,1.9136,1.906,1.8988,1.8927,1.8927,1.8855,1.8698,1.8577,1.8541,1.8432,1.8191,1.7962,1.7817,1.7732,1.7587,1.7551,1.7708,1.7817,1.8022,1.8324,1.8577,1.8746,1.8927,1.9169,1.9543,2.0098,2.0565,2.0931,2.1571,2.1945,2.2295,2.2681,2.2983,2.3237,2.3418,2.3519,2.3628,2.3628,2.2613,2.1313,1.9489,1.7891,1.6585,1.471,1.4484,1.4747,1.482,1.492,1.3752,1.2217,0.9288,0.6498,0.4951,0.3626,0.3508,0.3758,0.3377,0.3262,1.6563,1.6815,1.672,1.7066,1.7647,1.7647,1.7969,1.8431,1.8623,1.8752,1.8716,1.8816,1.8819,1.8782,1.8625,1.8396,1.8143,1.8058,1.801,1.801,1.801,1.8251,1.8625,1.8686,1.8831,1.9036,1.9136,1.9136,1.9136,1.9136,1.9136,1.906,1.8746,1.8469,1.8263,1.7937,1.7648,1.7551,1.766,1.766,1.7527,1.766,1.7672,1.7515,1.7479,1.7479,1.7479,1.7479,1.7479,1.7491,1.7563,1.7732,1.8022,1.8432,1.8686,1.871,1.8927,1.9136,1.9136,1.9136,1.9136,1.9136,1.9072,1.8988,1.8831,1.8819,1.8686,1.8444,1.8263,1.8118,1.7998,1.7853,1.7781,1.7901,1.8022,1.8079,1.805,1.8104,1.8215,1.8483,1.8823,1.9581,2.0608,2.1016,2.1547,2.2307,2.2512,2.2826,2.3116,2.3393,2.3495,2.3599,2.3896,2.4097,2.3767,2.2692,2.1285,1.9512,1.7969,1.6457,1.5478,1.5421,1.5526,1.5587,1.4757,1.3465,1.1297,0.8429,0.643,0.4769,0.4204,0.3989,0.4052,0.3931,0.3814,1.5281,1.5701,1.5948,1.6333,1.6904,1.699,1.7001,1.726,1.7776,1.8033,1.8098,1.8664,1.8908,1.9048,1.8988,1.8891,1.865,1.8432,1.8324,1.83,1.8287,1.8432,1.871,1.8722,1.8843,1.906,1.906,1.906,1.9036,1.9012,1.9,1.8939,1.8517,1.8275,1.8275,1.7781,1.7503,1.7491,1.7515,1.7503,1.7479,1.7503,1.7515,1.7479,1.7479,1.7479,1.7479,1.7479,1.7479,1.7515,1.7755,1.7986,1.8203,1.8493,1.8674,1.8722,1.8927,1.9124,1.9136,1.9136,1.9136,1.9136,1.9136,1.906,1.9036,1.9036,1.8939,1.8734,1.8638,1.8553,1.8336,1.8263,1.8179,1.7998,1.8201,1.7839,1.7122,1.685,1.7087,1.741,1.8064,1.9156,2.0639,2.1643,2.2211,2.2645,2.3043,2.3333,2.3533,2.3763,2.3828,2.3981,2.451,2.4988,2.3962,2.268,2.1242,1.9673,1.8304,1.6982,1.6113,1.5897,1.6202,1.6191,1.4271,1.2865,1.0196,0.7523,0.6166,0.4821,0.46,0.4572,0.4542,0.4511,0.4301,1.4728,1.4755,1.4958,1.5431,1.6093,1.6227,1.6558,1.7001,1.726,1.7324,1.7453,1.8033,1.8366,1.8495,1.8816,1.9036,1.8951,1.8855,1.8734,1.8589,1.8565,1.8698,1.8903,1.8951,1.8988,1.9036,1.8891,1.8807,1.8782,1.8638,1.8541,1.8469,1.8191,1.801,1.7998,1.7672,1.7479,1.7479,1.7479,1.7479,1.7479,1.7479,1.7479,1.7479,1.7479,1.7479,1.7479,1.7479,1.7479,1.7479,1.7563,1.7732,1.7998,1.8263,1.8493,1.8686,1.8927,1.9136,1.9136,1.9136,1.9136,1.9136,1.9136,1.9136,1.9136,1.9136,1.9036,1.8927,1.8794,1.8638,1.8589,1.8565,1.8517,1.8444,1.7753,1.7229,1.6615,1.6045,1.6008,1.653,1.7576,1.8834,2.0112,2.1314,2.2397,2.308,2.3369,2.3581,2.4038,2.4338,2.4752,2.5032,2.5533,2.5848,2.5175,2.3833,2.2086,2.0409,1.8918,1.7617,1.68,1.6468,1.6868,1.5784,1.3919,1.1668,0.9036,0.7194,0.5897,0.5432,0.5406,0.5371,0.5334,0.5117,0.4905,1.4468,1.4232,1.4421,1.4754,1.5278,1.5416,1.5774,1.6213,1.6558,1.6623,1.6753,1.7324,1.7647,1.7776,1.8355,1.8688,1.8688,1.8944,1.8988,1.8855,1.8831,1.8991,1.906,1.9136,1.9012,1.8939,1.8867,1.877,1.8674,1.8529,1.8444,1.8396,1.8058,1.7937,1.7841,1.7624,1.7479,1.7479,1.7479,1.7479,1.7479,1.7479,1.7479,1.7479,1.7479,1.7479,1.7479,1.7479,1.7479,1.7479,1.7479,1.7612,1.7865,1.8143,1.8408,1.8674,1.8915,1.9136,1.9136,1.9136,1.9136,1.9136,1.9136,1.9136,1.9136,1.9136,1.9136,1.9036,1.8939,1.8831,1.8831,1.8831,1.8641,1.8111,1.7337,1.6412,1.5718,1.4464,1.4362,1.5097,1.6271,1.7836,1.9661,2.0856,2.2283,2.3139,2.3678,2.3934,2.4579,2.4938,2.5344,2.5911,2.639,2.6574,2.6694,2.516,2.3018,2.1225,1.9505,1.8241,1.7174,1.7155,1.7357,1.4954,1.2876,1.0742,0.8248,0.6997,0.5771,0.5951,0.5943,0.5802,0.5574,0.5566,0.5356,1.4374,1.4033,1.4213,1.4402,1.4626,1.4629,1.4807,1.5024,1.5649,1.5909,1.6039,1.6613,1.6936,1.7066,1.7647,1.7969,1.8098,1.8564,1.8844,1.8896,1.9012,1.9012,1.9124,1.9136,1.8976,1.8831,1.8927,1.8954,1.8698,1.8613,1.8662,1.8553,1.8155,1.7973,1.7889,1.7648,1.7539,1.7551,1.7503,1.7479,1.7479,1.7479,1.7479,1.7479,1.7479,1.7479,1.7479,1.7479,1.7479,1.7479,1.7479,1.7612,1.7949,1.8155,1.8408,1.871,1.8951,1.9048,1.9136,1.9136,1.9136,1.9136,1.9136,1.9136,1.9136,1.9136,1.9136,1.9136,1.9048,1.9112,1.9048,1.8844,1.8139,1.7001,1.6343,1.5325,1.3293,1.2293,1.2637,1.3682,1.4588,1.6171,1.9465,2.0487,2.1908,2.3401,2.424,2.4709,2.5032,2.5557,2.5962,2.6485,2.698,2.6803,2.6685,2.4217,2.226,2.137,1.9717,1.8499,1.7644,1.77,1.7195,1.4673,1.2289,1.005,0.8153,0.6974,0.6204,0.6014,0.5989,0.5946,0.5831,0.5821,0.571,1.4147,1.3807,1.4005,1.4118,1.4222,1.4487,1.4593,1.4733,1.507,1.5257,1.5388,1.5974,1.6224,1.6353,1.6936,1.726,1.7345,1.7776,1.8128,1.8308,1.8665,1.8915,1.91,1.9136,1.9036,1.8951,1.8855,1.8746,1.8674,1.8517,1.8432,1.8396,1.8263,1.8167,1.8143,1.7901,1.7781,1.7744,1.7575,1.7503,1.7503,1.7503,1.7479,1.7479,1.7479,1.7479,1.7479,1.7479,1.7479,1.7479,1.7479,1.7708,1.8118,1.8263,1.8505,1.8879,1.9012,1.9136,1.9136,1.9136,1.9136,1.9136,1.9136,1.9136,1.9136,1.9136,1.9136,1.9136,1.9136,1.9072,1.8944,1.8098,1.66,1.4497,1.4259,1.3553,1.2216,1.1684,1.1946,1.2731,1.4006,1.6052,1.8229,2.0316,2.1964,2.3736,2.4826,2.5486,2.5826,2.6298,2.6773,2.698,2.7209,2.6897,2.5884,2.3348,2.1693,2.1172,1.9876,1.8492,1.8054,1.807,1.6979,1.5147,1.2999,1.0749,0.894,0.7396,0.6828,0.6258,0.6052,0.6019,0.5997,0.5888,0.5864,1.4062,1.3703,1.3825,1.3977,1.4156,1.4392,1.4591,1.4761,1.4874,1.4866,1.4996,1.5323,1.5518,1.5574,1.6206,1.6476,1.6509,1.6866,1.7204,1.7532,1.8105,1.8633,1.8984,1.9136,1.9024,1.8915,1.8879,1.8794,1.8686,1.8529,1.8469,1.8444,1.8348,1.83,1.8275,1.8155,1.8058,1.8034,1.7901,1.7817,1.7817,1.7708,1.7648,1.7612,1.7551,1.7479,1.7479,1.7479,1.7479,1.7503,1.7599,1.7841,1.8239,1.8408,1.865,1.9112,1.9136,1.9136,1.9136,1.9136,1.9136,1.9136,1.9136,1.9136,1.9136,1.9136,1.9136,1.9136,1.9136,1.8804,1.798,1.647,1.4743,1.3386,1.2595,1.2069,1.1405,1.1633,1.1959,1.2526,1.3416,1.4987,1.7306,1.9403,2.1534,2.3513,2.5144,2.5903,2.6518,2.7158,2.748,2.7431,2.6872,2.6327,2.5025,2.2708,2.1248,2.0659,1.9767,1.8302,1.8225,1.8123,1.7055,1.5556,1.3511,1.1826,1.0384,0.8766,0.7347,0.6773,0.6487,0.6185,0.6057,0.6036,0.6011,1.4109,1.3759,1.3759,1.3958,1.4241,1.4307,1.4506,1.4808,1.48,1.4838,1.4922,1.4903,1.4939,1.4893,1.5381,1.5546,1.56,1.6003,1.6431,1.6888,1.7468,1.8162,1.8612,1.9008,1.8976,1.8855,1.8988,1.8927,1.8807,1.8734,1.8722,1.8686,1.8517,1.8408,1.8444,1.8372,1.8336,1.8324,1.8239,1.8191,1.8167,1.8022,1.7925,1.7889,1.7672,1.7539,1.7503,1.7479,1.7479,1.7479,1.7732,1.7986,1.8275,1.8529,1.8794,1.9,1.9136,1.9136,1.9136,1.9136,1.9136,1.9136,1.9136,1.9136,1.9136,1.9136,1.9136,1.9136,1.9136,1.8355,1.6818,1.4668,1.347,1.2751,1.1898,1.1578,1.1667,1.1911,1.2196,1.2565,1.2951,1.4135,1.6218,1.8419,2.0745,2.3517,2.5256,2.6726,2.7306,2.783,2.7727,2.7433,2.6552,2.553,2.3972,2.2106,2.1047,2.0259,1.9278,1.8282,1.8314,1.8016,1.7288,1.5953,1.4568,1.3542,1.2589,1.0882,0.8531,0.7479,0.7183,0.6591,0.6096,0.6079,0.6057,1.4411,1.4175,1.4175,1.4137,1.4109,1.4241,1.4364,1.4468,1.4629,1.477,1.4865,1.4706,1.464,1.4685,1.4667,1.4635,1.4741,1.5185,1.5658,1.6409,1.6957,1.7238,1.7711,1.8495,1.8972,1.8936,1.9036,1.9036,1.8988,1.8963,1.8988,1.8951,1.8891,1.8903,1.8855,1.8674,1.8601,1.8565,1.842,1.8348,1.8336,1.8263,1.8191,1.8155,1.7913,1.7684,1.7515,1.7479,1.7479,1.7539,1.7744,1.8034,1.8287,1.8553,1.8819,1.9,1.9136,1.9136,1.9136,1.9136,1.9136,1.9136,1.9136,1.9136,1.9136,1.9136,1.9136,1.9136,1.9072,1.8033,1.5994,1.5092,1.3873,1.2551,1.1922,1.1837,1.1958,1.2196,1.2498,1.3049,1.3509,1.4527,1.7013,1.9246,2.1437,2.3526,2.5591,2.7491,2.8132,2.8412,2.8078,2.7574,2.6479,2.5207,2.3146,2.1436,2.022,1.9721,1.8919,1.8539,1.8485,1.8412,1.7789,1.6974,1.609,1.5174,1.4387,1.1347,0.8699,0.8292,0.789,0.6818,0.6134,0.6117,0.6109,1.4125,1.4066,1.4057,1.4126,1.4175,1.427,1.4317,1.4336,1.4421,1.4534,1.46,1.4452,1.4487,1.4468,1.427,1.4175,1.4247,1.4485,1.5062,1.5763,1.6317,1.6732,1.7066,1.7647,1.8109,1.8162,1.8431,1.8559,1.8688,1.8944,1.9124,1.9136,1.9072,1.9036,1.9136,1.8927,1.8879,1.8855,1.8746,1.8662,1.865,1.8529,1.8396,1.8263,1.8034,1.7793,1.7684,1.7539,1.7622,1.7755,1.7925,1.8131,1.8324,1.865,1.8927,1.9036,1.9136,1.9136,1.9136,1.9136,1.9136,1.9136,1.9136,1.9136,1.9136,1.9136,1.9136,1.9136,1.8956,1.8197,1.6302,1.5433,1.4417,1.3949,1.3568,1.4018,1.4195,1.3462,1.2853,1.3548,1.4039,1.4968,1.6926,1.982,2.1483,2.3291,2.6436,2.8252,2.8412,2.8618,2.8225,2.7535,2.642,2.4833,2.2566,2.0751,1.9202,1.89,1.8794,1.8639,1.8753,1.8631,1.8398,1.7622,1.6957,1.681,1.5719,1.2347,1.0122,1.0008,0.9305,0.7346,0.6172,0.6161,0.6153,1.3733,1.3825,1.3834,1.3942,1.4166,1.4201,1.421,1.4301,1.4288,1.4326,1.4336,1.4307,1.427,1.4222,1.4052,1.3977,1.4062,1.4285,1.4745,1.5197,1.5653,1.6073,1.6418,1.6613,1.6678,1.6742,1.7453,1.784,1.8045,1.8495,1.8752,1.8944,1.9072,1.9072,1.9136,1.9136,1.9036,1.9088,1.9,1.9,1.9,1.8831,1.8638,1.8384,1.8131,1.7937,1.7864,1.7648,1.7599,1.7865,1.8143,1.8287,1.8469,1.877,1.9136,1.9136,1.9136,1.9136,1.9136,1.9136,1.9136,1.9136,1.9136,1.9136,1.9136,1.9136,1.9136,1.8968,1.8735,1.8128,1.7126,1.6096,1.5571,1.5529,1.6013,1.6899,1.7032,1.5319,1.4927,1.5185,1.6318,1.7356,1.8559,2.0716,2.179,2.3246,2.6509,2.8711,2.8845,2.8998,2.8686,2.8042,2.7092,2.4704,2.2327,2.0385,1.872,1.8598,1.868,1.8818,1.8972,1.8923,1.8809,1.8367,1.7893,1.7812,1.695,1.4426,1.2753,1.2239,1.0365,0.8008,0.6912,0.6304,0.6202,1.3879,1.3908,1.3908,1.3829,1.3724,1.3825,1.3979,1.4116,1.4098,1.427,1.4442,1.4222,1.409,1.4043,1.3844,1.3854,1.4062,1.4251,1.4484,1.4754,1.5077,1.5323,1.5453,1.5518,1.5388,1.5583,1.6418,1.7066,1.7324,1.7776,1.8226,1.8366,1.8752,1.9008,1.9072,1.9136,1.9136,1.9136,1.9136,1.9136,1.9048,1.9,1.8867,1.8613,1.836,1.8143,1.7901,1.7672,1.7599,1.7865,1.8143,1.8396,1.8625,1.8915,1.9048,1.9136,1.9136,1.9136,1.9136,1.9136,1.9136,1.9136,1.9136,1.9136,1.9136,1.9136,1.916,1.8899,1.8216,1.716,1.567,1.5895,1.5492,1.5441,1.6411,1.7554,1.8309,1.8577,1.86,1.9194,1.9733,1.9844,2.0769,2.1885,2.3257,2.4667,2.6967,2.8598,2.9045,2.9352,2.9548,2.8822,2.7935,2.509,2.2114,2.0135,1.855,1.8785,1.8899,1.8988,1.911,1.9175,1.9044,1.872,1.8616,1.8479,1.7337,1.5727,1.425,1.2847,1.0666,0.8394,0.7273,0.6264,0.6264,1.3424,1.363,1.3725,1.3721,1.3752,1.3784,1.3924,1.4071,1.3994,1.4157,1.4405,1.4317,1.4232,1.4251,1.4109,1.4081,1.4194,1.4383,1.4471,1.4612,1.4772,1.4866,1.4866,1.4866,1.4866,1.5062,1.5649,1.6159,1.6483,1.713,1.7582,1.8045,1.8431,1.8688,1.9008,1.9136,1.9072,1.9072,1.9136,1.9136,1.9136,1.9136,1.8988,1.8855,1.865,1.8432,1.8287,1.8046,1.8046,1.8263,1.842,1.8688,1.8831,1.8976,1.9136,1.9136,1.9136,1.9136,1.9136,1.9136,1.9136,1.9136,1.9136,1.9136,1.9136,1.9148,1.9197,1.9136,1.896,1.7918,1.6871,1.6983,1.6757,1.6444,1.7651,1.9221,2.0336,2.1498,2.2405,2.2875,2.2003,2.1755,2.215,2.338,2.4838,2.6302,2.7801,2.857,2.9118,2.9553,2.9913,2.9067,2.7995,2.5501,2.2532,2.0417,1.8792,1.8915,1.9061,1.9151,1.9191,1.9232,1.9232,1.9159,1.9069,1.8988,1.8262,1.6856,1.5157,1.326,1.1163,0.9062,0.7336,0.6327,0.6327,1.3021,1.3368,1.3478,1.3587,1.3633,1.3747,1.3884,1.4003,1.3916,1.4089,1.4519,1.4398,1.4424,1.4433,1.4402,1.4317,1.4383,1.4563,1.4574,1.4668,1.479,1.4866,1.4866,1.4866,1.4866,1.4931,1.4996,1.5192,1.5779,1.6483,1.7077,1.7389,1.7647,1.8162,1.8688,1.8752,1.888,1.9072,1.9136,1.9136,1.9136,1.9136,1.9136,1.9112,1.8831,1.8662,1.8589,1.836,1.8384,1.8541,1.8674,1.8845,1.9076,1.9136,1.9136,1.9136,1.9136,1.9136,1.9136,1.9136,1.9136,1.9136,1.9136,1.9136,1.9136,1.916,1.9233,1.9398,1.9017,1.8774,1.815,1.8535,1.8524,1.8763,1.9943,2.1695,2.269,2.378,2.4956,2.4919,2.388,2.3911,2.4453,2.5008,2.6528,2.6964,2.8299,2.8762,2.9339,2.9646,2.9671,2.8873,2.761,2.5555,2.3048,2.0813,1.9472,1.9045,1.9142,1.9216,1.924,1.9256,1.924,1.9224,1.9216,1.9068,1.854,1.7855,1.6022,1.4018,1.1749,0.9536,0.7399,0.6487,0.6387,1.3068,1.3151,1.3331,1.3298,1.3285,1.3545,1.3764,1.3891,1.3839,1.4027,1.4426,1.44,1.4364,1.4351,1.4383,1.444,1.4563,1.4574,1.4678,1.479,1.4847,1.4866,1.4866,1.4866,1.4866,1.4866,1.4866,1.4931,1.5257,1.5844,1.6169,1.6418,1.6936,1.7453,1.8098,1.8291,1.8483,1.8944,1.9072,1.9136,1.9136,1.9136,1.9136,1.9012,1.8867,1.8722,1.871,1.8529,1.8505,1.8674,1.871,1.8819,1.9024,1.9136,1.9136,1.9136,1.9136,1.9136,1.9136,1.9136,1.9136,1.9136,1.9136,1.9136,1.9108,1.9132,1.9229,1.9434,1.8593,1.8055,1.8272,1.8845,1.9625,2.042,2.123,2.3042,2.4405,2.483,2.6215,2.6773,2.5715,2.6434,2.7116,2.7545,2.7989,2.8294,2.8685,2.9078,2.9486,2.9806,3.0034,2.943,2.7934,2.5873,2.4041,2.1615,2.011,1.9363,1.9207,1.9264,1.9264,1.9264,1.9264,1.9248,1.9264,1.9264,1.896,1.8053,1.6559,1.4657,1.2358,0.9765,0.7157,0.6749,0.6436,1.3344,1.3262,1.3449,1.3482,1.3409,1.3546,1.3794,1.4001,1.3934,1.4144,1.4467,1.4455,1.4458,1.4512,1.4604,1.4649,1.4789,1.4725,1.4772,1.4847,1.4866,1.4866,1.4866,1.4866,1.4866,1.4866,1.4866,1.4866,1.5062,1.5192,1.5518,1.5974,1.6299,1.6742,1.7389,1.784,1.8162,1.8483,1.8816,1.9072,1.9136,1.9136,1.9136,1.9136,1.8951,1.8903,1.8855,1.8831,1.8782,1.8903,1.8903,1.8951,1.9048,1.9136,1.9136,1.9136,1.9136,1.9136,1.9136,1.9136,1.9136,1.9072,1.9084,1.9197,1.9241,1.9184,1.8959,1.8664,1.8158,1.7627,1.7025,1.7005,1.7135,1.8275,2.1094,2.2354,2.395,2.5701,2.6573,2.7134,2.7642,2.7909,2.8207,2.8203,2.8305,2.8665,2.8931,2.9198,2.9646,3.002,3.0194,3.021,2.8476,2.651,2.4748,2.2809,2.0676,1.9807,1.9224,1.9264,1.9264,1.9264,1.9264,1.9264,1.9264,1.9264,1.9256,1.8556,1.7459,1.5254,1.2957,1.0266,0.7663,0.6657,0.6344,1.3587,1.3514,1.3652,1.3685,1.3582,1.3623,1.3842,1.4106,1.398,1.4146,1.4388,1.4343,1.4437,1.4691,1.4744,1.4763,1.4856,1.4866,1.4866,1.4866,1.4866,1.4866,1.4866,1.4866,1.4866,1.4866,1.4866,1.4866,1.4866,1.4996,1.5257,1.5714,1.5649,1.6104,1.6678,1.713,1.7518,1.8098,1.8752,1.9072,1.9136,1.9136,1.9136,1.9136,1.9136,1.9136,1.9136,1.9048,1.906,1.9048,1.9048,1.9048,1.9136,1.9136,1.9136,1.9136,1.9136,1.9136,1.9136,1.9136,1.9136,1.902,1.8653,1.8381,1.8115,1.8436,1.8362,1.7506,1.742,1.6644,1.6148,1.6296,1.6946,1.8101,1.9716,2.0741,2.2202,2.4621,2.6573,2.7335,2.7776,2.803,2.8203,2.8257,2.8511,2.8911,2.9205,2.9446,2.9806,3.0221,3.0356,3.0398,2.7998,2.6314,2.5035,2.3324,2.1468,2.0038,1.9553,1.9264,1.9264,1.9264,1.9264,1.9264,1.9256,1.8556,1.8152,1.8251,1.8053,1.5155,1.2458,1.0362,0.8363,0.7254,0.6436,1.3734,1.3863,1.3872,1.379,1.366,1.3823,1.388,1.3926,1.3918,1.3932,1.4002,1.408,1.4409,1.4627,1.4715,1.48,1.4866,1.4866,1.4866,1.4866,1.4866,1.4866,1.4866,1.4866,1.4866,1.4866,1.4866,1.4866,1.4866,1.4866,1.4931,1.4996,1.5192,1.5518,1.5909,1.6353,1.7001,1.7776,1.8559,1.8944,1.9008,1.9072,1.9136,1.9136,1.9136,1.9136,1.9136,1.9136,1.9136,1.9136,1.9136,1.9136,1.9136,1.9136,1.9136,1.9197,1.9209,1.9221,1.9193,1.8964,1.8968,1.8694,1.8055,1.7013,1.655,1.5914,1.5784,1.6206,1.6141,1.6587,1.7071,1.8035,1.7284,1.8241,1.924,2.0744,2.2281,2.4328,2.6143,2.734,2.7561,2.7096,2.7761,2.768,2.8552,2.895,2.9526,2.9766,3.006,3.0434,3.0544,2.9881,2.7381,2.578,2.4992,2.3238,2.1103,2.0038,1.9355,1.9264,1.9264,1.9264,1.9264,1.9058,1.8861,1.7954,1.7048,1.6956,1.6155,1.4159,1.1958,0.9953,0.8231,0.6917,0.6398,1.3742,1.3904,1.3904,1.3863,1.3807,1.3872,1.3904,1.388,1.379,1.3682,1.3626,1.4517,1.475,1.4702,1.542,1.5313,1.4996,1.4866,1.4866,1.4866,1.4866,1.4866,1.4866,1.4866,1.4866,1.4866,1.4866,1.4866,1.4866,1.4866,1.4866,1.4866,1.4866,1.4996,1.5323,1.5844,1.6548,1.726,1.8033,1.8419,1.8495,1.8944,1.9136,1.9136,1.9136,1.9136,1.9136,1.9136,1.9136,1.9136,1.9136,1.9148,1.916,1.916,1.9181,1.9354,1.9378,1.9386,1.9209,1.8626,1.7664,1.6813,1.6238,1.5827,1.5303,1.5542,1.5246,1.5194,1.4881,1.5376,1.5287,1.554,1.5761,1.7386,1.8985,2.0541,2.1963,2.3704,2.4721,2.5432,2.5277,2.4932,2.5944,2.6959,2.8024,2.9062,2.9637,3.01,3.0354,3.0267,3.0173,2.9444,2.701,2.4886,2.4085,2.2466,2.062,1.9939,1.9264,1.9264,1.9264,1.9264,1.9256,1.896,1.8152,1.6949,1.6049,1.5552,1.4259,1.2258,1.0849,0.9536,0.8011,0.6586,0.6253,1.3693,1.3896,1.3904,1.3904,1.3904,1.3904,1.3872,1.3807,1.3701,1.3506,1.3415,1.4366,1.4609,1.4506,1.5072,1.5508,1.4931,1.4866,1.4866,1.4866,1.4866,1.4866,1.4866,1.4866,1.4866,1.4866,1.4866,1.4866,1.4866,1.4866,1.4866,1.4866,1.4866,1.4931,1.5062,1.5649,1.6234,1.6742,1.7324,1.784,1.8033,1.8431,1.8944,1.9008,1.9136,1.9136,1.9136,1.9136,1.9136,1.9136,1.9148,1.9185,1.9221,1.9229,1.9338,1.9483,1.9615,1.97,1.9362,1.8328,1.6547,1.5282,1.485,1.4648,1.464,1.4671,1.3962,1.3722,1.3662,1.3801,1.3734,1.4453,1.5058,1.6673,1.8372,1.9861,2.0527,2.1787,2.2583,2.3232,2.3593,2.4818,2.5898,2.7309,2.8283,2.9201,2.9837,3.0183,3.0358,3.0082,2.935,2.8377,2.6693,2.4733,2.2945,2.1397,2.0038,1.984,1.9264,1.9264,1.9264,1.9157,1.8556,1.7749,1.685,1.5645,1.4352,1.2957,1.1659,1.0262,0.9148,0.8235,0.7678,0.6357,0.5813,1.3595,1.3888,1.3904,1.3904,1.3896,1.3896,1.3807,1.3631,1.3566,1.3433,1.32,1.3269,1.3515,1.3901,1.4473,1.4735,1.4866,1.4866,1.4866,1.4866,1.4866,1.4866,1.4866,1.4866,1.4866,1.4866,1.4866,1.4866,1.4866,1.4866,1.4866,1.4866,1.4866,1.4866,1.4996,1.5583,1.5974,1.6104,1.6678,1.726,1.7647,1.798,1.8495,1.8816,1.9072,1.9072,1.9136,1.9136,1.9096,1.9145,1.9209,1.9306,1.9434,1.9458,1.9525,1.9566,1.9657,1.9692,1.9582,1.825,1.6148,1.4039,1.3536,1.3295,1.2388,1.2157,1.2624,1.2806,1.2852,1.3247,1.3756,1.4421,1.5035,1.5951,1.7731,1.8717,1.9288,1.9655,2.0495,2.0965,2.36,2.599,2.6799,2.7773,2.8655,2.9467,3.0026,3.0265,3.0083,2.9143,2.8009,2.6659,2.5228,2.3696,2.179,2.0423,1.9454,1.9256,1.9157,1.9058,1.8754,1.8457,1.7749,1.6545,1.5049,1.355,1.1754,0.9961,0.9148,0.8639,0.7644,0.6826,0.6476,0.6015,0.5364,1.3685,1.3904,1.3904,1.3904,1.388,1.3774,1.375,1.3766,1.3571,1.3319,1.3293,1.3756,1.3809,1.4006,1.4651,1.4922,1.4604,1.4866,1.4866,1.4866,1.4866,1.4866,1.4866,1.4866,1.4866,1.4866,1.4866,1.4866,1.4866,1.4866,1.4866,1.4866,1.4866,1.4866,1.4931,1.5192,1.5257,1.5388,1.5909,1.6494,1.6753,1.7453,1.8109,1.8431,1.884,1.9044,1.9132,1.9145,1.9205,1.9314,1.9403,1.947,1.9622,1.9603,1.9323,1.8902,1.8619,1.7686,1.6667,1.5239,1.4395,1.3092,1.2475,1.2336,1.2026,1.2182,1.2318,1.2461,1.2678,1.3237,1.3784,1.4453,1.5013,1.5672,1.6826,1.7264,1.7656,1.7914,1.8339,1.8558,2.0285,2.2433,2.3849,2.5822,2.7153,2.7505,2.7767,2.8483,2.8531,2.7166,2.5882,2.4539,2.3131,2.1879,2.062,1.975,1.9058,1.8754,1.8655,1.8556,1.8251,1.7353,1.595,1.4452,1.2852,1.1354,0.9957,0.865,0.7824,0.7018,0.6395,0.6065,0.601,0.5347,0.4506,1.3742,1.3896,1.3904,1.3904,1.3888,1.3782,1.3742,1.3669,1.3352,1.3116,1.3194,1.3853,1.394,1.3884,1.453,1.5173,1.4408,1.4735,1.4866,1.4866,1.4866,1.4866,1.4866,1.4866,1.4866,1.4866,1.4866,1.4866,1.4866,1.4866,1.4866,1.4866,1.4866,1.4866,1.4931,1.4931,1.4931,1.5127,1.5453,1.5844,1.6224,1.6818,1.7573,1.8083,1.8582,1.9006,1.9261,1.9374,1.9422,1.9555,1.9573,1.9471,1.9381,1.9082,1.8562,1.7734,1.7227,1.6287,1.5009,1.4431,1.3717,1.2349,1.1945,1.2013,1.2176,1.2366,1.2528,1.2698,1.2942,1.3341,1.3821,1.4487,1.5051,1.564,1.6245,1.6687,1.7037,1.7293,1.7654,1.7739,1.8624,2.0187,2.1498,2.3271,2.5246,2.5296,2.5261,2.6045,2.6633,2.5303,2.4105,2.2945,2.1692,2.062,2.0038,1.9553,1.8861,1.8251,1.7848,1.7353,1.6056,1.4956,1.3555,1.2358,1.1159,0.9957,0.875,0.764,0.6806,0.6156,0.5708,0.548,0.5544,0.461,0.3501,1.375,1.3888,1.3904,1.3904,1.3896,1.3847,1.366,1.3352,1.3035,1.2823,1.2856,1.2931,1.3104,1.3433,1.3818,1.4137,1.4399,1.4735,1.4866,1.4866,1.4866,1.4866,1.4866,1.4866,1.4866,1.4866,1.4866,1.4866,1.4866,1.4866,1.4866,1.4866,1.4866,1.4866,1.4866,1.4866,1.4866,1.4931,1.5062,1.5407,1.5839,1.6165,1.6999,1.7686,1.8356,1.8921,1.9345,1.9694,1.982,1.9802,1.9759,1.9038,1.847,1.7988,1.7166,1.6494,1.6205,1.5087,1.4309,1.3905,1.3589,1.2416,1.2216,1.2298,1.2427,1.2576,1.2739,1.2949,1.3173,1.3548,1.4012,1.4527,1.5052,1.5655,1.6267,1.6728,1.7065,1.7437,1.7754,1.8383,1.9616,2.0925,2.1944,2.3378,2.3144,2.3017,2.302,2.3136,2.3515,2.3207,2.2163,2.1977,2.0718,1.9553,1.9058,1.8457,1.7452,1.6354,1.595,1.5353,1.396,1.2563,1.1459,1.0458,0.9757,0.8554,0.695,0.6217,0.5779,0.523,0.4389,0.4641,0.4426,0.342,0.2248,1.3855,1.3904,1.3904,1.3904,1.3863,1.3628,1.3384,1.3181,1.3181,1.3157,1.3019,1.2889,1.2906,1.3038,1.3621,1.3949,1.4202,1.4539,1.48,1.4866,1.4866,1.4866,1.4866,1.4866,1.4866,1.4866,1.4866,1.4866,1.4866,1.4866,1.4866,1.4866,1.4866,1.4866,1.4866,1.4866,1.4875,1.4885,1.4894,1.5157,1.5563,1.5866,1.6604,1.7206,1.8072,1.8697,1.9168,1.9673,1.9867,2.0011,1.905,1.8306,1.8579,1.7491,1.6286,1.4877,1.404,1.3096,1.295,1.2996,1.2888,1.2731,1.2623,1.2644,1.2739,1.2748,1.2903,1.3159,1.3376,1.3686,1.3971,1.4358,1.4836,1.5345,1.6067,1.6592,1.7053,1.7504,1.7909,1.8527,1.9785,2.0115,2.1426,2.1298,2.0975,2.0845,2.072,2.0898,2.0907,2.0773,2.0299,2.0119,1.9528,1.835,1.7353,1.675,1.5453,1.4452,1.3954,1.3156,1.1559,1.0262,0.9364,0.8356,0.7151,0.6145,0.504,0.4406,0.4064,0.3233,0.2519,0.3071,0.3231,0.2155,0.1109,1.3904,1.3904,1.3904,1.3863,1.3766,1.3571,1.3344,1.3141,1.3141,1.3084,1.2986,1.2881,1.2766,1.2898,1.3424,1.3752,1.394,1.4408,1.4735,1.4866,1.4866,1.4866,1.4866,1.4866,1.4866,1.4866,1.4866,1.4866,1.4866,1.4866,1.4866,1.4866,1.4866,1.4866,1.4866,1.4875,1.4997,1.5035,1.5073,1.513,1.5414,1.5807,1.6165,1.679,1.7784,1.8235,1.8857,1.9481,1.9632,1.9692,1.8454,1.7631,1.7158,1.5485,1.4629,1.3372,1.304,1.2623,1.2622,1.2766,1.2718,1.2827,1.2869,1.2481,1.2494,1.2466,1.2902,1.3288,1.3526,1.3729,1.393,1.4219,1.4545,1.4963,1.5727,1.6416,1.701,1.7638,1.808,1.8615,1.8873,1.9101,1.9199,1.8963,1.9208,1.9675,1.9511,1.9101,1.9298,1.9413,1.873,1.8137,1.7741,1.7147,1.595,1.4651,1.3555,1.2458,1.1759,1.0758,0.9163,0.8058,0.7358,0.5947,0.4337,0.3526,0.3114,0.2587,0.2165,0.1458,0.0862,0.1133,0.1305,0.0827,-0.0272,1.3579,1.3634,1.3808,1.3798,1.3677,1.3574,1.3441,1.3108,1.2978,1.2856,1.2782,1.2774,1.2766,1.2898,1.3358,1.3687,1.4006,1.4342,1.4735,1.4866,1.4866,1.4866,1.4866,1.4866,1.4866,1.4866,1.4866,1.4866,1.4866,1.4866,1.4866,1.4866,1.4866,1.4866,1.4866,1.4922,1.5063,1.5167,1.5271,1.5366,1.5385,1.5643,1.602,1.6737,1.7223,1.7611,1.8674,1.9075,1.9023,1.8588,1.7847,1.6619,1.4843,1.3417,1.2759,1.2574,1.2642,1.2661,1.2712,1.2847,1.2682,1.2688,1.2855,1.1761,1.1295,1.1791,1.2282,1.1825,1.1684,1.1824,1.2009,1.2185,1.2514,1.283,1.3356,1.3995,1.4454,1.5174,1.5931,1.6321,1.6665,1.687,1.7034,1.6793,1.6615,1.7923,1.7901,1.7106,1.7154,1.736,1.685,1.595,1.5751,1.5155,1.3555,1.2358,1.1359,1.0462,0.9556,0.8453,0.6953,0.615,0.5551,0.4031,0.2517,0.1904,0.1396,0.079,0.0293,0.0192,-0.0284,-0.0741,-0.0823,-0.0815,-0.1252,1.0933,1.197,1.3154,1.375,1.3815,1.3701,1.3445,1.3295,1.3108,1.2895,1.279,1.2774,1.2766,1.2832,1.3424,1.3809,1.394,1.4408,1.4735,1.4866,1.4866,1.4866,1.4866,1.4866,1.4866,1.4866,1.4866,1.4885,1.4941,1.4875,1.4875,1.4866,1.4866,1.4866,1.4913,1.4988,1.512,1.5117,1.5313,1.5385,1.5381,1.5625,1.6094,1.6448,1.6746,1.6586,1.7268,1.746,1.7164,1.6668,1.5667,1.4497,1.3054,1.2726,1.2637,1.2773,1.28,1.2854,1.2842,1.2788,1.2381,1.1528,1.1095,1.0066,0.9848,1.076,1.0815,1.0093,0.9777,0.9884,1.001,1.0263,1.043,1.0729,1.1028,1.1439,1.1951,1.2774,1.3614,1.3947,1.4277,1.4556,1.4818,1.4748,1.447,1.4357,1.4327,1.3989,1.4101,1.4171,1.396,1.3456,1.3655,1.2957,1.1259,0.9957,0.8955,0.7754,0.6648,0.5645,0.464,0.3833,0.3025,0.2112,0.1104,0.03,-0.0496,-0.147,-0.1741,-0.1426,-0.1408,-0.1753,-0.2002,-0.1981,-0.2307,0.962,1.0335,1.1237,1.1698,1.1754,1.1621,1.1888,1.235,1.2262,1.2502,1.2879,1.2815,1.2774,1.284,1.3424,1.3809,1.394,1.4399,1.4735,1.4866,1.4866,1.4866,1.4866,1.4866,1.4866,1.4875,1.5035,1.5054,1.4959,1.4969,1.4997,1.4903,1.4875,1.4922,1.4988,1.5129,1.5011,1.4701,1.5003,1.4955,1.485,1.5009,1.5265,1.5604,1.531,1.5159,1.5373,1.5624,1.5406,1.4874,1.4145,1.3603,1.2908,1.2804,1.2847,1.2935,1.299,1.3057,1.2929,1.2432,1.1712,1.0688,0.9594,0.8711,0.7263,0.8021,0.8782,0.8195,0.8835,0.9109,0.9123,0.9259,0.9451,0.968,0.9866,1.0158,1.084,1.1668,1.2206,1.2389,1.2797,1.3187,1.3429,1.3734,1.3548,1.3531,1.2995,1.1938,1.1762,1.1392,1.1082,1.0763,1.0863,1.0362,0.8762,0.7556,0.6447,0.5141,0.4035,0.3329,0.2724,0.1513,0.0403,0.0101,-0.0501,-0.1492,-0.2366,-0.2731,-0.2872,-0.235,-0.2512,-0.2857,-0.2908,-0.2868,-0.2841,0.8559,0.8783,0.91,0.9236,0.9182,0.9128,0.983,1.085,1.0879,1.1433,1.2172,1.2104,1.2425,1.2972,1.3301,1.3621,1.4015,1.4473,1.4735,1.4866,1.4866,1.4866,1.4866,1.4866,1.4866,1.4913,1.4988,1.495,1.4875,1.4969,1.4988,1.4903,1.4941,1.4941,1.5015,1.4944,1.4674,1.4077,1.385,1.3587,1.3595,1.3802,1.4203,1.3994,1.3488,1.3176,1.3543,1.371,1.3641,1.3319,1.2929,1.2873,1.2797,1.284,1.2935,1.3024,1.3146,1.3023,1.2566,1.1558,1.0675,0.9642,0.8424,0.7095,0.5625,0.5493,0.6264,0.6745,0.7367,0.7633,0.7628,0.7653,0.781,0.7953,0.8123,0.831,0.9091,0.9782,1.0046,1.0304,1.0679,1.1059,1.1484,1.1793,1.2004,1.2189,1.1837,1.0866,0.9905,0.9248,0.8716,0.8187,0.7867,0.7065,0.6256,0.5244,0.4233,0.3529,0.2522,0.1715,0.0807,-0.0404,-0.1109,-0.1309,-0.2003,-0.2578,-0.275,-0.3014,-0.3048,-0.2983,-0.2956,-0.293,-0.2886,-0.2853,-0.2849,0.6054,0.7287,0.8426,0.9014,0.9111,0.9138,0.9341,0.9394,0.9437,0.9561,0.9802,0.9892,1.0677,1.3235,1.3621,1.3875,1.4015,1.4417,1.4744,1.4866,1.4903,1.4885,1.4866,1.4866,1.4866,1.4922,1.4913,1.4913,1.4602,1.4734,1.495,1.4902,1.4987,1.4687,1.4121,1.4044,1.3858,1.3193,1.299,1.2867,1.2874,1.2999,1.3197,1.3169,1.3163,1.2564,1.2243,1.2346,1.1881,1.16,1.1824,1.2311,1.2621,1.2922,1.3037,1.299,1.311,1.2338,1.1635,1.0498,0.9492,0.7351,0.6145,0.5309,0.4247,0.3698,0.4146,0.4166,0.4576,0.4622,0.4676,0.4661,0.4844,0.4832,0.4891,0.4968,0.5466,0.5833,0.6085,0.6425,0.6668,0.711,0.7644,0.797,0.8314,0.85,0.8768,0.7899,0.8156,0.7392,0.6631,0.5997,0.5469,0.4847,0.4438,0.3127,0.2118,0.1513,0.0908,-0.0101,-0.1211,-0.2221,-0.2723,-0.2418,-0.2493,-0.2859,-0.3125,-0.3104,-0.304,-0.298,-0.2943,-0.2908,-0.2864,-0.2837,-0.2831]}]]